[[{"header":{"parameterUnit":"m.s-1","parameterCategory":1,"la1":30.6,"la2":29.2853,"lo1":-89.7004,"lo2":-87.6739,"dy":0.0162,"dx":0.0183,"nx":112,"ny":82,"refTime":"2023-08-25T00:00:00:Z","depth":0,"parameterNumber":2,"parameterNumberName":"U-component_of_WINDS"},"data":[0.0,0.0,0.0,0.0,0.0,0.0,0.0,0.0,0.0,0.0,0.0,0.0,0.0,0.0,0.0,0.0,0.0,0.0,0.0,0.0,0.0,0.0,0.0,0.0,0.0,0.0,0.0,0.0,0.0,0.0,0.0,0.0,0.0,0.0,0.0,0.0,0.0,0.0,0.0,0.0,0.0,0.0,0.0,0.0,0.0,0.0,0.0,0.0,0.0,0.0,0.0,0.0,0.0,0.0,0.0,0.0,0.0,0.0,0.0,0.0,0.0,0.0,0.0,0.0,0.0,0.0,0.0,0.0,0.0,0.0,0.0,0.0,0.0,0.0,0.0,0.0,0.0,0.0,0.0,0.0,0.0,0.0,0.0,0.0,0.0,0.0,0.0,0.0,0.0,0.0,-2.5376,-2.5638,-2.7128,-2.8442,-2.9272,-3.0149,-3.0049,-2.8621,0.0,0.0,0.0,0.0,0.0,0.0,0.0,0.0,0.0,0.0,0.0,0.0,0.0,0.0,0.0,0.0,0.0,0.0,0.0,0.0,0.0,0.0,0.0,0.0,0.0,0.0,0.0,0.0,0.0,0.0,0.0,0.0,0.0,0.0,0.0,0.0,0.0,0.0,0.0,0.0,0.0,0.0,0.0,0.0,0.0,0.0,0.0,0.0,0.0,0.0,0.0,0.0,0.0,0.0,0.0,0.0,0.0,0.0,0.0,0.0,0.0,0.0,0.0,0.0,0.0,0.0,0.0,0.0,0.0,0.0,0.0,0.0,0.0,0.0,0.0,0.0,0.0,0.0,0.0,0.0,0.0,0.0,0.0,0.0,0.0,0.0,0.0,0.0,0.0,0.0,0.0,0.0,0.0,0.0,0.0,0.0,0.0,0.0,0.0,0.0,0.0,0.0,0.0,0.0,-2.5452,-2.6333,-2.7423,-2.8377,-2.9091,-2.9941,-3.0337,-3.0085,0.0,0.0,0.0,0.0,0.0,0.0,0.0,0.0,0.0,0.0,0.0,0.0,0.0,0.0,0.0,0.0,0.0,0.0,0.0,0.0,0.0,0.0,0.0,0.0,0.0,0.0,0.0,0.0,0.0,0.0,0.0,0.0,0.0,0.0,0.0,0.0,0.0,0.0,0.0,0.0,0.0,0.0,0.0,0.0,0.0,0.0,0.0,0.0,0.0,0.0,0.0,0.0,0.0,0.0,0.0,0.0,0.0,0.0,0.0,0.0,0.0,0.0,0.0,0.0,0.0,0.0,0.0,0.0,0.0,0.0,0.0,0.0,0.0,0.0,0.0,0.0,0.0,0.0,0.0,0.0,0.0,0.0,0.0,0.0,0.0,0.0,0.0,0.0,0.0,0.0,0.0,0.0,0.0,0.0,0.0,0.0,0.0,0.0,0.0,0.0,0.0,0.0,0.0,-2.5303,-2.5793,-2.7009,-2.771,-2.8565,-2.9717,-3.016,-3.0393,-3.0404,-2.9726,0.0,0.0,0.0,0.0,0.0,0.0,0.0,0.0,0.0,0.0,0.0,0.0,0.0,0.0,0.0,0.0,0.0,0.0,0.0,0.0,0.0,0.0,0.0,0.0,0.0,0.0,0.0,0.0,0.0,0.0,0.0,0.0,0.0,0.0,0.0,0.0,0.0,0.0,0.0,0.0,0.0,0.0,0.0,0.0,0.0,0.0,0.0,0.0,0.0,0.0,0.0,0.0,0.0,0.0,0.0,0.0,0.0,0.0,0.0,0.0,0.0,0.0,0.0,0.0,0.0,0.0,0.0,0.0,0.0,0.0,0.0,0.0,0.0,0.0,0.0,0.0,0.0,0.0,0.0,0.0,0.0,0.0,0.0,0.0,0.0,0.0,0.0,0.0,0.0,0.0,0.0,0.0,0.0,0.0,0.0,0.0,0.0,0.0,0.0,0.0,0.0,0.0,-2.5264,-2.5823,-2.6945,-2.7613,-2.8464,-2.9674,-3.0083,-3.0325,-3.0411,-2.9603,0.0,0.0,0.0,0.0,0.0,0.0,0.0,0.0,0.0,0.0,0.0,0.0,0.0,0.0,0.0,0.0,0.0,0.0,0.0,0.0,0.0,0.0,0.0,0.0,0.0,0.0,0.0,0.0,0.0,0.0,0.0,0.0,0.0,0.0,0.0,0.0,0.0,0.0,0.0,0.0,0.0,0.0,0.0,0.0,0.0,0.0,0.0,0.0,0.0,0.0,0.0,0.0,0.0,0.0,0.0,0.0,0.0,0.0,0.0,0.0,0.0,0.0,0.0,0.0,0.0,0.0,0.0,0.0,0.0,0.0,0.0,0.0,0.0,0.0,0.0,0.0,0.0,0.0,0.0,0.0,0.0,0.0,0.0,0.0,0.0,0.0,0.0,0.0,0.0,0.0,0.0,0.0,0.0,0.0,0.0,0.0,0.0,0.0,0.0,0.0,0.0,0.0,-2.5037,-2.5209,-2.5447,-2.6772,-2.7738,-2.7964,-2.9188,-3.0071,-3.0386,-2.9466,0.0,0.0,0.0,0.0,0.0,0.0,0.0,0.0,0.0,0.0,0.0,0.0,0.0,0.0,0.0,0.0,0.0,0.0,0.0,0.0,0.0,0.0,0.0,0.0,0.0,0.0,0.0,0.0,0.0,0.0,0.0,0.0,0.0,0.0,0.0,0.0,0.0,0.0,0.0,0.0,0.0,0.0,0.0,0.0,0.0,0.0,0.0,0.0,0.0,0.0,0.0,0.0,0.0,0.0,0.0,0.0,0.0,0.0,0.0,0.0,0.0,0.0,0.0,0.0,0.0,0.0,0.0,0.0,0.0,0.0,0.0,0.0,0.0,0.0,0.0,0.0,0.0,0.0,0.0,0.0,0.0,0.0,0.0,0.0,0.0,0.0,0.0,0.0,0.0,0.0,0.0,0.0,0.0,0.0,0.0,0.0,0.0,0.0,0.0,0.0,0.0,0.0,-2.5513,-2.6034,-2.6556,-2.7656,-2.8553,-2.9065,-2.9608,-2.9981,-3.019,0.0,0.0,0.0,0.0,0.0,0.0,0.0,0.0,0.0,0.0,0.0,0.0,0.0,0.0,0.0,0.0,0.0,0.0,0.0,0.0,0.0,0.0,0.0,0.0,0.0,0.0,0.0,0.0,0.0,0.0,0.0,0.0,0.0,0.0,0.0,0.0,0.0,0.0,0.0,0.0,0.0,0.0,0.0,0.0,0.0,0.0,0.0,0.0,0.0,0.0,0.0,0.0,0.0,0.0,0.0,0.0,0.0,0.0,0.0,0.0,0.0,0.0,0.0,0.0,0.0,0.0,0.0,0.0,0.0,0.0,0.0,0.0,0.0,0.0,0.0,0.0,0.0,0.0,0.0,0.0,0.0,0.0,0.0,0.0,0.0,0.0,0.0,0.0,0.0,0.0,0.0,0.0,0.0,0.0,0.0,0.0,0.0,0.0,0.0,0.0,0.0,0.0,-2.5,-2.5722,-2.6412,-2.6996,-2.8027,-2.892,-2.9494,-2.972,-2.9918,-3.0144,0.0,0.0,0.0,0.0,0.0,0.0,0.0,0.0,0.0,0.0,0.0,0.0,0.0,0.0,0.0,0.0,0.0,0.0,0.0,0.0,0.0,0.0,0.0,0.0,0.0,0.0,0.0,0.0,0.0,0.0,0.0,0.0,0.0,0.0,0.0,0.0,0.0,0.0,0.0,0.0,0.0,0.0,0.0,0.0,0.0,0.0,0.0,0.0,0.0,0.0,0.0,0.0,0.0,0.0,0.0,0.0,0.0,0.0,0.0,0.0,0.0,0.0,0.0,0.0,0.0,0.0,0.0,0.0,0.0,0.0,0.0,0.0,0.0,0.0,0.0,0.0,0.0,0.0,0.0,0.0,0.0,0.0,0.0,0.0,0.0,0.0,0.0,0.0,0.0,0.0,0.0,0.0,0.0,0.0,0.0,0.0,0.0,0.0,0.0,0.0,0.0,0.0,-2.4795,-2.5518,-2.6091,-2.6295,-2.7592,-2.8525,-2.8788,-2.9366,-2.9872,0.0,0.0,0.0,0.0,0.0,0.0,0.0,0.0,0.0,0.0,0.0,0.0,0.0,0.0,0.0,0.0,0.0,0.0,0.0,0.0,0.0,0.0,0.0,0.0,0.0,0.0,0.0,0.0,0.0,0.0,0.0,0.0,0.0,0.0,0.0,0.0,0.0,0.0,0.0,0.0,0.0,0.0,0.0,0.0,0.0,0.0,0.0,0.0,0.0,0.0,0.0,0.0,0.0,0.0,0.0,0.0,0.0,0.0,0.0,0.0,0.0,0.0,0.0,0.0,0.0,0.0,0.0,0.0,0.0,0.0,0.0,0.0,0.0,0.0,0.0,0.0,0.0,0.0,0.0,0.0,0.0,0.0,0.0,0.0,0.0,0.0,0.0,0.0,0.0,0.0,0.0,0.0,0.0,0.0,0.0,0.0,0.0,0.0,0.0,0.0,0.0,0.0,0.0,-2.5634,-2.632,-2.7035,-2.7702,-2.8704,-2.9344,-2.943,-2.9605,-2.979,-2.9992,0.0,0.0,0.0,0.0,0.0,0.0,0.0,0.0,0.0,0.0,0.0,0.0,0.0,0.0,0.0,0.0,0.0,0.0,0.0,0.0,0.0,0.0,0.0,0.0,0.0,0.0,0.0,0.0,0.0,0.0,0.0,0.0,0.0,0.0,0.0,0.0,0.0,0.0,0.0,0.0,0.0,0.0,0.0,0.0,0.0,0.0,0.0,0.0,0.0,0.0,0.0,0.0,0.0,0.0,0.0,0.0,0.0,0.0,0.0,0.0,0.0,0.0,0.0,0.0,0.0,0.0,0.0,0.0,0.0,0.0,0.0,0.0,0.0,0.0,0.0,0.0,0.0,0.0,0.0,0.0,0.0,0.0,0.0,0.0,0.0,0.0,0.0,0.0,0.0,0.0,0.0,0.0,0.0,0.0,0.0,0.0,0.0,0.0,0.0,0.0,0.0,0.0,-2.6386,-2.708,-2.7773,-2.8297,-2.912,-2.9626,-2.9645,-2.9645,-2.9719,-2.9888,0.0,0.0,0.0,0.0,0.0,0.0,0.0,0.0,0.0,0.0,0.0,0.0,0.0,0.0,0.0,0.0,0.0,0.0,0.0,0.0,0.0,0.0,0.0,0.0,0.0,0.0,0.0,0.0,0.0,0.0,0.0,0.0,0.0,0.0,0.0,0.0,0.0,0.0,0.0,0.0,0.0,0.0,0.0,0.0,0.0,0.0,0.0,0.0,0.0,0.0,0.0,0.0,0.0,0.0,0.0,0.0,0.0,0.0,0.0,0.0,0.0,0.0,0.0,0.0,0.0,0.0,0.0,0.0,0.0,0.0,0.0,0.0,0.0,0.0,0.0,0.0,0.0,0.0,0.0,0.0,0.0,0.0,0.0,0.0,0.0,0.0,0.0,0.0,0.0,0.0,0.0,0.0,0.0,0.0,0.0,0.0,0.0,0.0,0.0,0.0,0.0,0.0,-2.7028,-2.7735,-2.8258,-2.8332,-2.9004,-2.9453,-2.9511,-2.9531,-2.9645,-2.9822,0.0,0.0,0.0,0.0,0.0,0.0,0.0,0.0,0.0,0.0,0.0,0.0,0.0,0.0,0.0,0.0,0.0,0.0,0.0,0.0,0.0,0.0,0.0,0.0,0.0,0.0,0.0,0.0,0.0,0.0,0.0,0.0,0.0,0.0,0.0,0.0,0.0,0.0,0.0,0.0,0.0,0.0,0.0,0.0,0.0,0.0,0.0,0.0,0.0,0.0,0.0,0.0,0.0,0.0,0.0,0.0,0.0,0.0,0.0,0.0,-2.1944,-2.1671,0.0,0.0,0.0,0.0,0.0,0.0,0.0,0.0,0.0,0.0,0.0,0.0,0.0,0.0,0.0,0.0,0.0,0.0,0.0,0.0,0.0,0.0,0.0,0.0,0.0,0.0,0.0,0.0,0.0,0.0,0.0,0.0,0.0,0.0,0.0,0.0,0.0,0.0,0.0,0.0,-2.726,-2.7447,-2.7817,-2.8479,-2.8727,-2.8865,-2.8888,-2.9126,-2.9293,-2.9355,-2.9551,0.0,0.0,0.0,0.0,0.0,0.0,0.0,0.0,0.0,0.0,0.0,0.0,0.0,0.0,0.0,0.0,0.0,0.0,0.0,0.0,0.0,0.0,0.0,0.0,0.0,0.0,0.0,0.0,0.0,0.0,0.0,0.0,0.0,0.0,0.0,0.0,0.0,0.0,0.0,0.0,0.0,0.0,0.0,0.0,0.0,0.0,0.0,0.0,0.0,0.0,0.0,0.0,0.0,0.0,0.0,0.0,0.0,0.0,0.0,-2.2838,-2.2447,0.0,0.0,0.0,0.0,0.0,0.0,0.0,0.0,0.0,0.0,0.0,0.0,0.0,0.0,0.0,0.0,0.0,0.0,0.0,0.0,0.0,0.0,0.0,0.0,0.0,0.0,0.0,0.0,0.0,0.0,0.0,0.0,0.0,0.0,0.0,0.0,0.0,0.0,0.0,0.0,-2.7888,-2.7912,-2.81,-2.8517,-2.8578,-2.8628,-2.8652,-2.8814,-2.8975,-2.9148,-2.9279,0.0,0.0,0.0,0.0,0.0,0.0,0.0,0.0,0.0,0.0,0.0,0.0,0.0,0.0,0.0,0.0,0.0,0.0,0.0,0.0,0.0,0.0,0.0,0.0,0.0,0.0,0.0,0.0,0.0,0.0,0.0,0.0,0.0,0.0,0.0,0.0,0.0,0.0,0.0,0.0,0.0,0.0,0.0,0.0,0.0,0.0,0.0,0.0,0.0,0.0,0.0,0.0,0.0,-2.37,-2.4447,-2.5201,-2.5136,-2.5564,-2.6323,-2.359,-2.3219,-2.4361,-2.3659,0.0,0.0,0.0,0.0,0.0,0.0,0.0,0.0,0.0,0.0,0.0,0.0,0.0,0.0,0.0,0.0,0.0,0.0,0.0,0.0,0.0,0.0,-2.5084,-2.5476,-2.561,-2.5888,-2.669,0.0,0.0,0.0,0.0,0.0,0.0,0.0,0.0,0.0,0.0,0.0,-2.8376,-2.8376,-2.8376,-2.8376,-2.8376,-2.8376,-2.8428,-2.8504,-2.8652,-2.8929,-2.8975,-2.9126,0.0,0.0,0.0,0.0,0.0,0.0,0.0,0.0,0.0,0.0,0.0,0.0,0.0,0.0,0.0,0.0,0.0,0.0,0.0,0.0,0.0,0.0,0.0,0.0,0.0,0.0,0.0,0.0,0.0,0.0,0.0,0.0,-1.8975,-1.9097,0.0,0.0,0.0,0.0,0.0,0.0,0.0,0.0,0.0,0.0,0.0,0.0,0.0,-2.2774,-2.4359,-2.4922,-2.5792,-2.6964,-2.7509,-2.7605,-2.7185,-2.6983,-2.7223,-2.778,-2.6676,0.0,-2.4839,-2.4242,0.0,0.0,0.0,0.0,0.0,0.0,0.0,0.0,0.0,0.0,0.0,0.0,0.0,0.0,0.0,0.0,0.0,0.0,0.0,0.0,0.0,0.0,-2.5005,-2.5084,-2.5307,-2.5689,-2.6177,-2.7267,-2.8051,-2.7764,-2.8855,-2.9396,0.0,0.0,0.0,0.0,0.0,0.0,-2.7858,-2.78,-2.78,-2.78,-2.78,-2.78,-2.7829,-2.8093,-2.8264,-2.8316,-2.8428,-2.8652,-2.906,-2.8731,0.0,0.0,0.0,0.0,0.0,0.0,0.0,0.0,0.0,0.0,0.0,0.0,0.0,0.0,0.0,0.0,0.0,0.0,0.0,0.0,0.0,0.0,0.0,0.0,0.0,0.0,0.0,0.0,0.0,-1.9353,-1.9946,-2.0296,-2.1107,-2.166,0.0,0.0,0.0,0.0,0.0,0.0,0.0,0.0,0.0,-2.3765,-2.4381,-2.5088,-2.5928,-2.6816,-2.7619,-2.8283,-2.9136,-2.9408,-2.9154,-2.9331,-2.9687,-3.0012,-2.8661,-2.7894,-2.7563,-2.6157,-2.5368,-2.4929,0.0,0.0,0.0,0.0,-2.4878,-2.4931,-2.5064,-2.5117,-2.5113,-2.4723,0.0,0.0,0.0,0.0,0.0,0.0,0.0,-2.5005,-2.5005,-2.5005,-2.5116,-2.5456,-2.5695,-2.6076,-2.7214,-2.7967,-2.8254,-2.7766,-2.825,-2.8526,-2.7824,-2.8082,0.0,0.0,0.0,-2.7811,-2.773,-2.7701,-2.7701,-2.7701,-2.7701,-2.7701,-2.7701,-2.7829,-2.7982,-2.8129,-2.821,-2.8402,-2.8766,-2.8572,-2.8615,0.0,0.0,0.0,0.0,0.0,0.0,0.0,0.0,0.0,0.0,0.0,0.0,0.0,0.0,0.0,0.0,0.0,0.0,0.0,0.0,0.0,0.0,0.0,0.0,0.0,0.0,0.0,0.0,-2.057,-2.0932,-2.165,-2.2389,-2.2828,0.0,0.0,0.0,0.0,0.0,0.0,-2.3862,-2.4553,-2.5247,-2.5911,-2.6934,-2.762,-2.7925,-2.8809,-2.9449,-2.9898,-3.0772,-3.1067,-3.0937,-3.139,-3.169,-3.171,-3.0378,-2.985,-2.9742,-2.7647,-2.6793,-2.67,-2.668,-2.6583,-2.6392,-2.6301,-2.6283,-2.6297,-2.6165,-2.615,-2.6119,-2.5505,-2.5159,-2.4829,-2.4455,0.0,0.0,0.0,0.0,-2.5471,-2.5282,-2.5417,-2.5598,-2.593,-2.6151,-2.6636,-2.7909,-2.8163,-2.8135,-2.8181,-2.8255,-2.8245,-2.8035,-2.7999,0.0,-2.7999,-2.7999,-2.7999,-2.7999,-2.7999,-2.7929,-2.7719,-2.7701,-2.7701,-2.7701,-2.7701,-2.78,-2.801,-2.7992,-2.8156,-2.8453,-2.835,-2.8376,-2.8578,0.0,0.0,0.0,0.0,0.0,0.0,0.0,0.0,0.0,0.0,0.0,0.0,0.0,0.0,0.0,0.0,0.0,0.0,0.0,0.0,0.0,0.0,0.0,0.0,0.0,0.0,0.0,0.0,0.0,-2.3633,-2.3685,0.0,0.0,0.0,0.0,-2.3285,-2.4458,-2.5341,-2.5542,-2.6837,-2.789,-2.8511,-2.9226,-3.0207,-3.1322,-3.1395,-3.2034,-3.3158,-3.3216,-3.2901,-3.2283,-3.2663,-3.2482,-3.199,-3.219,-3.1623,-3.0346,-2.7899,-2.7239,-2.7637,-2.6761,-2.6933,-2.7483,-2.6619,-2.6283,-2.6351,-2.6659,-2.6394,-2.5934,-2.6162,-2.5483,-2.4794,-2.5842,-2.5667,0.0,0.0,-2.6918,-2.683,-2.6135,-2.6467,-2.683,-2.6167,-2.6546,-2.7164,-2.7558,-2.7225,-2.7396,-2.9398,-2.9884,-2.9737,-2.8983,0.0,-2.8842,-2.8842,-2.8842,-2.8842,-2.8842,-2.8842,-2.8544,-2.7771,-2.7701,-2.7701,-2.7701,-2.7701,-2.7701,-2.773,-2.773,-2.784,-2.8112,-2.7869,-2.7964,-2.8504,-2.8246,0.0,0.0,0.0,0.0,0.0,0.0,0.0,0.0,0.0,0.0,0.0,0.0,0.0,0.0,0.0,0.0,0.0,0.0,0.0,0.0,0.0,0.0,0.0,0.0,0.0,0.0,0.0,0.0,-2.4625,-2.5322,0.0,-2.6268,-2.6507,-2.6698,-2.7031,-2.7113,-2.7307,-2.7731,-2.8,-2.8252,-2.8518,-2.9468,-3.0065,-3.0147,-3.1295,-3.2176,-3.2787,-3.3604,-3.4141,-3.4383,-3.4251,-3.4053,-3.3806,-3.3362,-3.2861,-3.2338,-3.0587,-2.9297,-2.8354,-2.8011,-2.7808,-2.7697,-2.7801,-2.7559,-2.727,-2.7564,-2.7157,-2.6413,-2.6129,-2.5887,-2.5902,-2.7006,-2.6692,-2.6216,-2.7344,-2.7387,-2.7051,-2.6783,-2.6909,-2.7146,-2.7304,-2.7541,-2.7973,-2.8807,-2.8339,-2.8339,-3.039,-2.9351,-2.8253,-2.8767,-2.8864,-2.8895,-2.8895,-2.9351,-2.9299,-2.8263,-2.8579,-2.8596,-2.7789,-2.7701,-2.7701,-2.7701,-2.7701,-2.7701,-2.7701,-2.7701,-2.7742,-2.784,-2.7742,-2.78,-2.7964,-2.7897,-2.7964,0.0,0.0,0.0,0.0,0.0,0.0,0.0,0.0,0.0,0.0,0.0,0.0,0.0,0.0,0.0,0.0,0.0,0.0,0.0,0.0,0.0,0.0,0.0,0.0,0.0,-2.3867,-2.4892,-2.5673,-2.684,-2.7742,-2.8065,-2.8314,-2.8719,-2.9297,-2.8937,-2.8996,-2.9613,-2.9483,-2.9584,-2.9979,-3.0757,-3.0985,-3.0596,-3.1837,-3.2526,-3.2678,-3.3772,-3.461,-3.5052,-3.5001,-3.4935,-3.4839,-3.4163,-3.374,-3.3398,-3.2527,-3.1177,-2.9595,-2.916,-2.8739,-2.839,-2.8594,-2.8419,-2.8016,-2.7939,-2.7499,-2.6876,-2.6254,-2.6136,-2.6481,-2.755,-2.7448,-2.7164,-2.8153,-2.8126,-2.7731,-2.7494,-2.762,-2.7841,-2.8047,-2.8268,-2.8643,-2.9403,-2.8854,-2.8737,-3.0353,-2.9023,-2.8031,-2.9333,-2.9411,-2.9386,-2.9632,-3.0124,-3.0088,-2.9018,-2.9351,-2.9386,-2.8596,-2.8509,-2.8509,-2.8509,-2.8509,-2.8386,-2.8122,-2.8105,-2.7982,-2.7701,-2.7701,-2.7824,-2.8105,-2.8368,-2.8581,-2.877,0.0,0.0,0.0,0.0,0.0,0.0,0.0,0.0,0.0,0.0,0.0,0.0,0.0,0.0,0.0,0.0,0.0,0.0,0.0,0.0,0.0,0.0,0.0,-2.4247,-2.5337,-2.638,-2.698,-2.8197,-2.9077,-2.9218,-2.9232,-2.9417,-2.9907,-2.9882,-3.0309,-3.1235,-3.1219,-3.176,-3.3129,-3.3143,-3.3143,-3.3213,-3.3213,-3.3213,-3.3213,-3.3973,-3.4312,-3.438,-3.492,-3.5082,-3.4868,-3.475,-3.4266,-3.3499,-3.3485,-3.2716,-3.1453,-3.0176,-2.9668,-2.9552,-2.8956,-2.8724,-2.8623,-2.7707,-2.7353,-2.7224,-2.658,-2.6351,-2.6549,-2.763,-2.7929,-2.811,-2.892,-2.9107,-2.8979,-2.8331,-2.8632,-2.8963,-2.8284,-2.8632,-2.9121,-2.9121,-2.8629,-2.843,-2.9376,-2.9195,-2.933,-3.0833,-3.055,-3.0387,-3.1089,-3.1212,0.0,-3.1159,-3.1177,-3.0914,-3.0194,-3.0106,-3.0106,-3.0106,-3.0106,-2.9772,-2.8983,-2.8947,-2.8596,-2.7806,-2.7771,-2.814,-2.893,-2.9702,-3.0106,-3.0106,0.0,0.0,0.0,0.0,0.0,0.0,0.0,0.0,0.0,0.0,0.0,0.0,0.0,0.0,0.0,0.0,0.0,0.0,0.0,0.0,0.0,-2.5334,-2.5427,-2.537,-2.6872,-2.8541,-3.009,-3.0579,-3.1184,-3.2174,-3.2283,-3.2489,-3.3049,-3.2208,-3.1956,-3.2597,-3.1653,-3.1443,-3.2362,-3.2362,-3.2648,-3.3213,-3.3768,-3.3973,-3.4041,-3.4758,-3.5198,-3.5198,-3.5213,-3.5082,-3.4868,-3.475,-3.4461,-3.4124,-3.3659,-3.3253,-3.2803,-3.1496,-3.0437,-2.9668,-2.9943,-2.9769,-2.9391,-2.9569,-2.8931,-2.8027,-2.798,-2.775,-2.7655,-2.8771,-2.8768,-2.8664,-3.0193,-2.9911,-2.92,-2.9516,-2.9358,-2.9028,-2.8884,-2.8995,-2.9213,-2.9544,-2.927,-2.9354,-3.0561,-3.0537,-3.0487,-3.1025,-3.0988,-3.0966,-3.1159,-3.1703,-3.1668,-3.0562,-3.0861,-3.0914,-3.0194,-3.0106,-3.0106,-3.0106,-3.0106,-3.0018,-2.979,-2.9772,-2.9685,-2.9457,-2.9439,-2.9544,-2.9772,-3.0001,-3.0106,0.0,0.0,0.0,0.0,0.0,0.0,0.0,0.0,0.0,0.0,0.0,0.0,0.0,0.0,0.0,0.0,0.0,0.0,0.0,0.0,0.0,0.0,-2.7906,-2.842,-2.8488,-2.9501,-3.051,-3.1292,-3.2164,-3.2889,-3.3325,-3.363,-3.3699,-3.3408,-3.3283,-3.3227,-3.3213,-3.239,-3.2232,-3.2989,-3.2706,-3.2791,-3.3213,-3.363,-3.3837,-3.3837,-3.4624,-3.4986,-3.4986,-3.5148,-3.5082,-3.4868,-3.475,-3.4563,-3.4385,-3.4008,-3.3703,-3.3405,0.0,0.0,0.0,0.0,-3.0793,-3.0323,-3.0638,-2.9952,-2.8982,-2.897,-2.8773,-2.8679,-2.9521,-2.9635,-2.9795,-3.0887,-3.0417,-2.9659,-3.0069,-2.9659,-2.9167,-2.9335,-2.938,-2.9499,-3.0011,-2.9922,-3.0109,-3.1138,-3.1222,0.0,-3.1567,-3.167,-3.1703,-3.1703,-3.209,-3.209,-3.1177,-3.144,-3.1545,-3.1107,-3.1072,-3.1072,-3.1072,-3.1072,0.0,0.0,0.0,-3.0422,-3.0124,-3.0404,0.0,0.0,0.0,-3.1072,-3.1072,-3.1072,0.0,0.0,-3.0344,-2.9978,0.0,0.0,0.0,0.0,0.0,0.0,0.0,0.0,0.0,0.0,0.0,0.0,0.0,0.0,0.0,0.0,-3.0689,-3.2361,-3.2616,-3.2698,-3.2439,-3.1749,-3.332,-3.4182,-3.3506,-3.4041,-3.3822,-3.242,-3.3547,-3.3973,-3.3213,-3.3213,0.0,0.0,0.0,-3.3353,-3.3437,-3.3437,-3.3437,-3.3506,-3.4109,-3.4461,-3.4461,-3.4986,-3.5082,-3.4868,-3.475,-3.4563,-3.4414,-3.4414,-3.406,-3.3433,-3.2488,-3.2078,-3.2065,-3.1935,-3.1622,-3.1273,-3.1238,0.0,0.0,-2.9801,-2.9701,-2.9704,-3.011,-3.0633,-3.1074,-3.1347,-3.0891,-3.0291,-3.0291,-2.9816,-2.94,-2.9738,-2.9837,-3.0011,-3.0477,-3.0559,-3.0747,-3.1359,-3.149,-3.1694,-3.2267,-3.2406,-3.2406,-3.2406,-3.2406,-3.2406,-3.2406,-3.2406,-3.2406,-3.2406,-3.2406,0.0,-3.2406,-3.2406,-3.209,-3.137,-3.1335,-3.1036,-3.0404,-3.0984,-3.1335,-3.1335,-3.2037,-3.2406,-3.2406,-3.2388,-3.2388,-3.2318,-3.0849,-3.0136,0.0,0.0,0.0,0.0,0.0,0.0,0.0,0.0,0.0,0.0,0.0,0.0,0.0,0.0,0.0,-3.0665,-3.2,-3.3353,-3.5053,-3.499,-3.4694,-3.4519,-3.4857,-3.5098,-3.506,-3.5213,-3.4905,-3.3959,-3.4163,-3.3973,-3.3213,-3.3213,-3.3561,-3.4312,-3.4177,-3.4409,-3.5067,-3.5082,-3.5082,-3.5082,-3.5213,0.0,-3.5279,-3.5213,-3.5082,-3.4868,-3.475,-3.4563,-3.4414,-3.4414,-3.4177,-3.3651,-3.2188,-3.1571,-3.1514,-3.1811,-3.1546,-3.1207,-3.2453,-3.1821,-3.0634,-3.1444,-3.1325,-3.0964,-3.1647,-3.1505,0.0,-3.2582,-3.1981,-3.1018,-3.1018,-3.0752,-3.0387,-2.9895,-3.0097,-3.0477,-3.0868,-3.0988,-3.1201,-3.1839,-3.1948,-3.2073,-3.2354,-3.2406,-3.2406,-3.2406,-3.2406,-3.2406,-3.2406,-3.2406,-3.2406,-3.2406,-3.2406,-3.2406,-3.2406,-3.2406,-3.2335,-3.2177,-3.216,-3.209,-3.1967,-3.209,-3.216,-3.216,-3.2318,-3.2406,-3.2406,-3.2301,-3.2232,-3.2214,-3.1917,-3.1742,0.0,0.0,0.0,0.0,0.0,0.0,0.0,0.0,0.0,0.0,0.0,-2.6726,0.0,0.0,-3.0392,-3.3125,-3.4369,-3.5452,-3.6777,-3.7156,-3.7002,-3.5907,-3.5556,-3.5392,-3.5392,-3.5472,-3.5001,-3.3837,-3.4476,-3.4543,-3.3768,-3.4138,-3.4491,-3.4905,-3.4905,-3.5052,-3.5504,-3.5504,-3.5504,-3.5504,-3.5504,-3.5504,-3.5504,-3.5213,-3.5001,-3.4868,-3.4683,-3.4481,-3.4414,-3.4668,-3.4654,-3.4319,-3.3154,-3.2406,-3.1992,-3.2453,-3.2292,-3.1921,-3.2955,-3.251,-3.1522,-3.2088,-3.2029,-3.1808,-3.2206,-3.2029,-3.1887,-3.2582,-3.1776,-3.0734,-3.0959,-3.0953,-3.0884,-3.1021,-3.1516,-3.1974,-3.2003,-3.2012,-3.2008,-3.2071,-3.2108,-3.2144,-3.2371,-3.2406,-3.2406,-3.2406,-3.2406,-3.2406,-3.2406,-3.2406,-3.2406,-3.2406,-3.2406,-3.2406,-3.2406,-3.2406,-3.2406,-3.2406,-3.2406,-3.2406,-3.2406,-3.2406,-3.2406,-3.2406,-3.2406,-3.2406,-3.2406,-3.2319,-3.2301,-3.2301,-3.2214,-3.2144,0.0,0.0,0.0,0.0,0.0,0.0,0.0,0.0,-2.6545,-2.7104,-2.8144,-2.926,-3.0333,-3.1438,-3.2894,-3.5198,-3.6544,-3.749,-3.804,-3.8663,-3.8448,-3.6919,-3.623,-3.5755,-3.5356,-3.5444,-3.492,-3.3492,-3.4706,-3.5133,-3.4312,-3.5052,-3.5504,-3.5504,-3.5504,-3.5504,-3.5504,-3.5504,-3.5504,-3.5504,-3.5504,-3.5504,-3.5439,-3.5082,-3.4868,-3.4868,-3.4534,-3.4414,-3.4414,-3.4986,-3.503,-3.4744,-3.4257,-3.351,-3.2765,-3.3065,-3.2996,-3.2765,-3.3187,-3.2945,-3.2471,-3.2471,-3.2471,-3.244,-3.2364,-3.2317,-3.2285,-3.2244,-3.1531,-3.0815,-3.1089,-3.1365,-3.1742,-3.2386,-3.3032,-3.3451,-3.3188,-3.3007,-3.2789,-3.2385,-3.2213,-3.2144,-3.2371,-3.2406,-3.2406,-3.2406,-3.2406,-3.2406,-3.2406,-3.2406,-3.2406,-3.2406,-3.2406,-3.2406,-3.2406,-3.2406,-3.2406,-3.2406,-3.2406,-3.2406,-3.2406,-3.2406,-3.2406,-3.2406,-3.2406,-3.2406,-3.2406,-3.2354,-3.2354,-3.2354,-3.2214,-3.2073,-2.3658,-2.4195,-2.439,-2.4405,-2.559,-2.6971,0.0,0.0,-2.9277,-2.9138,-2.9984,-3.0824,-3.099,-3.3096,-3.5184,-3.6145,-3.7562,-3.8694,-3.8943,-3.8165,-3.7793,-3.8157,-3.7575,-3.6709,-3.5568,-3.5469,-3.5133,-3.4245,-3.4986,-3.5133,-3.4312,-3.5052,-3.5504,-3.5504,-3.5504,-3.5504,-3.5504,-3.5504,-3.5504,-3.5504,-3.5504,-3.5439,-3.5213,-3.5001,-3.4817,-3.4698,-3.4481,-3.4414,-3.4414,-3.4986,-3.4775,-3.4076,-3.437,-3.3979,-3.3187,-3.2834,-3.2888,-3.324,-3.3293,-3.3245,-3.3182,-3.3182,-3.3182,-3.3072,-3.2507,-3.2317,-3.2225,-3.2015,-3.2289,-3.2626,-3.2438,-3.3184,-3.3869,-3.3389,-3.3669,-3.4019,-3.3973,-3.3404,-3.2924,-3.3043,-3.256,-3.2144,-3.2371,-3.2406,-3.2406,-3.2406,-3.2406,-3.2406,-3.2406,-3.2406,-3.2406,-3.2406,-3.2406,-3.2406,-3.2406,-3.2406,-3.2406,-3.2406,-3.2406,-3.2406,-3.2406,-3.2406,-3.2406,-3.2406,-3.2406,-3.2406,-3.2406,-3.2267,-3.2214,-3.2214,-3.202,-3.202,-2.3891,-2.5137,0.0,0.0,-2.8238,-3.0387,-3.1076,-3.1667,-3.215,-3.2698,-3.3022,-3.3363,-3.3909,-3.5197,-3.6552,0.0,-3.8296,-3.8737,-3.8513,-3.8191,-3.7659,-3.6806,-3.6806,-3.6671,-3.6133,-3.5729,-3.5359,-3.5052,-3.5279,-3.5359,-3.5052,-3.5294,-3.5504,-3.5504,-3.5504,-3.5504,-3.5504,-3.5504,-3.5504,-3.5504,-3.5504,-3.5359,-3.5213,-3.5001,-3.4735,-3.4549,-3.4802,-3.5037,-3.5285,-3.5879,-3.6061,-3.5913,-3.5336,-3.4848,-3.4415,-3.3363,-3.3118,-3.3309,-3.3309,-3.3309,-3.3309,-3.3309,-3.3309,-3.3245,-3.2961,-3.2822,-3.269,-3.2579,-3.2669,-3.2859,-3.3021,-3.3751,-3.4457,-3.4438,-3.4919,-3.5249,-3.4818,-3.4128,-3.3533,-3.3251,-3.2612,-3.2144,-3.2371,-3.2406,-3.2406,-3.2406,-3.2406,-3.2406,-3.2406,-3.2406,-3.2406,-3.2406,-3.2406,-3.2406,-3.2406,-3.2406,-3.2406,-3.2406,-3.2406,-3.2406,-3.2406,-3.2406,-3.2406,-3.2406,-3.2406,-3.2406,-3.2406,-3.2354,-3.2319,-3.2301,-3.2144,-3.2144,-2.4543,0.0,0.0,-2.8206,-3.0742,-3.3282,-3.3998,-3.451,-3.4994,-3.5756,-3.562,-3.5434,-3.5975,-3.64,-3.7053,-3.7916,-3.8355,-3.8383,-3.7946,-3.7903,-3.727,-3.5699,-3.5594,-3.5744,-3.5908,-3.5669,-3.5504,-3.5504,-3.5504,-3.5504,-3.5504,-3.5504,-3.5504,-3.5504,-3.5504,-3.5504,-3.5504,-3.5504,-3.5504,-3.5504,-3.5504,-3.5359,-3.5082,-3.5001,-3.4854,-3.4668,-3.5169,-3.5608,-3.5913,-3.6461,-3.6674,-3.6625,-3.5922,-3.5331,-3.4715,-3.3878,-3.3467,-3.3309,-3.3309,-3.3309,-3.3309,-3.3309,-3.3309,-3.3314,-3.3212,-3.3123,-3.3031,-3.3104,-3.316,-3.3309,-3.3786,-3.4432,-3.5079,-3.5408,-3.5904,-3.6146,-3.5611,-3.4749,-3.3999,-3.3599,-3.2769,-3.2144,-3.2371,-3.2406,-3.2406,-3.2406,-3.2406,-3.2406,-3.2406,-3.2406,-3.2406,-3.2406,-3.2406,-3.2406,-3.2406,-3.2406,-3.2406,-3.2406,-3.2406,-3.2406,-3.2406,-3.2406,-3.2406,-3.2406,-3.2406,-3.2388,-3.2354,-3.2354,-3.2354,-3.2319,-3.2179,-3.2108,-2.6217,0.0,-2.8474,-3.0207,-3.2621,-3.4981,-3.6094,-3.713,-3.7737,-3.7845,-3.7302,-3.6648,-3.6136,-3.6168,-3.6445,-3.6899,-3.75,-3.7804,-3.747,-3.6926,-3.6282,-3.5594,-3.4367,-3.3844,-3.4472,-3.513,-3.5504,-3.5504,-3.5504,-3.5504,-3.5504,-3.5504,-3.5504,-3.5504,-3.5504,-3.5504,-3.5504,-3.5504,-3.5504,-3.5504,-3.5504,-3.5294,-3.4935,-3.5103,-3.5169,-3.5169,-3.5657,-3.5913,-3.5913,-3.6461,-3.5918,-3.4814,-3.5949,-3.5157,-3.3435,-3.4036,-3.3862,-3.3309,-3.3309,-3.3309,-3.3309,-3.3309,-3.3309,-3.3271,-3.3095,-3.2983,-3.3061,-3.3319,-3.388,-3.455,-3.5022,-3.5697,-3.6266,-3.6266,-3.6284,-3.6284,-3.6266,-3.5128,-3.4155,-3.431,-3.3134,-3.2144,-3.2371,-3.2406,-3.2406,-3.2406,-3.2406,-3.2406,-3.2406,-3.2406,-3.2406,-3.2406,-3.2406,-3.2406,-3.2406,-3.2406,-3.2406,-3.2406,-3.2406,-3.2406,-3.2406,-3.2406,-3.2406,-3.2406,-3.2406,-3.2354,-3.2214,-3.2214,-3.2179,-3.2108,-3.1984,-3.1894,-2.7332,0.0,-3.1015,-3.2704,-3.5134,-3.7115,-3.7648,-3.7452,-3.7359,-3.7721,-3.585,-3.4285,-3.4812,-3.4583,-3.4667,-3.5435,-3.6482,-3.7109,-3.6663,-3.6888,-3.6305,-3.4193,-3.4483,0.0,0.0,-3.4427,-3.5011,-3.5474,-3.5504,-3.5504,-3.5504,-3.5504,-3.5504,-3.5504,-3.5504,-3.5504,-3.5504,-3.5504,-3.5504,-3.5504,-3.5797,-3.5524,-3.4817,-3.5593,-3.5416,-3.4545,-3.5872,-3.6199,-3.5784,-3.6282,-3.6252,-3.575,-3.5228,-3.4573,-3.3941,-3.3719,-3.3498,-3.3309,-3.3309,-3.3309,-3.3309,-3.3309,-3.3309,-3.3351,-3.3643,-3.3942,-3.4308,-3.4718,-3.5275,-3.5736,-3.588,-3.6111,-3.6301,-3.6301,-3.6301,-3.6301,-3.6301,-3.5525,-3.472,-3.432,-3.3477,-3.2718,-3.2319,-3.2354,-3.2406,-3.2406,-3.2406,-3.2406,-3.2406,-3.2406,-3.2406,-3.2406,-3.2406,-3.2406,-3.2406,-3.2406,-3.2406,-3.2406,-3.2406,-3.2406,-3.2406,-3.2406,-3.2354,-3.2267,-3.2267,-3.2232,-3.2144,-3.2144,-3.2108,-3.2108,-3.1948,-3.1894,-2.8988,-3.0975,-3.3098,-3.5049,-3.7178,-3.8671,-3.846,-3.798,-3.7441,-3.6674,-3.4571,-3.2969,-3.3312,-3.3022,-3.2958,-3.3625,-3.4683,-3.5317,-3.5028,-3.5472,-3.5237,-3.3773,-3.4193,-3.4468,0.0,0.0,0.0,-3.5444,-3.5729,-3.5863,-3.5863,-3.5863,-3.5863,-3.5863,-3.5624,-3.5504,-3.5504,-3.5504,-3.5504,-3.5504,-3.5718,-3.5589,-3.5067,-3.5913,-3.5736,-3.4708,-3.6029,-3.6219,-3.5654,-3.6211,-3.6121,-3.5616,-3.5221,-3.4604,-3.3909,-3.3719,-3.3514,-3.3309,-3.3309,-3.3309,-3.3346,-3.3503,-3.3607,-3.3694,-3.4415,-3.4833,-3.5191,-3.5705,-3.6071,-3.637,-3.6646,-3.6525,-3.637,-3.6663,-3.6508,-3.6301,-3.6301,-3.5714,-3.5082,-3.4644,-3.4029,-3.3445,-3.3032,-3.2843,-3.2687,-3.2441,-3.2406,-3.2406,-3.2406,-3.2406,-3.2406,-3.2406,-3.2406,-3.2406,-3.2406,-3.2406,-3.2406,-3.2406,-3.2406,-3.2406,-3.2406,-3.2406,-3.2354,-3.2179,-3.2267,-3.2179,-3.2037,-3.2073,-3.2073,-3.2037,-3.1948,-3.1948,-3.1151,-3.3009,-3.46,-3.6999,-3.867,-3.9508,-3.8587,-3.8546,-3.784,-3.4706,-3.3498,-3.2679,0.0,0.0,-3.1454,-3.1681,-3.2307,-3.2801,-3.3044,-3.314,-3.3434,0.0,0.0,0.0,0.0,0.0,0.0,-3.5549,-3.6148,-3.6492,-3.6492,-3.6492,-3.6492,-3.6492,-3.5848,-3.5504,-3.5504,-3.5504,-3.5504,-3.5504,-3.5359,-3.5459,-3.5688,-3.607,-3.6061,-3.5654,-3.6173,-3.6011,-3.5394,-3.609,-3.5552,-3.4431,-3.5789,-3.5078,-3.3372,-3.4004,-3.3846,-3.3346,-3.3346,-3.3346,-3.3398,-3.3949,-3.4101,-3.4333,-3.5299,-3.5616,-3.5705,-3.6174,-3.6301,-3.649,-3.7284,-3.6922,-3.6559,-3.7353,-3.6939,-3.6353,-3.6353,-3.5766,-3.5272,-3.5284,-3.4718,-3.4254,-3.4384,-3.3853,-3.3211,-3.2564,-3.2423,-3.2406,-3.2406,-3.2406,-3.2406,-3.2406,-3.2406,-3.2406,-3.2406,-3.2406,-3.2406,-3.2406,-3.2406,-3.2406,-3.2406,-3.2406,-3.2354,-3.2179,-3.2301,-3.2232,-3.1894,-3.2037,-3.202,-3.1894,-3.1894,-3.1984,-3.3023,-3.4939,-3.6877,-3.7921,-3.8704,-3.8946,-3.7898,-3.6524,-3.5072,-3.3609,-3.1309,-2.9676,0.0,0.0,0.0,-3.1474,-3.2651,0.0,-3.4743,-3.5175,0.0,-3.5459,0.0,-3.5723,-3.5953,-3.5968,0.0,-3.6881,-3.6656,-3.6492,-3.6492,-3.6492,-3.6492,-3.6492,-3.5848,-3.5504,-3.5504,-3.5504,-3.5439,-3.5294,-3.607,-3.6102,-3.5529,-3.6845,-3.6503,-3.4926,-3.5954,-3.5726,-3.4636,-3.5347,-3.511,-3.4336,-3.4699,-3.4209,-3.3324,-3.3482,-3.3698,-3.3899,-3.3899,-3.3899,-3.3899,-3.405,-3.4333,-3.4738,-3.5391,-3.5616,-3.5705,-3.6174,-3.6301,-3.649,-3.7284,-3.7335,-3.737,-3.8129,-3.7732,-3.718,-3.718,-3.6577,-3.5852,-3.5324,-3.4735,-3.4387,-3.4446,-3.3929,-3.3423,-3.3248,-3.2739,-3.2406,-3.2406,-3.2406,-3.2406,-3.2406,-3.2406,-3.2406,-3.2406,-3.2406,-3.2406,-3.2406,-3.2406,-3.2406,-3.2406,-3.2406,-3.2354,-3.2179,-3.2214,-3.2179,-3.2037,-3.2073,-3.2073,-3.2037,-3.2037,-3.2073,-3.5126,-3.67,-3.807,-3.8654,-3.8728,-3.8253,-3.6737,-3.492,-3.3069,-3.1185,-2.9244,0.0,-2.8685,-2.8717,0.0,0.0,0.0,0.0,-3.3667,-3.4545,-3.5283,0.0,-3.6446,0.0,-3.6896,-3.6881,-3.7045,-3.7375,-3.709,-3.7015,-3.7315,-3.7315,-3.7195,-3.6896,-3.6267,-3.5804,-3.5504,-3.5504,-3.5554,-3.5703,-3.6258,-3.643,-3.629,-3.7118,-3.6715,-3.5404,-3.5802,-3.5521,-3.4778,-3.4873,-3.4668,-3.4288,-3.4288,-3.4038,-3.3642,-3.3642,-3.3984,-3.4415,-3.4415,-3.4561,-3.4738,-3.4738,-3.4927,-3.5253,-3.5749,-3.5898,-3.5985,-3.6216,-3.6301,-3.649,-3.7284,-3.7232,-3.7163,-3.7922,-3.7525,-3.6956,-3.6956,-3.6611,-3.618,-3.5849,-3.5515,-3.5275,-3.5042,-3.4716,-3.4351,-3.4073,-3.367,-3.3406,-3.3406,-3.2809,-3.2406,-3.2406,-3.2406,-3.2406,-3.2406,-3.2406,-3.2406,-3.2406,-3.2406,-3.2406,-3.2406,-3.2406,-3.2354,-3.2179,-3.2267,-3.2232,-3.2108,-3.2108,-3.2144,-3.2144,-3.2144,-3.2196,-3.7118,-3.8084,-3.864,-3.9074,-3.855,-3.7346,-3.5426,-3.3574,-3.1405,-2.8717,0.0,-2.7621,-2.7993,-2.8441,-2.9074,-2.9851,0.0,-3.109,-3.1895,-3.3186,-3.4542,-3.6001,-3.6867,-3.7461,-3.759,-3.7599,-3.7569,-3.759,-3.7599,-3.7793,-3.8362,-3.8392,-3.8048,-3.73,-3.6761,-3.6229,-3.5634,-3.5569,-3.5861,-3.6492,-3.6211,-3.6523,-3.7358,-3.7165,-3.6805,-3.639,-3.5789,-3.5473,-3.5347,-3.4794,-3.4462,-3.4304,-3.4492,-3.4382,-3.4101,-3.4184,-3.4513,-3.4927,-3.4927,-3.5237,-3.5661,-3.5616,-3.5616,-3.5766,-3.6174,-3.6301,-3.6301,-3.6301,-3.6387,-3.6611,-3.7301,-3.7042,-3.6784,-3.7473,-3.7025,-3.649,-3.6577,-3.6525,-3.6464,-3.6461,-3.6502,-3.6377,-3.5933,-3.5762,-3.5504,-3.4934,-3.4758,-3.4688,-3.4688,-3.3529,-3.2704,-3.2704,-3.2704,-3.2704,-3.2704,-3.2704,-3.2704,-3.2704,-3.2616,-3.2546,-3.2546,-3.2458,-3.2354,-3.2232,-3.2354,-3.2319,-3.2144,-3.2196,-3.2232,-3.2232,-3.2232,-3.2267,-3.8043,-3.8695,-3.9061,-3.8667,-3.7256,-3.5763,-3.4826,-3.194,0.0,0.0,-2.8434,-2.774,-2.903,-2.9392,-3.0,-3.1685,0.0,0.0,0.0,0.0,-3.6021,0.0,0.0,-3.8366,-3.8775,-3.8471,0.0,-3.879,-3.8471,-3.8272,-3.8377,-3.8392,-3.7853,-3.6686,-3.6537,-3.6411,-3.6274,-3.5733,-3.591,-3.6784,-3.6523,-3.6616,-3.706,-3.7301,-3.7026,-3.6421,-3.6295,-3.5916,-3.5426,-3.5868,-3.5363,-3.4406,-3.5396,-3.5114,-3.4151,-3.4561,-3.5005,-3.5481,-3.5481,-3.5793,-3.6114,-3.5722,-3.5854,-3.6199,-3.6301,-3.6301,-3.6301,-3.6301,-3.6766,-3.7301,-3.7439,-3.7836,-3.8232,-3.837,-3.7836,-3.7456,-3.806,-3.7715,-3.7077,-3.6481,-3.6502,-3.665,-3.6528,-3.6112,-3.5738,-3.5636,-3.5092,-3.4688,-3.4688,-3.446,-3.4284,-3.4284,-3.4284,-3.4284,-3.4284,-3.4284,-3.4284,-3.4284,-3.367,-3.3301,-3.3318,-3.2722,-3.2406,-3.2354,-3.2406,-3.2388,-3.2354,-3.2354,-3.2354,-3.2354,-3.2354,-3.2388,-3.7624,-3.8478,-3.8965,-3.8472,-3.6725,-3.4841,-3.3588,0.0,0.0,0.0,-2.7783,-2.761,-2.89,0.0,0.0,0.0,0.0,0.0,0.0,0.0,0.0,0.0,0.0,0.0,0.0,-3.8807,-3.8835,-3.9075,-3.8967,-3.8931,-3.8931,-3.8257,-3.7599,-3.6985,-3.6327,-3.5934,-3.591,-3.5797,-3.6148,-3.689,-3.6769,-3.6984,-3.7449,-3.7464,-3.7291,-3.6959,-3.6595,-3.6453,-3.6421,-3.5631,-3.5276,-3.5198,-3.5094,-3.497,-3.4927,-3.5115,-3.5526,-3.5985,-3.5985,-3.6114,-3.6259,-3.6028,-3.6114,-3.6387,-3.6801,-3.6628,-3.6387,-3.6801,-3.718,-3.7491,-3.7491,-3.7749,-3.8025,-3.8025,-3.7749,-3.7577,-3.7939,-3.7732,-3.7413,-3.7041,-3.6821,-3.6702,-3.6766,-3.6554,-3.6426,-3.6426,-3.611,-3.5881,-3.5881,-3.5881,-3.5583,-3.4776,-3.4688,-3.4688,-3.4688,-3.4688,-3.4688,-3.4688,-3.4337,-3.4108,-3.4126,-3.3775,-3.3406,-3.2985,-3.2985,-3.2792,-3.2406,-3.2406,-3.2406,-3.2406,-3.2406,-3.2616,-3.658,-3.7643,-3.8292,-3.7832,-3.5988,-3.388,-3.2314,-2.9969,0.0,0.0,-2.737,-2.7755,-2.88,0.0,-2.9614,0.0,-3.1192,0.0,0.0,0.0,0.0,0.0,0.0,0.0,-3.8531,-3.887,0.0,-3.8824,-3.9103,-3.9265,-3.9337,-3.8272,-3.7554,-3.7351,-3.6312,-3.5769,-3.5925,-3.5973,-3.6383,-3.7207,-3.7105,-3.7285,-3.7786,-3.7583,-3.748,-3.7449,-3.6896,-3.6959,-3.7354,-3.5663,-3.5425,-3.6007,-3.5078,-3.5066,-3.5616,-3.5705,-3.5985,-3.6301,-3.6301,-3.6301,-3.6301,-3.6301,-3.6301,-3.6422,-3.7042,-3.6801,-3.6422,-3.706,-3.7353,-3.7491,-3.7491,-3.7491,-3.7439,-3.7267,-3.7491,-3.7629,-3.7301,-3.7491,-3.7655,-3.7395,-3.7002,-3.6742,-3.6748,-3.6908,-3.6987,-3.6987,-3.6987,-3.6987,-3.6987,-3.6987,-3.6531,-3.5302,-3.5179,-3.5179,-3.5179,-3.5179,-3.5179,-3.5179,-3.5021,-3.4934,-3.4934,-3.4776,-3.4407,-3.3792,-3.3775,-3.3406,-3.2634,-3.2634,-3.2546,-3.2406,-3.2564,-3.295,-3.4857,-3.593,-3.6688,-3.5863,-3.4115,-3.2267,-3.1435,0.0,0.0,-2.8551,-2.847,-2.846,-2.9765,-2.9983,-3.0348,-3.1261,0.0,-3.2009,0.0,0.0,0.0,0.0,0.0,0.0,-3.7912,-3.8603,-3.8779,-3.7956,-3.8531,-3.8943,-3.9104,-3.8635,-3.7963,-3.7174,-3.6694,-3.6645,-3.7191,-3.6445,-3.6754,-3.8278,-3.7405,-3.7181,-3.7539,-3.7539,-3.748,-3.748,-3.7401,-3.7417,-3.7464,-3.7275,-3.6781,-3.6157,-3.6498,-3.6235,-3.5661,-3.6071,-3.6259,-3.6301,-3.6301,-3.6301,-3.6301,-3.6301,-3.6301,-3.6318,-3.6387,-3.6353,-3.6318,-3.6387,-3.6939,-3.7491,-3.7491,-3.7491,-3.7301,-3.6577,-3.7473,-3.8112,-3.6715,-3.7508,-3.8077,-3.668,-3.6554,-3.6702,-3.6702,-3.6869,-3.6987,-3.6987,-3.6987,-3.6987,-3.6987,-3.6987,-3.6974,-3.6777,-3.6777,-3.6777,-3.6777,-3.6777,-3.6777,-3.6777,-3.611,-3.5706,-3.5706,-3.5056,-3.467,-3.4582,-3.4582,-3.4196,-3.3389,-3.3406,-3.3073,-3.2423,-3.3108,-3.3441,-3.271,-3.4184,-3.5213,-3.4597,-3.3014,-3.1267,-2.9947,0.0,-2.6164,-2.722,-2.7346,-2.7543,-2.8655,-2.9411,-2.9922,-3.0273,-3.0686,0.0,0.0,0.0,0.0,0.0,0.0,0.0,0.0,0.0,-3.7634,-3.7839,-3.7706,-3.7866,-3.8265,-3.8277,-3.7873,-3.7126,-3.6687,-3.6644,-3.7071,-3.6569,-3.6723,-3.7539,-3.7361,-3.7361,-3.748,-3.748,-3.748,-3.748,-3.748,-3.748,-3.7476,-3.686,-3.6653,-3.6547,-3.622,-3.6096,-3.6028,-3.6216,-3.6301,-3.6301,-3.6301,-3.6301,-3.6301,-3.6301,-3.6301,-3.6387,-3.687,-3.668,-3.6404,-3.6887,-3.7232,-3.7491,-3.7491,-3.7818,-3.7836,-3.6594,-3.7818,-3.8836,-3.7335,-3.7836,-3.8284,-3.7215,-3.6772,-3.6602,-3.6702,-3.6788,-3.6908,-3.6987,-3.6987,-3.6987,-3.6987,-3.6987,-3.6987,-3.6987,-3.6987,-3.6987,-3.6987,-3.6987,-3.6987,-3.6987,-3.6689,-3.6513,-3.6513,-3.6233,-3.5846,-3.5372,-3.5372,-3.4986,-3.4214,-3.4214,-3.4073,-3.3792,-3.4091,-3.446,-3.0218,-3.1869,-3.3045,-3.2729,-3.161,-3.0075,0.0,0.0,-2.5586,-2.638,-2.664,-2.6881,-2.7723,-2.8844,-2.9602,-2.9498,-3.0129,-3.0725,-3.1238,0.0,0.0,0.0,0.0,-3.5059,0.0,-3.666,-3.6799,-3.7937,-3.7249,-3.7039,-3.7625,-3.7855,-3.7582,-3.6864,-3.6643,-3.6662,-3.689,-3.6708,-3.6862,-3.7285,-3.7421,-3.748,-3.748,-3.748,-3.748,-3.748,-3.748,-3.7583,-3.769,-3.678,-3.6738,-3.7086,-3.6215,-3.6041,-3.6301,-3.6301,-3.6301,-3.6301,-3.6301,-3.6301,-3.6301,-3.6301,-3.6301,-3.6404,-3.6956,-3.6749,-3.6422,-3.6973,-3.7301,-3.7491,-3.7491,-3.8043,-3.8318,-3.7232,-3.8198,-3.9026,-3.7749,-3.7887,-3.8043,-3.7284,-3.6824,-3.6602,-3.6684,-3.6806,-3.6908,-3.6987,-3.6987,-3.6987,-3.6987,-3.6987,-3.6987,-3.6987,-3.6987,-3.6987,-3.6987,-3.6987,-3.6987,-3.6987,-3.6987,-3.6987,-3.6987,-3.6987,-3.6724,-3.618,-3.6162,-3.5776,-3.5021,-3.5021,-3.4916,-3.4705,-3.4916,-3.5302,-2.7104,-2.8586,-2.9978,-3.0098,-2.9444,-2.8612,0.0,-2.6102,-2.5096,-2.6649,-2.6974,-2.7076,-2.7433,-2.8675,-2.9526,-2.931,-3.0007,-3.0664,-3.0771,0.0,0.0,0.0,0.0,-3.3798,-3.4683,-3.5268,-3.6354,-3.8147,-3.7234,-3.6847,-3.7302,-3.7479,-3.7189,-3.6261,-3.6643,-3.689,-3.689,-3.6968,-3.7285,-3.7886,-3.7642,-3.748,-3.748,-3.748,-3.748,-3.748,-3.748,-3.7786,-3.823,-3.7462,-3.7458,-3.7706,-3.6912,-3.6457,-3.6301,-3.6301,-3.6301,-3.6301,-3.6301,-3.6301,-3.6301,-3.6301,-3.6301,-3.6301,-3.6301,-3.6301,-3.6301,-3.6318,-3.6887,-3.7491,-3.7491,-3.8043,-3.8594,-3.8577,-3.8577,-3.8405,-3.7646,-3.7491,-3.7267,-3.6473,-3.6502,-3.6702,-3.6702,-3.6886,-3.6987,-3.6987,-3.6987,-3.6987,-3.6987,-3.6987,-3.6987,-3.6987,-3.6987,-3.6987,-3.6987,-3.6987,-3.6987,-3.6987,-3.6987,-3.6987,-3.6987,-3.6987,-3.6987,-3.7009,-3.7009,-3.6584,-3.5811,-3.5811,-3.5425,-3.4705,-3.546,-3.5811,-2.6268,-2.709,-2.761,-2.8037,-2.7507,-2.6772,-2.6181,-2.4755,-2.3867,-2.5094,-2.5679,-2.5987,-2.6149,-2.7554,-2.8477,-2.7946,-2.8872,-2.9714,0.0,0.0,0.0,0.0,0.0,-3.514,0.0,0.0,-3.5726,-3.6274,-3.558,-3.5575,-3.6652,-3.6715,-3.7018,-3.749,-3.7317,-3.746,-3.7902,-3.7285,-3.7241,-3.7642,-3.7524,-3.748,-3.7464,-3.6975,-3.7022,-3.7476,-3.6821,-3.6925,-3.754,-3.6984,-3.6848,-3.6928,-3.6546,-3.638,-3.6301,-3.6301,-3.6301,-3.6301,-3.6301,-3.6301,-3.6301,-3.6301,-3.6301,-3.6301,-3.6301,-3.6301,-3.6301,-3.6301,-3.6473,-3.6801,-3.7353,-3.8043,-3.8594,-3.8594,-3.8974,-3.9008,-3.7749,-3.7491,-3.7292,-3.6558,-3.6502,-3.6602,-3.6748,-3.6829,-3.6891,-3.6987,-3.6987,-3.6987,-3.6987,-3.6987,-3.6987,-3.6987,-3.6987,-3.6987,-3.6987,-3.6987,-3.6987,-3.6987,-3.6987,-3.6987,-3.6987,-3.6987,-3.6987,-3.6987,-3.6987,-3.6865,-3.6619,-3.6619,-3.6496,-3.6268,-3.6496,-3.6338,0.0,-2.5409,-2.5732,-2.6202,-2.5721,0.0,0.0,-2.3827,-2.301,-2.4063,-2.4683,-2.509,-2.5197,-2.6823,-2.7925,-2.7157,-2.8436,-2.9444,0.0,0.0,0.0,0.0,0.0,0.0,0.0,-3.4777,-3.5302,-3.5946,-3.5034,-3.523,-3.6904,-3.6583,-3.689,-3.8157,-3.7828,-3.7669,-3.7876,-3.7421,-3.7301,-3.748,-3.748,-3.748,-3.7449,-3.6753,-3.6658,-3.7065,-3.638,-3.647,0.0,-3.6733,-3.6734,-3.6894,-3.6466,-3.6301,-3.6301,-3.6301,-3.6301,-3.6301,-3.6301,-3.6301,-3.6301,-3.6301,-3.6301,-3.6301,-3.6301,-3.6301,-3.6301,-3.6301,-3.6525,-3.6922,-3.7698,-3.8439,-3.9008,-3.9008,-3.937,-3.9301,-3.7801,-3.7491,-3.7292,-3.6558,-3.6502,-3.6643,-3.6748,-3.6829,-3.6891,-3.6987,-3.6987,-3.6987,-3.6987,-3.6987,-3.6987,-3.6987,-3.6987,-3.6987,-3.6987,-3.6987,-3.6987,-3.6987,-3.6987,-3.6987,-3.6987,-3.6987,-3.6987,-3.6987,-3.6987,-3.6987,-3.6987,-3.6987,-3.6987,-3.6987,-3.6987,-3.6724,0.0,-2.3673,0.0,0.0,0.0,0.0,0.0,-2.3264,0.0,-2.346,-2.4103,-2.4442,-2.4437,-2.6419,-2.7699,-2.6814,-2.8504,0.0,0.0,0.0,0.0,0.0,-3.3151,0.0,-3.4298,-3.4385,-3.5052,-3.6577,-3.5474,-3.5559,-3.7637,-3.6738,-3.6876,-3.8278,-3.8017,-3.761,-3.706,-3.7361,-3.748,-3.748,-3.748,-3.7449,-3.7385,-3.6674,-3.6358,-3.6311,-3.6098,-3.6359,-3.6904,-3.6656,-3.6894,-3.7318,-3.6594,-3.6301,-3.6301,-3.6301,-3.6301,-3.6301,-3.6301,-3.6301,-3.6301,-3.6301,-3.6301,-3.6301,-3.6301,-3.6301,-3.6301,-3.6301,-3.687,-3.7646,-3.8405,-3.9146,-3.9715,-3.9767,-3.9698,-3.925,-3.7853,-3.7473,-3.718,-3.6439,-3.6502,-3.6702,-3.6684,-3.6869,-3.6987,-3.6987,-3.6987,-3.6987,-3.6987,-3.6987,-3.6987,-3.6987,-3.6987,-3.6987,-3.6987,-3.6987,-3.6987,-3.6987,-3.6987,-3.6987,-3.6987,-3.6987,-3.6987,-3.6987,-3.6987,-3.6987,-3.6987,-3.6987,-3.6987,-3.6987,-3.6987,-3.6987,-2.1229,0.0,-2.3244,-2.3306,-2.3244,-2.3108,0.0,0.0,-2.2258,0.0,0.0,0.0,-2.3993,-2.5089,-2.5962,-2.5872,-2.6856,-2.7709,0.0,0.0,0.0,-3.3166,-3.3804,-3.4051,-3.3717,-3.4124,-3.454,-3.4955,-3.4704,-3.5052,-3.6275,-3.6102,-3.6492,-3.7642,-3.7642,-3.7626,-3.7669,-3.7583,-3.748,-3.748,-3.748,-3.7196,-3.6658,-3.5947,-3.5631,-3.5625,-3.5259,-3.5514,-3.6174,-3.631,-3.6431,-3.6559,-3.637,-3.6301,-3.6301,-3.6301,-3.6301,-3.6301,-3.6301,-3.6301,-3.6301,-3.6301,-3.6301,-3.6301,-3.6301,-3.6301,-3.6301,-3.6301,-3.687,-3.7646,-3.8405,-3.9146,-3.9853,-4.0457,-3.9715,-3.875,-3.8405,-3.7404,-3.6567,-3.6478,-3.6502,-3.6585,-3.6748,-3.6829,-3.6869,-3.697,-3.6987,-3.6987,-3.6987,-3.6987,-3.6987,-3.6987,-3.6987,-3.6987,-3.6987,-3.6987,-3.6987,-3.6987,-3.6987,-3.6987,-3.6987,-3.6987,-3.6987,-3.6987,-3.6987,-3.6987,-3.6987,-3.6987,-3.6987,-3.6987,-3.6987,-3.6987,-2.0409,-2.1227,-2.1966,-2.2175,-2.2137,-2.2223,-2.258,0.0,0.0,0.0,0.0,0.0,0.0,0.0,0.0,0.0,-2.6961,0.0,0.0,0.0,0.0,-3.3354,-3.3775,-3.3964,-3.3906,-3.4397,-3.4787,-3.4787,-3.4971,-3.5415,-3.6243,-3.6258,-3.6646,-3.748,-3.748,-3.7583,-3.7743,-3.7583,-3.7322,-3.7006,-3.7006,-3.6627,-3.5932,-3.5221,-3.4889,-3.4881,-3.4823,-3.5048,-3.5444,-3.6051,-3.6301,-3.6301,-3.6301,-3.6301,-3.6301,-3.6301,-3.6301,-3.6301,-3.6301,-3.6301,-3.6301,-3.6301,-3.6301,-3.6301,-3.6301,-3.6301,-3.6301,-3.6301,-3.687,-3.7577,-3.7974,-3.8629,-3.9215,-3.9301,-3.8939,-3.8405,-3.7698,-3.718,-3.6774,-3.6471,-3.6444,-3.6544,-3.6708,-3.6788,-3.6869,-3.6987,-3.6987,-3.6987,-3.6987,-3.6987,-3.6987,-3.6987,-3.6987,-3.6987,-3.6987,-3.6987,-3.6987,-3.6987,-3.6987,-3.6987,-3.6987,-3.6987,-3.6987,-3.6987,-3.6987,-3.6987,-3.6987,-3.6987,-3.6987,-3.6987,-3.6987,-3.6987,-1.9727,-2.0052,-2.044,-2.0996,-2.1267,-2.1504,0.0,0.0,0.0,0.0,0.0,0.0,0.0,0.0,0.0,0.0,0.0,0.0,0.0,0.0,-3.2237,-3.334,-3.3558,-3.379,-3.4225,-3.4861,-3.5169,-3.5103,-3.5503,-3.5965,-3.643,-3.6399,-3.6703,-3.7306,-3.7212,-3.7212,-3.7322,-3.7322,-3.6959,-3.6263,-3.6263,-3.59,-3.5205,-3.4573,-3.4279,-3.4314,-3.466,-3.4864,-3.5005,-3.5924,-3.6301,-3.6301,-3.6301,-3.6301,-3.6301,-3.6301,-3.6301,-3.6301,-3.6301,-3.6301,-3.6301,-3.6301,-3.6301,-3.6301,-3.6301,-3.6301,-3.6301,-3.6301,-3.687,-3.7491,-3.7491,-3.8043,-3.8422,-3.7801,-3.8043,-3.806,-3.6766,-3.6904,-3.7111,-3.6422,-3.6402,-3.6502,-3.6643,-3.6766,-3.6829,-3.6987,-3.6987,-3.6987,-3.6987,-3.6987,-3.6987,-3.6987,-3.6987,-3.6987,-3.6987,-3.6987,-3.6987,-3.6987,-3.6987,-3.6987,-3.6987,-3.6987,-3.6987,-3.6987,-3.6987,-3.6987,-3.6987,-3.6987,-3.6987,-3.6987,-3.6987,-3.6987,-1.8104,-1.8094,-1.8499,-1.9759,-2.1209,-2.2022,-2.1088,0.0,0.0,0.0,0.0,0.0,0.0,0.0,0.0,0.0,0.0,-2.9751,0.0,0.0,-3.3238,-3.3441,0.0,-3.4095,-3.3659,-3.4596,-3.4986,-3.4534,-3.4827,-3.5078,-3.5201,-3.5014,-3.5412,-3.6506,-3.6026,-3.5995,-3.6579,-3.6595,-3.6232,-3.5552,-3.5552,-3.5157,-3.4462,-3.4336,-3.424,-3.4145,-3.4594,-3.5068,-3.5526,-3.6071,-3.6301,-3.6301,-3.6301,-3.6301,-3.6301,-3.6301,-3.6301,-3.6301,-3.6301,-3.6301,-3.6301,-3.6301,-3.6301,-3.6301,-3.6301,-3.6301,-3.6301,-3.6301,-3.687,-3.7491,-3.7491,-3.8043,-3.856,-3.8439,-3.8025,-3.7594,-3.7353,-3.687,-3.6439,-3.6318,-3.6301,-3.6402,-3.6643,-3.6702,-3.6766,-3.6987,-3.6987,-3.6987,-3.6987,-3.6987,-3.6987,-3.6987,-3.6987,-3.6987,-3.6987,-3.6987,-3.6987,-3.6987,-3.6987,-3.6987,-3.6987,-3.6987,-3.6987,-3.6987,-3.6987,-3.6987,-3.6987,-3.6987,-3.6987,-3.6987,-3.6987,-3.6987,-1.7235,-1.7579,-1.8095,-1.9209,-2.0452,-2.144,-2.1323,0.0,0.0,0.0,0.0,0.0,0.0,0.0,0.0,0.0,0.0,-3.0072,-3.2174,-3.2739,-3.3079,-3.3427,-3.3717,-3.392,-3.3978,-3.4599,-3.4698,-3.3958,-3.4713,-3.4935,-3.438,-3.4818,-3.5279,-3.5853,-3.5552,-3.5347,-3.5284,-3.5284,-3.511,-3.4794,-3.4794,-3.4431,-3.3751,-3.3751,-3.3736,-3.3694,-3.4448,-3.4911,-3.5253,-3.5985,-3.6301,-3.6301,-3.6301,-3.6301,-3.6301,-3.6301,-3.6301,-3.6301,-3.6301,-3.6301,-3.6301,-3.6301,-3.6301,-3.6301,-3.6301,-3.6301,-3.6301,-3.6301,-3.6559,-3.6853,-3.6853,-3.7094,-3.7353,-3.7353,-3.7094,-3.6853,-3.6853,-3.6559,-3.6301,-3.6301,-3.6301,-3.6402,-3.6643,-3.6702,-3.6766,-3.6987,-3.6987,-3.6987,-3.6987,-3.6987,-3.6987,-3.6987,-3.6987,-3.6987,-3.6987,-3.6987,-3.6987,-3.6987,-3.6987,-3.6987,-3.6987,-3.6987,-3.6987,-3.6987,-3.6987,-3.6987,-3.6987,-3.6987,-3.6987,-3.6987,-3.6987,-3.6987,-1.6542,-1.7166,-1.791,-1.8656,0.0,-2.0902,-2.152,0.0,0.0,0.0,0.0,0.0,0.0,0.0,0.0,-2.989,-3.0069,-3.0609,-3.2507,-3.2767,-3.2919,-3.3412,-3.334,-3.3441,-3.392,-3.4327,-3.4203,-3.3484,-3.4406,-3.4659,-3.3874,-3.4519,-3.4968,-3.5126,-3.4984,-3.4699,-3.4288,-3.413,-3.4067,-3.4067,-3.4067,-3.3799,-3.3309,-3.3309,-3.345,-3.3678,-3.4448,-3.4911,-3.5191,-3.5968,-3.6301,-3.6301,-3.6301,-3.6301,-3.6301,-3.6301,-3.6301,-3.6301,-3.6301,-3.6301,-3.6301,-3.6301,-3.6301,-3.6301,-3.6301,-3.6301,-3.6301,-3.6301,-3.6301,-3.6301,-3.6301,-3.6301,-3.6301,-3.6301,-3.6301,-3.6301,-3.6301,-3.6301,-3.6301,-3.6301,-3.6301,-3.6402,-3.6602,-3.6702,-3.6766,-3.6948,-3.6987,-3.6987,-3.6987,-3.6987,-3.6987,-3.6987,-3.6987,-3.6987,-3.6987,-3.6987,-3.6987,-3.6987,-3.6987,-3.6987,-3.6987,-3.6987,-3.6987,-3.6987,-3.6987,-3.6987,-3.6987,-3.6987,-3.6987,-3.6987,-3.6987,-3.6987,-1.5895,-1.6403,-1.7107,-1.7676,-1.951,0.0,-2.1064,-2.156,0.0,-2.2239,0.0,0.0,0.0,-2.6295,-2.754,-2.9144,-3.0092,-3.1334,-3.3403,-3.3561,-3.3427,-3.3456,-3.2948,-3.26,-3.2643,-3.3092,-3.3359,-3.3235,-3.3584,-3.3733,-3.362,-3.3513,-3.3735,-3.4352,-3.3783,-3.3719,-3.4288,-3.3672,-3.3372,-3.3372,-3.3372,-3.3356,-3.3309,-3.3309,-3.3832,-3.469,-3.4785,-3.5328,-3.6216,-3.6259,-3.6301,-3.6301,-3.6301,-3.6301,-3.6301,-3.6301,-3.6301,-3.6301,-3.6301,-3.6301,-3.6301,-3.6301,-3.6301,-3.6301,-3.6301,-3.6301,-3.6301,-3.6301,-3.6301,-3.6301,-3.6301,-3.6301,-3.6301,-3.6301,-3.6301,-3.6301,-3.6301,-3.6301,-3.6301,-3.6301,-3.6301,-3.636,-3.6502,-3.6602,-3.6742,-3.6788,-3.6908,-3.6987,-3.6987,-3.6987,-3.6987,-3.6987,-3.6987,-3.6987,-3.6987,-3.6987,-3.6987,-3.6987,-3.6987,-3.6987,-3.6987,-3.6987,-3.6987,-3.6987,-3.6987,-3.6987,-3.6987,-3.6987,-3.6987,-3.6987,-3.6987,-3.6987,-1.5613,-1.6524,-1.7351,-1.7963,0.0,0.0,0.0,-2.184,-2.2663,-2.3567,-2.3824,0.0,0.0,0.0,-2.7893,-2.9078,-3.0021,-3.1068,-3.2487,-3.2811,-3.2875,-3.2875,-3.2658,-3.2625,-3.2926,-3.2744,-3.2735,-3.3021,-3.3038,-3.2989,-3.2989,-3.3152,-3.3419,-3.3672,-3.3435,-3.3419,-3.3672,-3.3435,-3.3309,-3.3309,-3.3309,-3.3309,-3.3293,-3.3658,-3.3984,-3.4415,-3.5021,-3.5526,-3.5898,-3.6174,-3.6301,-3.6301,-3.6301,-3.6301,-3.6301,-3.6301,-3.6301,-3.6301,-3.6301,-3.6301,-3.6301,-3.6301,-3.6301,-3.6301,-3.6301,-3.6301,-3.6301,-3.6301,-3.6301,-3.6301,-3.6301,-3.6301,-3.6301,-3.6301,-3.6301,-3.6301,-3.6301,-3.6301,-3.6301,-3.6301,-3.6301,-3.636,-3.6602,-3.6661,-3.6725,-3.6908,-3.6987,-3.6987,-3.6987,-3.6987,-3.6987,-3.6987,-3.6987,-3.6987,-3.6987,-3.6987,-3.6987,-3.6987,-3.6987,-3.6987,-3.6987,-3.6987,-3.6987,-3.6987,-3.6987,-3.6987,-3.6987,-3.6987,-3.6987,-3.6987,-3.6987,-3.6987,-1.5683,-1.6664,-1.7458,0.0,0.0,0.0,-2.1208,-2.2088,-2.3023,-2.4553,-2.4795,0.0,-2.605,0.0,0.0,0.0,-2.9955,-3.0827,-3.1803,-3.2069,-3.2208,-3.2208,-3.2034,-3.2076,-3.2553,-3.2213,-3.2168,-3.2776,-3.2684,-3.2656,-3.2834,-3.3134,-3.3309,-3.3309,-3.3309,-3.3309,-3.3309,-3.3309,-3.3309,-3.3309,-3.3309,-3.3398,-3.3555,-3.3745,-3.4134,-3.461,-3.5115,-3.5526,-3.5854,-3.6174,-3.6301,-3.6301,-3.6301,-3.6301,-3.6301,-3.6301,-3.6301,-3.6301,-3.6301,-3.6301,-3.6301,-3.6301,-3.6301,-3.6301,-3.6301,-3.6301,-3.6301,-3.6301,-3.6301,-3.6301,-3.6301,-3.6301,-3.6301,-3.6301,-3.6301,-3.6301,-3.6301,-3.6301,-3.6301,-3.6301,-3.6301,-3.6343,-3.6544,-3.6643,-3.6742,-3.6869,-3.6948,-3.6987,-3.6987,-3.6987,-3.6987,-3.6987,-3.6987,-3.6987,-3.6987,-3.6987,-3.6987,-3.6987,-3.6987,-3.6987,-3.6987,-3.6987,-3.6987,-3.6987,-3.6987,-3.6987,-3.6987,-3.6987,-3.6987,-3.6987,-3.6987,-3.6987,-1.6097,-1.676,0.0,0.0,0.0,0.0,-2.1635,-2.2241,-2.2778,-2.4596,-2.5592,-2.6142,-2.6193,-2.6633,0.0,-2.8919,-2.9941,-3.0813,-3.176,-3.1651,-3.1511,-3.1511,-3.0945,-3.0821,-3.1278,-3.1278,-3.1667,-3.2532,-3.2586,-3.2819,-3.324,-3.3309,-3.3309,-3.3309,-3.3309,-3.3309,-3.3309,-3.3309,-3.3309,-3.3309,-3.3309,-3.3607,-3.405,-3.3555,-3.4152,-3.5571,-3.5052,-3.5374,-3.6301,-3.6301,-3.6301,-3.6301,-3.6301,-3.6301,-3.6301,-3.6301,-3.6301,-3.6301,-3.6301,-3.6301,-3.6301,-3.6301,-3.6301,-3.6301,-3.6301,-3.6301,-3.6301,-3.6301,-3.6301,-3.6301,-3.6301,-3.6301,-3.6301,-3.6301,-3.6301,-3.6301,-3.6301,-3.6301,-3.6301,-3.6301,-3.6301,-3.6301,-3.6301,-3.6502,-3.6702,-3.6702,-3.6869,-3.6987,-3.6987,-3.6987,-3.6987,-3.6987,-3.6987,-3.6987,-3.6987,-3.6987,-3.6987,-3.6987,-3.6987,-3.6987,-3.6987,-3.6987,-3.6987,-3.6987,-3.6987,-3.6987,-3.6987,-3.6987,-3.6987,-3.6987,-3.6987,-3.6987,-1.5542,0.0,0.0,0.0,0.0,0.0,0.0,-2.1893,0.0,0.0,-2.5182,-2.621,-2.6188,-2.6973,-2.7762,-2.845,-2.927,-3.0051,-3.0563,-3.0791,-3.0858,-3.0858,-3.0684,-3.0925,-3.1667,-3.1452,-3.1781,-3.3011,-3.278,-3.2819,-3.324,-3.3309,-3.3309,-3.3309,-3.3309,-3.3309,-3.3309,-3.3309,-3.3309,-3.3309,-3.3309,-3.3398,-3.3555,-3.4118,-3.4577,-3.5052,-3.5616,-3.6028,-3.6301,-3.6301,-3.6301,-3.6301,-3.6301,-3.6301,-3.6301,-3.6301,-3.6301,-3.6301,-3.6301,-3.6301,-3.6301,-3.6301,-3.6301,-3.6301,-3.6301,-3.6301,-3.6301,-3.6301,-3.6301,-3.6301,-3.6301,-3.6301,-3.6301,-3.6301,-3.6301,-3.6301,-3.6301,-3.6301,-3.6301,-3.6301,-3.6301,-3.6343,-3.6444,-3.6585,-3.6742,-3.6748,-3.6908,-3.6987,-3.6987,-3.6987,-3.6987,-3.6987,-3.6987,-3.6987,-3.6987,-3.6987,-3.6987,-3.6987,-3.6987,-3.6987,-3.6987,-3.6987,-3.6987,-3.6987,-3.6987,-3.6987,-3.6987,-3.6987,-3.6987,-3.6987,-3.6987,-3.6987,-1.6088,0.0,0.0,0.0,0.0,0.0,0.0,0.0,0.0,0.0,-2.5468,-2.6469,-2.6533,-2.7242,-2.8039,-2.8688,-2.9275,-2.9727,-3.0219,-3.0462,-3.0568,-3.0568,-3.0747,-3.1146,-3.1823,-3.1823,-3.2231,-3.324,-3.3065,-3.3011,-3.3293,-3.3309,-3.3309,-3.3309,-3.3309,-3.3309,-3.3309,-3.3309,-3.3309,-3.3309,-3.3309,-3.3309,-3.3361,-3.4168,-3.4738,-3.5144,-3.5985,-3.6301,-3.6301,-3.6301,-3.6301,-3.6301,-3.6301,-3.6301,-3.6301,-3.6301,-3.6301,-3.6301,-3.6301,-3.6301,-3.6301,-3.6301,-3.6301,-3.6301,-3.6301,-3.6301,-3.6301,-3.6301,-3.6301,-3.6301,-3.6301,-3.6301,-3.6301,-3.6301,-3.6301,-3.6301,-3.6301,-3.6301,-3.6301,-3.6301,-3.6301,-3.6343,-3.6402,-3.6602,-3.6684,-3.6748,-3.6908,-3.6987,-3.6987,-3.6987,-3.6987,-3.6987,-3.6987,-3.6987,-3.6987,-3.6987,-3.6987,-3.6987,-3.6987,-3.6987,-3.6987,-3.6987,-3.6987,-3.6987,-3.6987,-3.6987,-3.6987,-3.6987,-3.6987,-3.6987,-3.6987,-3.6987,-1.7248,0.0,0.0,0.0,0.0,0.0,0.0,0.0,-2.5392,-2.5337,0.0,-2.6922,-2.7062,-2.751,-2.8235,-2.9415,-2.9602,-2.9851,-3.0507,-3.0568,-3.0568,-3.0568,-3.0984,-3.1452,-3.1879,-3.2312,-3.2765,-3.324,-3.3309,-3.3309,-3.3309,-3.3309,-3.3309,-3.3309,-3.3309,-3.3309,-3.3309,-3.3309,-3.3309,-3.3309,-3.3309,-3.3309,-3.3309,-3.3899,-3.4706,-3.5677,-3.6114,-3.6301,-3.6301,-3.6301,-3.6301,-3.6301,-3.6301,-3.6301,-3.6301,-3.6301,-3.6301,-3.6301,-3.6301,-3.6301,-3.6301,-3.6301,-3.6301,-3.6301,-3.6301,-3.6301,-3.6301,-3.6301,-3.6301,-3.6301,-3.6301,-3.6301,-3.6301,-3.6301,-3.6301,-3.6301,-3.6301,-3.6301,-3.6301,-3.6301,-3.6301,-3.6301,-3.6301,-3.6502,-3.6702,-3.6725,-3.6869,-3.6987,-3.6987,-3.704,-3.7075,-3.7075,-3.7163,-3.7198,-3.7198,-3.7198,-3.7198,-3.7198,-3.7198,-3.7163,-3.7093,-3.7023,-3.6987,-3.6987,-3.6987,-3.6987,-3.6987,-3.6987,-3.6987,-3.6987,-3.6987,-3.6987,0.0,-1.8085,0.0,0.0,0.0,0.0,0.0,-2.4499,-2.4967,-2.5087,-2.6062,-2.7101,-2.7536,-2.8052,-2.8716,-2.9477,-2.9602,-2.9851,-3.0507,-3.0568,-3.0568,-3.0568,-3.0984,-3.1452,-3.1879,-3.2312,-3.2765,-3.324,-3.3309,-3.3309,-3.3309,-3.3309,-3.3309,-3.3309,-3.3309,-3.3309,-3.3309,-3.3309,-3.3309,-3.3309,-3.3309,-3.3309,-3.3346,-3.4267,-3.5191,-3.6174,-3.6259,-3.6301,-3.6301,-3.6301,-3.6301,-3.6301,-3.6301,-3.6301,-3.6301,-3.6301,-3.6301,-3.6301,-3.6301,-3.6301,-3.6301,-3.6301,-3.6301,-3.6301,-3.6301,-3.6301,-3.6301,-3.6301,-3.6301,-3.6301,-3.6301,-3.6301,-3.6301,-3.6301,-3.6301,-3.6301,-3.6301,-3.6301,-3.6301,-3.6301,-3.6301,-3.6301,-3.6301,-3.6502,-3.6766,-3.6908,-3.6987,-3.6987,-3.6987,-3.7496,-3.7865,-3.7865,-3.8427,-3.8813,-3.8813,-3.8813,-3.8813,-3.8813,-3.8813,-3.8532,-3.7883,-3.7303,-3.6987,-3.6987,-3.6987,-3.6987,-3.6987,-3.6987,-3.6987,-3.6987,-3.6987,-3.6987,0.0,0.0,0.0,0.0,0.0,0.0,0.0,-2.4345,-2.4766,-2.5767,-2.6526,-2.7175,-2.7709,-2.8249,-2.8844,-2.9477,-2.9602,-2.9851,-3.0507,-3.0568,-3.0568,-3.0568,-3.1204,-3.1667,-3.1879,-3.2547,-3.3065,-3.3293,-3.3309,-3.3309,-3.3309,-3.3309,-3.3309,-3.3309,-3.3309,-3.3309,-3.3309,-3.3309,-3.3309,-3.3309,-3.3309,-3.3539,-3.4018,-3.4545,-3.5328,-3.6301,-3.6301,-3.6301,-3.6301,-3.6301,-3.6301,-3.6301,-3.6301,-3.6301,-3.6301,-3.6301,-3.6301,-3.6301,-3.6301,-3.6301,-3.6301,-3.6301,-3.6301,-3.6301,-3.6301,-3.6301,-3.6301,-3.6301,-3.6301,-3.6301,-3.6301,-3.6301,-3.6301,-3.6301,-3.6301,-3.6301,-3.6301,-3.6301,-3.6301,-3.6301,-3.6301,-3.6301,-3.6385,-3.6585,-3.6806,-3.6987,-3.7286,-3.7391,-3.7062,-3.797,-3.8392,-3.7637,-3.8269,-3.8585,-3.8234,-3.8532,-3.8743,-3.8743,-3.9094,-3.9129,-3.8708,-3.7935,-3.7356,-3.7027,-3.6987,-3.6987,-3.6987,-3.6987,-3.6987,-3.6987,-3.6987,-3.6987,0.0,0.0,0.0,0.0,0.0,0.0,0.0,-2.42,-2.4754,-2.662,-2.6973,-2.7175,-2.7842,-2.8314,-2.8908,-2.9477,-2.9665,-2.9913,-3.0507,-3.0568,-3.0568,-3.0568,-3.1364,-3.1879,-3.1879,-3.2726,-3.3309,-3.3309,-3.3309,-3.3309,-3.3309,-3.3309,-3.3309,-3.3309,-3.3309,-3.3309,-3.3309,-3.3309,-3.3309,-3.3309,-3.3309,-3.3832,-3.4769,-3.4769,-3.5328,-3.6301,-3.6301,-3.6301,-3.6301,-3.6301,-3.6301,-3.6301,-3.6301,-3.6301,-3.6301,-3.6301,-3.6301,-3.6301,-3.6301,-3.6301,-3.6301,-3.6301,-3.6301,-3.6301,-3.6301,-3.6301,-3.6301,-3.6301,-3.6301,-3.6301,-3.6301,-3.6301,-3.6301,-3.6301,-3.6301,-3.6301,-3.6301,-3.6301,-3.6301,-3.6301,-3.6301,-3.6402,-3.6502,-3.6667,-3.6904,-3.7145,-3.7707,-3.7935,-3.7444,-3.8515,-3.8813,-3.7514,-3.8058,-3.8269,-3.7637,-3.8269,-3.8708,-3.8708,-3.934,-3.9656,-3.9515,-3.8743,-3.7953,-3.718,-3.704,-3.6987,-3.6987,-3.6987,-3.6987,-3.6987,-3.6987,-3.6987,0.0,0.0,0.0,0.0,0.0,0.0,0.0,0.0,-2.4754,0.0,-2.6973,-2.731,-2.8314,-2.878,-2.9162,-2.954,-2.9865,-3.0172,-3.0582,-3.0568,-3.0568,-3.0568,-3.1364,-3.1879,-3.1879,-3.2726,-3.3309,-3.3309,-3.3309,-3.3309,-3.3309,-3.3309,-3.3309,-3.3309,-3.3309,-3.3309,-3.3309,-3.3309,-3.3309,-3.3309,-3.3309,-3.3832,-3.4769,-3.4769,-3.5328,-3.6301,-3.6301,-3.6301,-3.6301,-3.6301,-3.6301,-3.6301,-3.6301,-3.6301,-3.6301,-3.6301,-3.6301,-3.6301,-3.6301,-3.6301,-3.6301,-3.6301,-3.6301,-3.6301,-3.6301,-3.6301,-3.6301,-3.6301,-3.6301,-3.6301,-3.6301,-3.6301,-3.6301,-3.6301,-3.6301,-3.6301,-3.6301,-3.6301,-3.6301,-3.6301,-3.6402,-3.6502,-3.6643,-3.6748,-3.7038,-3.7825,-3.8041,-3.8322,-3.8918,-3.9182,-3.9234,-3.9024,-3.9691,-4.013,-4.0024,-4.0709,-4.113,-4.113,-4.1236,-4.1007,-4.0358,-3.9568,-3.8778,-3.797,-3.7321,-3.6987,-3.6987,-3.6987,-3.6987,-3.6987,-3.6987,-3.6987,0.0,0.0,0.0,0.0,0.0,0.0,0.0,0.0,-2.4981,-2.6633,-2.6973,-2.731,-2.8392,-2.8716,-2.8972,-2.9477,-2.9741,-2.9974,-3.0522,-3.0568,-3.0568,-3.0568,-3.1364,-3.1879,-3.1879,-3.2726,-3.3309,-3.3309,-3.3309,-3.3309,-3.3309,-3.3309,-3.3309,-3.3309,-3.3309,-3.3309,-3.3309,-3.3309,-3.3309,-3.3293,-3.3591,-3.4134,-3.4816,-3.5098,-3.5616,-3.6301,-3.6301,-3.6301,-3.6301,-3.6301,-3.6301,-3.6301,-3.6301,-3.6301,-3.6301,-3.6301,-3.6301,-3.6301,-3.6301,-3.6301,-3.6301,-3.6301,-3.6301,-3.6301,-3.6301,-3.6301,-3.6301,-3.6301,-3.6301,-3.6301,-3.6301,-3.6301,-3.6301,-3.6301,-3.6301,-3.6301,-3.6301,-3.6301,-3.6301,-3.6301,-3.6402,-3.6544,-3.6702,-3.7114,-3.7621,-3.8018,-3.8866,-3.941,-3.9322,-4.0059,-4.027,-3.9392,-4.0007,-4.0305,-3.9866,-4.0533,-4.0972,-4.0972,-4.0972,-4.0832,-4.0498,-3.9287,-3.8462,-3.8111,-3.7374,-3.6987,-3.6987,-3.6987,-3.6987,-3.6987,-3.6987,-3.6987,0.0,0.0,0.0,0.0,0.0,0.0,0.0,0.0,-2.4991,0.0,-2.6938,-2.731,-2.8392,-2.8651,-2.8908,-2.9477,-2.9665,-2.9913,-3.0507,-3.0568,-3.0568,-3.0568,-3.1364,-3.1879,-3.1879,-3.2726,-3.3309,-3.3309,-3.3309,-3.3309,-3.3309,-3.3135,-3.3119,-3.3293,-3.3135,-3.3119,-3.3309,-3.3309,-3.3361,-3.3503,-3.3899,-3.4415,-3.5021,-3.5436,-3.5854,-3.6301,-3.6301,-3.6301,-3.6301,-3.6301,-3.6301,-3.6301,-3.6301,-3.6301,-3.6301,-3.6301,-3.6301,-3.6301,-3.6301,-3.6301,-3.6301,-3.6301,-3.6301,-3.6301,-3.6301,-3.6301,-3.6301,-3.6301,-3.6301,-3.6301,-3.6301,-3.6301,-3.6301,-3.6301,-3.6301,-3.6301,-3.6301,-3.6301,-3.6301,-3.6301,-3.6444,-3.6602,-3.6702,-3.7434,-3.8117,-3.8392,-3.9585,-4.034,-3.9954,-4.0727,-4.0884,-3.9743,-4.013,-4.0253,-3.9656,-4.0323,-4.0762,-4.0762,-4.0762,-4.0691,-4.0524,-3.9147,-3.8322,-3.8111,-3.7374,-3.6987,-3.6987,-3.6987,-3.6987,-3.6987,-3.6987,-3.6987,0.0,0.0,0.0,0.0,0.0,0.0,0.0,0.0,-2.4486,-2.5968,-2.6668,-2.731,-2.8392,-2.8844,-2.9162,-2.954,-2.9865,-3.0172,-3.0582,-3.0568,-3.0568,-3.0568,-3.1364,-3.1879,-3.1879,-3.2726,-3.3309,-3.3309,-3.3309,-3.3309,-3.3309,-3.2677,-3.2613,-3.3277,-3.2661,-3.2645,-3.3293,-3.3309,-3.3555,-3.405,-3.4101,-3.461,-3.5571,-3.5571,-3.5854,-3.6301,-3.6301,-3.6301,-3.6301,-3.6301,-3.6301,-3.6301,-3.6301,-3.6301,-3.6301,-3.6301,-3.6301,-3.6301,-3.6301,-3.6301,-3.6301,-3.6301,-3.6301,-3.6301,-3.6301,-3.6301,-3.6301,-3.6301,-3.6301,-3.6301,-3.6301,-3.6301,-3.6301,-3.6301,-3.6301,-3.6301,-3.6301,-3.6301,-3.6301,-3.6301,-3.6502,-3.6702,-3.6702,-3.7458,-3.8357,-3.9129,-3.9954,-4.0727,-4.1411,-4.0937,-4.0516,-4.0428,-4.0463,-4.0463,-4.0428,-4.1113,-4.1552,-4.1552,-4.1552,-4.1218,-4.0516,-3.9691,-3.8883,-3.8111,-3.7374,-3.6987,-3.6987,-3.6987,-3.6987,-3.6987,-3.6987,-3.6987,0.0,0.0,0.0,0.0,0.0,0.0,-2.1711,-2.3073,-2.4655,-2.593,-2.6642,-2.731,-2.8392,-2.8716,-2.8972,-2.9477,-2.9679,-2.9974,-3.0507,-3.0568,-3.0568,-3.0568,-3.1364,-3.1879,-3.1879,-3.2726,-3.3309,-3.3309,-3.3309,-3.3309,-3.3309,-3.2645,-3.2428,-3.2629,-3.2459,-3.2598,-3.3293,-3.3658,-3.3899,-3.4101,-3.4738,-3.5253,-3.5616,-3.5898,-3.6156,-3.6301,-3.6301,-3.6301,-3.6301,-3.6301,-3.6301,-3.6301,-3.6301,-3.6301,-3.6301,-3.6301,-3.6301,-3.6301,-3.6301,-3.6301,-3.6301,-3.6301,-3.6301,-3.6301,-3.6301,-3.6301,-3.6301,-3.6301,-3.6301,-3.6301,-3.6301,-3.6301,-3.6301,-3.6301,-3.6301,-3.6301,-3.6301,-3.6301,-3.6301,-3.6301,-3.6444,-3.6602,-3.6702,-3.7836,-3.887,-3.9228,-4.0393,-4.1306,-4.1569,-4.1358,-4.12,-4.12,-4.12,-4.12,-4.12,-4.1446,-4.1604,-4.1604,-4.1148,-4.0762,-4.0498,-3.9234,-3.8392,-3.8111,-3.7374,-3.6987,-3.6987,-3.6987,-3.6987,-3.6987,-3.6987,-3.6987,-1.6585,0.0,0.0,0.0,0.0,-2.1018,-2.0875,0.0,-2.4092,-2.5599,-2.6359,-2.7076,-2.8352,-2.8424,-2.8611,-2.9449,-2.9602,-2.978,-3.0218,-3.0367,-3.0397,-3.0192,-3.0934,-3.1418,-3.1418,-3.2148,-3.2613,-3.2613,-3.2613,-3.2708,-3.2945,-3.2297,-3.1918,-3.1918,-3.2139,-3.2574,-3.3173,-3.377,-3.4284,-3.461,-3.5299,-3.5661,-3.5854,-3.6156,-3.6301,-3.6301,-3.6301,-3.6301,-3.6301,-3.6301,-3.6301,-3.6301,-3.6301,-3.6301,-3.6301,-3.6301,-3.6301,-3.6301,-3.6301,-3.6301,-3.6301,-3.6301,-3.6301,-3.6301,-3.6301,-3.6301,-3.6301,-3.6301,-3.6301,-3.6301,-3.6301,-3.6301,-3.6301,-3.6301,-3.6301,-3.6301,-3.6301,-3.6301,-3.6301,-3.6301,-3.6444,-3.6602,-3.6684,-3.7853,-3.8905,-3.9228,-4.0411,-4.1323,-4.1569,-4.1604,-4.1604,-4.1604,-4.1604,-4.1604,-4.1604,-4.1604,-4.1604,-4.1604,-4.113,-4.0744,-4.0498,-3.9217,-3.8392,-3.8111,-3.7374,-3.6987,-3.6987,-3.6987,-3.6987,-3.6987,-3.6987,-3.6987,0.0,0.0,0.0,0.0,0.0,0.0,-2.0139,0.0,-2.2598,-2.4887,-2.5781,-2.6674,-2.8231,-2.8071,-2.8056,-2.9324,-2.9546,-2.952,-2.9565,-2.9912,-2.9944,-2.9351,-2.9985,-3.0505,-3.049,-3.0942,-3.1223,-3.1223,-3.1223,-3.1507,-3.2254,-3.1571,-3.1191,-3.1223,-3.1871,-3.2522,-3.2983,-3.3778,-3.461,-3.5616,-3.5616,-3.5854,-3.6301,-3.6301,-3.6301,-3.6301,-3.6301,-3.6301,-3.6301,-3.6301,-3.6301,-3.6301,-3.6301,-3.6301,-3.6301,-3.6301,-3.6301,-3.6301,-3.6301,-3.6301,-3.6301,-3.6301,-3.6301,-3.6301,-3.6301,-3.6301,-3.6301,-3.6301,-3.6301,-3.6301,-3.6301,-3.6301,-3.6301,-3.6301,-3.6301,-3.6301,-3.6301,-3.6301,-3.6301,-3.6301,-3.6502,-3.6702,-3.6702,-3.7458,-3.8374,-3.9164,-3.9972,-4.0744,-4.1481,-4.1587,-4.1604,-4.1604,-4.1604,-4.1604,-4.1604,-4.1604,-4.1604,-4.1604,-4.1604,-4.1271,-4.0533,-3.9761,-3.8971,-3.8164,-3.7391,-3.7005,-3.6987,-3.6987,-3.6987,-3.6987,-3.6987,-3.6987,-1.6184,0.0,0.0,0.0,0.0,0.0,-1.9738,0.0,-2.2681,-2.3966,-2.4938,-2.5832,-2.6635,-2.6916,-2.7291,-2.8106,-2.8254,-2.8361,-2.89,-2.9322,-2.9359,-2.892,-2.9826,-3.0387,-3.0112,-3.0775,-3.1223,-3.1223,-3.1223,-3.1302,-3.1492,-3.0844,-3.0701,-3.1191,-3.1413,-3.1962,-3.2967,-3.4087,-3.4927,-3.5616,-3.5941,-3.6156,-3.6301,-3.6301,-3.6301,-3.6301,-3.6301,-3.6301,-3.6301,-3.6301,-3.6301,-3.6301,-3.6301,-3.6301,-3.6301,-3.6301,-3.6301,-3.6301,-3.6301,-3.6301,-3.6301,-3.6301,-3.6301,-3.6301,-3.6301,-3.6301,-3.6301,-3.6301,-3.6301,-3.6301,-3.6301,-3.6301,-3.6301,-3.6301,-3.6301,-3.6301,-3.6301,-3.6402,-3.6444,-3.6444,-3.6626,-3.6788,-3.6788,-3.7498,-3.8181,-3.8409,-3.9603,-4.0551,-4.0762,-4.1271,-4.1604,-4.1604,-4.1604,-4.1604,-4.1604,-4.1604,-4.1604,-4.1604,-4.1604,-4.1516,-4.1306,-4.0569,-3.9779,-3.8989,-3.8199,-3.7532,-3.6987,-3.6987,-3.6987,-3.6987,-3.6987,-3.6987,0.0,0.0,0.0,0.0,0.0,0.0,-1.941,-2.0565,-2.1911,-2.3466,-2.428,-2.4949,-2.5946,-2.623,-2.6521,-2.7225,-2.723,-2.7385,-2.8175,-2.8754,-2.8866,-2.8238,-2.9215,-2.9754,-2.9322,-2.9918,-3.0338,-3.0338,-3.0338,-3.048,-3.0765,-3.0401,-3.037,-3.0765,-3.078,-3.147,-3.2875,-3.3865,-3.4889,-3.5898,-3.6156,-3.6301,-3.6301,-3.6301,-3.6301,-3.6301,-3.6301,-3.6301,-3.6301,-3.6301,-3.6301,-3.6301,-3.6301,-3.6301,-3.6301,-3.6301,-3.6301,-3.6301,-3.6301,-3.6301,-3.6301,-3.6301,-3.6301,-3.6301,-3.6301,-3.6301,-3.6301,-3.6301,-3.6301,-3.6301,-3.6301,-3.6301,-3.6301,-3.6301,-3.6301,-3.6301,-3.6343,-3.6502,-3.6561,-3.6502,-3.6667,-3.6788,-3.6788,-3.7259,-3.7865,-3.8515,-3.9111,-3.9726,-4.0393,-4.0867,-4.113,-4.113,-4.1411,-4.1604,-4.1604,-4.1604,-4.1604,-4.1604,-4.1604,-4.1604,-4.1604,-4.0569,-3.9937,-3.9796,-3.8374,-3.7426,-3.6987,-3.6987,-3.6987,-3.6987,-3.6987,-3.6987,0.0,0.0,0.0,-1.6908,-1.7185,0.0,-1.9212,-1.9814,-2.0801,-2.313,-2.3692,-2.4154,-2.5524,-2.5595,-2.5693,-2.6468,-2.6382,-2.6551,-2.748,-2.8233,-2.8387,-2.7461,-2.8365,-2.8873,-2.8463,-2.8873,-2.9121,-2.9121,-2.9121,-2.9437,-3.0133,-3.0101,-3.0149,-3.026,-3.0307,-3.1067,-3.2669,-3.3487,-3.469,-3.6199,-3.6301,-3.6301,-3.6301,-3.6301,-3.6301,-3.6301,-3.6301,-3.6353,-3.6422,-3.6422,-3.6387,-3.6301,-3.6301,-3.6301,-3.6301,-3.6301,-3.6301,-3.6301,-3.6301,-3.6301,-3.6301,-3.6301,-3.6301,-3.6301,-3.6301,-3.6301,-3.6301,-3.6301,-3.6301,-3.6301,-3.6301,-3.6301,-3.6301,-3.6301,-3.6301,-3.6343,-3.6444,-3.6602,-3.6684,-3.6544,-3.6708,-3.6829,-3.6829,-3.7001,-3.7549,-3.8866,-3.8585,-3.8725,-4.0042,-4.0288,-4.0375,-4.0463,-4.1078,-4.1516,-4.1604,-4.1604,-4.1604,-4.1604,-4.1604,-4.1604,-4.1604,-4.0288,-3.9814,-4.034,-3.8128,-3.6987,-3.6987,-3.6987,-3.6987,-3.6987,-3.7058,-3.7058,-1.6938,-1.7147,-1.6908,-1.6908,-1.7314,0.0,-1.9212,-1.9868,-2.0688,-2.2181,-2.2825,-2.3156,-2.3439,-2.4072,-2.4682,-2.5027,-2.5619,-2.6207,-2.6886,-2.7373,-2.7484,-2.7003,-2.7894,-2.8463,-2.8061,-2.8889,-2.9425,-2.9425,-2.9425,-2.9653,-3.0196,-2.9643,-2.9766,-3.0663,-3.0895,-3.1502,-3.2613,-3.3938,-3.5011,-3.5749,-3.6114,-3.6301,-3.6301,-3.6301,-3.6301,-3.6301,-3.6301,-3.6663,-3.7249,-3.7249,-3.687,-3.6301,-3.6301,-3.6301,-3.6301,-3.6301,-3.6301,-3.6301,-3.6301,-3.6301,-3.6301,-3.6301,-3.6301,-3.6301,-3.6301,-3.6301,-3.6301,-3.6301,-3.6301,-3.6301,-3.6301,-3.6301,-3.6301,-3.6301,-3.6402,-3.6461,-3.6502,-3.6667,-3.6788,-3.6748,-3.6869,-3.6948,-3.6948,-3.7479,-3.7795,-3.7479,-3.8374,-3.8954,-3.862,-3.9129,-3.9779,-4.0411,-4.0604,-4.0937,-4.1552,-4.1604,-4.1604,-4.1604,-4.1604,-4.1604,-4.1604,-4.1306,-4.0639,-3.9568,-3.7865,-3.6987,-3.6987,-3.6987,-3.6987,-3.6987,-3.7602,-3.7567,-1.7358,-1.7513,-1.7202,-1.7202,-1.7325,0.0,0.0,-1.9803,-2.0462,-2.1925,-2.2371,-2.2616,-2.2848,-2.359,-2.4266,-2.4624,-2.5467,-2.6204,-2.6539,-2.7026,-2.735,-2.7144,-2.7944,-2.8415,-2.8207,-2.8858,-2.9305,-2.9305,-2.9425,-2.9539,-2.9643,-2.9327,-2.9653,-3.083,-3.0987,-3.186,-3.3517,-3.427,-3.511,-3.5941,-3.6216,-3.6301,-3.6301,-3.6301,-3.6301,-3.6318,-3.6715,-3.7111,-3.7508,-3.7887,-3.7801,-3.7439,-3.7439,-3.7439,-3.7387,-3.7025,-3.6887,-3.6835,-3.6439,-3.6301,-3.6301,-3.6301,-3.6301,-3.6301,-3.6301,-3.6301,-3.6301,-3.6301,-3.6301,-3.6301,-3.6301,-3.6301,-3.6301,-3.6385,-3.6444,-3.6544,-3.6626,-3.6748,-3.6829,-3.6908,-3.693,-3.711,-3.7479,-3.7549,-3.769,-3.8093,-3.8146,-3.8286,-3.8655,-3.8708,-3.9164,-4.0358,-4.013,-4.0358,-4.1499,-4.1253,-4.12,-4.1587,-4.1604,-4.1604,-4.1604,-4.0867,-3.9743,-3.8181,-3.776,-3.7356,-3.6987,-3.6987,-3.6987,-3.7027,-3.7374,-3.7549,-1.7778,-1.7871,-1.7495,-1.7495,-1.7404,-1.7696,0.0,0.0,0.0,-2.1862,-2.2197,-2.2309,-2.2678,-2.3412,-2.3995,-2.4292,-2.5384,-2.6201,-2.6087,-2.6768,-2.7299,-2.7299,-2.786,-2.8319,-2.8367,-2.8873,-2.9213,-2.9243,-2.938,-2.9396,-2.9167,-2.9121,-2.9683,-3.0977,-3.1066,-3.2204,-3.4481,-3.4634,-3.5197,-3.6174,-3.6259,-3.6301,-3.6301,-3.6301,-3.6387,-3.6559,-3.7042,-3.7422,-3.7749,-3.8336,-3.8681,-3.8784,-3.8646,-3.8594,-3.8491,-3.7749,-3.7491,-3.737,-3.6577,-3.6301,-3.6301,-3.6301,-3.6301,-3.6301,-3.6301,-3.6301,-3.6301,-3.6301,-3.6301,-3.6301,-3.6301,-3.6301,-3.6343,-3.6461,-3.6502,-3.6585,-3.6748,-3.6829,-3.6869,-3.6987,-3.6987,-3.718,-3.7795,-3.7496,-3.7619,-3.8883,-3.8006,-3.7654,-3.8918,-3.8515,-3.8655,-4.0095,-3.9691,-3.9884,-4.1271,-4.0691,-4.0516,-4.113,-4.1165,-4.1165,-4.1165,-3.9814,-3.848,-3.7233,-3.7654,-3.7584,-3.6987,-3.7128,-3.7128,-3.6987,-3.7128,-3.7532,-1.8172,-1.8082,-1.7495,-1.7495,-1.7535,-1.7969,-1.9212,0.0,-2.0602,-2.1925,0.0,-2.2197,-2.2247,0.0,0.0,-2.3026,-2.4625,-2.5751,-2.5202,-2.6141,-2.6884,-2.6884,-2.7233,-2.761,-2.7963,-2.8889,-2.9515,-2.9722,-2.9589,-2.947,-2.9486,-2.9213,-2.982,-3.1477,-3.1753,-3.2685,-3.4404,-3.5098,-3.5531,-3.5661,-3.6114,-3.6301,-3.6301,-3.6301,-3.668,-3.7318,-3.6697,-3.7198,-3.8474,-3.856,-3.8974,-3.9508,-3.8853,-3.8594,-3.8491,-3.7749,-3.7491,-3.737,-3.6577,-3.6301,-3.6301,-3.6301,-3.6301,-3.6301,-3.6301,-3.6301,-3.6301,-3.6301,-3.6301,-3.6301,-3.6301,-3.6301,-3.6343,-3.6461,-3.6602,-3.6684,-3.6788,-3.6891,-3.6987,-3.6987,-3.6987,-3.7044,-3.7093,-3.7602,-3.8041,-3.8216,-3.8093,-3.8041,-3.8216,-3.8164,-3.8444,-3.9357,-3.9357,-3.9656,-4.0533,-3.9884,-3.948,-3.9568,-3.9568,-3.9568,-3.9568,-3.8725,-3.8164,-3.7988,-3.7409,-3.7058,-3.6987,-3.7654,-3.7637,-3.7005,-3.7672,-3.8023,-1.8574,-1.824,-1.753,-1.777,-1.7594,-1.7678,-1.9187,-1.9933,-2.0666,-2.1925,0.0,0.0,0.0,0.0,0.0,0.0,-2.4603,-2.5659,-2.5556,-2.6101,-2.6736,-2.7342,-2.7595,-2.7929,-2.8527,-2.9136,-2.956,-2.9633,-2.9633,-2.9633,-2.9515,-2.9779,-3.0658,-3.2177,-3.276,-3.3868,-3.5489,-3.5814,-3.6028,-3.6028,-3.6216,-3.6301,-3.6301,-3.6301,-3.6473,-3.6801,-3.6939,-3.7594,-3.8629,-3.906,-3.9698,-4.0353,-4.0043,-3.9922,-3.9819,-3.9043,-3.8491,-3.8025,-3.7249,-3.668,-3.6301,-3.6301,-3.6301,-3.6301,-3.6301,-3.6301,-3.6301,-3.6301,-3.6301,-3.6301,-3.6301,-3.6343,-3.6444,-3.6585,-3.6684,-3.6788,-3.6908,-3.6948,-3.6987,-3.6987,-3.6987,-3.6987,-3.6987,-3.7251,-3.776,-3.8673,-3.8023,-3.7777,-3.869,-3.8023,-3.7935,-3.9182,-3.8497,-3.8462,-3.9691,-3.9076,-3.8813,-3.9287,-3.9305,-3.9111,-3.8638,-3.8286,-3.79,-3.7461,-3.7584,-3.7637,-3.7637,-3.8427,-3.8638,-3.8339,-3.8655,-3.9059,-1.8487,-1.8215,-1.7519,-1.7986,-1.7706,-1.7675,-1.8895,-1.9738,-2.059,-2.1651,-2.2049,0.0,0.0,0.0,-2.3526,-2.3372,0.0,-2.5481,-2.5376,-2.5781,-2.6466,-2.7615,-2.7913,-2.8255,-2.8732,-2.8978,-2.9217,-2.9454,-2.9456,-2.9424,-2.9515,-3.0142,-3.1186,-3.2669,-3.3433,-3.4589,-3.6284,-3.6301,-3.6301,-3.6301,-3.6301,-3.6301,-3.6301,-3.6301,-3.6525,-3.6939,-3.7318,-3.8025,-3.8939,-3.9474,-4.0026,-4.0578,-4.0802,-4.0888,-4.0784,-3.9991,-3.9353,-3.8767,-3.7818,-3.6956,-3.6301,-3.6301,-3.6301,-3.6301,-3.6301,-3.6301,-3.6301,-3.6301,-3.6301,-3.6301,-3.6301,-3.6402,-3.6544,-3.6661,-3.6766,-3.6829,-3.6987,-3.6987,-3.6987,-3.6987,-3.6987,-3.6987,-3.6987,-3.6987,-3.7444,-3.8778,-3.7848,-3.7461,-3.8813,-3.7988,-3.7725,-3.8866,-3.797,-3.7742,-3.8883,-3.8251,-3.8058,-3.8638,-3.8673,-3.8409,-3.783,-3.7795,-3.7549,-3.6987,-3.7725,-3.8111,-3.8111,-3.9129,-3.9638,-3.9621,-3.941,-3.9726,-1.7594,-1.7732,-1.7519,-1.7986,-1.8152,-1.8276,-1.8231,-1.9333,-2.0398,-2.0846,-2.1588,-2.2197,-2.2197,-2.2944,-2.3398,-2.2802,-2.4289,0.0,0.0,-2.4873,-2.5914,-2.7261,-2.8057,-2.8367,-2.7947,-2.8062,-2.8529,-2.9422,-2.883,-2.8734,-2.9483,-3.0142,-3.1186,-3.2669,-3.3433,-3.4589,-3.6284,-3.6301,-3.6301,-3.6301,-3.6301,-3.6301,-3.6301,-3.6301,-3.7111,-3.8474,-3.7784,-3.8301,-3.9664,-3.9681,-3.9715,-3.9819,-4.0578,-4.0888,-4.0784,-3.9991,-3.9681,-3.9457,-3.7991,-3.6956,-3.6301,-3.6301,-3.6301,-3.6301,-3.6301,-3.6301,-3.6301,-3.6301,-3.6301,-3.6301,-3.6301,-3.6402,-3.6544,-3.6661,-3.6766,-3.6829,-3.6987,-3.6987,-3.6987,-3.6987,-3.6987,-3.6987,-3.6987,-3.6987,-3.7251,-3.8023,-3.7479,-3.7268,-3.8041,-3.8111,-3.8093,-3.8146,-3.8093,-3.8093,-3.8146,-3.7444,-3.7062,-3.7058,-3.7058,-3.704,-3.7023,-3.7023,-3.7005,-3.6987,-3.7725,-3.8111,-3.8111,-3.9673,-4.0446,-4.0428,-3.9656,-3.9726,-1.7674,-1.7983,-1.811,-1.8375,-1.8442,-1.8433,-1.8605,-1.9661,-2.0709,-2.085,-2.1588,-2.2197,-2.2197,-2.2944,-2.3513,-2.3321,-2.4346,-2.5107,0.0,-2.5802,-2.6645,-2.7321,-2.7661,-2.7783,-2.7642,-2.7543,-2.7803,-2.8718,-2.8689,-2.8995,-2.9673,-3.0387,-3.1234,-3.2193,-3.3245,-3.4353,-3.5559,-3.6059,-3.6301,-3.6301,-3.6301,-3.6301,-3.6301,-3.6301,-3.6577,-3.7077,-3.737,-3.8043,-3.9008,-3.9491,-4.0008,-4.0509,-4.0767,-4.0888,-4.0853,-4.0578,-4.0146,-3.9491,-3.7991,-3.7301,-3.6991,-3.6473,-3.6301,-3.6301,-3.6301,-3.6301,-3.6301,-3.6301,-3.6343,-3.6444,-3.6444,-3.6568,-3.6708,-3.6748,-3.6869,-3.693,-3.6987,-3.6987,-3.6987,-3.6987,-3.6987,-3.6987,-3.6987,-3.6987,-3.7233,-3.7988,-3.7461,-3.7251,-3.8023,-3.7672,-3.7356,-3.7356,-3.7356,-3.7356,-3.7356,-3.7128,-3.6987,-3.6987,-3.6987,-3.6987,-3.6987,-3.6987,-3.7216,-3.7725,-3.8497,-3.9164,-3.9673,-4.0709,-4.1218,-4.1218,-4.0955,-4.0972,-1.7674,-1.8069,-1.8302,-1.872,-1.8755,-1.8637,-1.8634,-1.9671,-2.0485,-2.0314,-2.1186,-2.1987,-2.1862,-2.2641,-2.3352,-2.3352,-2.4118,-2.4867,0.0,-2.5916,-2.6542,-2.698,-2.7311,-2.7597,-2.7845,-2.74,-2.7522,-2.8586,-2.8645,-2.8952,-2.9645,-3.0551,-3.1368,-3.2081,-3.3334,-3.4442,-3.5309,-3.5975,-3.6301,-3.6301,-3.6594,-3.6577,-3.6301,-3.6594,-3.6715,-3.6749,-3.7267,-3.7905,-3.8629,-3.9112,-3.9767,-4.0457,-4.0457,-4.0629,-4.0888,-4.0888,-4.0388,-3.956,-3.8594,-3.8094,-3.7749,-3.6973,-3.6715,-3.6663,-3.6387,-3.6301,-3.6301,-3.6301,-3.6402,-3.6502,-3.6502,-3.6667,-3.6788,-3.6788,-3.6908,-3.6987,-3.6987,-3.6987,-3.6987,-3.6987,-3.6987,-3.6987,-3.6987,-3.6987,-3.7145,-3.7637,-3.7286,-3.7163,-3.7637,-3.7286,-3.6987,-3.6987,-3.6987,-3.6987,-3.6987,-3.6987,-3.6987,-3.6987,-3.6987,-3.711,-3.7374,-3.7374,-3.7742,-3.8515,-3.9322,-3.9972,-4.0481,-4.1236,-4.1604,-4.1604,-4.1762,-4.1831]},{"header":{"parameterUnit":"m.s-1","parameterCategory":1,"la1":30.6,"la2":29.2853,"lo1":-89.7004,"lo2":-87.6739,"dy":0.0162,"dx":0.0183,"nx":112,"ny":82,"refTime":"2023-08-25T00:00:00:Z","depth":0,"parameterNumber":3,"parameterNumberName":"V-component_of_WINDS"},"data":[0.0,0.0,0.0,0.0,0.0,0.0,0.0,0.0,0.0,0.0,0.0,0.0,0.0,0.0,0.0,0.0,0.0,0.0,0.0,0.0,0.0,0.0,0.0,0.0,0.0,0.0,0.0,0.0,0.0,0.0,0.0,0.0,0.0,0.0,0.0,0.0,0.0,0.0,0.0,0.0,0.0,0.0,0.0,0.0,0.0,0.0,0.0,0.0,0.0,0.0,0.0,0.0,0.0,0.0,0.0,0.0,0.0,0.0,0.0,0.0,0.0,0.0,0.0,0.0,0.0,0.0,0.0,0.0,0.0,0.0,0.0,0.0,0.0,0.0,0.0,0.0,0.0,0.0,0.0,0.0,0.0,0.0,0.0,0.0,0.0,0.0,0.0,0.0,0.0,0.0,-0.3962,-0.3375,-0.3271,-0.3303,-0.3594,-0.3502,-0.3158,-0.2504,0.0,0.0,0.0,0.0,0.0,0.0,0.0,0.0,0.0,0.0,0.0,0.0,0.0,0.0,0.0,0.0,0.0,0.0,0.0,0.0,0.0,0.0,0.0,0.0,0.0,0.0,0.0,0.0,0.0,0.0,0.0,0.0,0.0,0.0,0.0,0.0,0.0,0.0,0.0,0.0,0.0,0.0,0.0,0.0,0.0,0.0,0.0,0.0,0.0,0.0,0.0,0.0,0.0,0.0,0.0,0.0,0.0,0.0,0.0,0.0,0.0,0.0,0.0,0.0,0.0,0.0,0.0,0.0,0.0,0.0,0.0,0.0,0.0,0.0,0.0,0.0,0.0,0.0,0.0,0.0,0.0,0.0,0.0,0.0,0.0,0.0,0.0,0.0,0.0,0.0,0.0,0.0,0.0,0.0,0.0,0.0,0.0,0.0,0.0,0.0,0.0,0.0,0.0,0.0,-0.489,-0.4289,-0.3732,-0.3673,-0.4348,-0.4475,-0.4466,-0.4161,0.0,0.0,0.0,0.0,0.0,0.0,0.0,0.0,0.0,0.0,0.0,0.0,0.0,0.0,0.0,0.0,0.0,0.0,0.0,0.0,0.0,0.0,0.0,0.0,0.0,0.0,0.0,0.0,0.0,0.0,0.0,0.0,0.0,0.0,0.0,0.0,0.0,0.0,0.0,0.0,0.0,0.0,0.0,0.0,0.0,0.0,0.0,0.0,0.0,0.0,0.0,0.0,0.0,0.0,0.0,0.0,0.0,0.0,0.0,0.0,0.0,0.0,0.0,0.0,0.0,0.0,0.0,0.0,0.0,0.0,0.0,0.0,0.0,0.0,0.0,0.0,0.0,0.0,0.0,0.0,0.0,0.0,0.0,0.0,0.0,0.0,0.0,0.0,0.0,0.0,0.0,0.0,0.0,0.0,0.0,0.0,0.0,0.0,0.0,0.0,0.0,0.0,0.0,-0.4405,-0.4548,-0.5067,-0.4203,-0.3887,-0.4773,-0.4844,-0.4746,-0.468,-0.3584,0.0,0.0,0.0,0.0,0.0,0.0,0.0,0.0,0.0,0.0,0.0,0.0,0.0,0.0,0.0,0.0,0.0,0.0,0.0,0.0,0.0,0.0,0.0,0.0,0.0,0.0,0.0,0.0,0.0,0.0,0.0,0.0,0.0,0.0,0.0,0.0,0.0,0.0,0.0,0.0,0.0,0.0,0.0,0.0,0.0,0.0,0.0,0.0,0.0,0.0,0.0,0.0,0.0,0.0,0.0,0.0,0.0,0.0,0.0,0.0,0.0,0.0,0.0,0.0,0.0,0.0,0.0,0.0,0.0,0.0,0.0,0.0,0.0,0.0,0.0,0.0,0.0,0.0,0.0,0.0,0.0,0.0,0.0,0.0,0.0,0.0,0.0,0.0,0.0,0.0,0.0,0.0,0.0,0.0,0.0,0.0,0.0,0.0,0.0,0.0,0.0,0.0,-0.4625,-0.4379,-0.5299,-0.4683,-0.4445,-0.5032,-0.5304,-0.5279,-0.4885,-0.4358,0.0,0.0,0.0,0.0,0.0,0.0,0.0,0.0,0.0,0.0,0.0,0.0,0.0,0.0,0.0,0.0,0.0,0.0,0.0,0.0,0.0,0.0,0.0,0.0,0.0,0.0,0.0,0.0,0.0,0.0,0.0,0.0,0.0,0.0,0.0,0.0,0.0,0.0,0.0,0.0,0.0,0.0,0.0,0.0,0.0,0.0,0.0,0.0,0.0,0.0,0.0,0.0,0.0,0.0,0.0,0.0,0.0,0.0,0.0,0.0,0.0,0.0,0.0,0.0,0.0,0.0,0.0,0.0,0.0,0.0,0.0,0.0,0.0,0.0,0.0,0.0,0.0,0.0,0.0,0.0,0.0,0.0,0.0,0.0,0.0,0.0,0.0,0.0,0.0,0.0,0.0,0.0,0.0,0.0,0.0,0.0,0.0,0.0,0.0,0.0,0.0,0.0,-0.555,-0.5014,-0.4601,-0.5265,-0.5517,-0.5057,-0.6404,-0.6666,-0.5153,-0.5528,0.0,0.0,0.0,0.0,0.0,0.0,0.0,0.0,0.0,0.0,0.0,0.0,0.0,0.0,0.0,0.0,0.0,0.0,0.0,0.0,0.0,0.0,0.0,0.0,0.0,0.0,0.0,0.0,0.0,0.0,0.0,0.0,0.0,0.0,0.0,0.0,0.0,0.0,0.0,0.0,0.0,0.0,0.0,0.0,0.0,0.0,0.0,0.0,0.0,0.0,0.0,0.0,0.0,0.0,0.0,0.0,0.0,0.0,0.0,0.0,0.0,0.0,0.0,0.0,0.0,0.0,0.0,0.0,0.0,0.0,0.0,0.0,0.0,0.0,0.0,0.0,0.0,0.0,0.0,0.0,0.0,0.0,0.0,0.0,0.0,0.0,0.0,0.0,0.0,0.0,0.0,0.0,0.0,0.0,0.0,0.0,0.0,0.0,0.0,0.0,0.0,0.0,-0.5656,-0.5653,-0.5827,-0.6005,-0.62,-0.651,-0.7108,-0.706,-0.6005,0.0,0.0,0.0,0.0,0.0,0.0,0.0,0.0,0.0,0.0,0.0,0.0,0.0,0.0,0.0,0.0,0.0,0.0,0.0,0.0,0.0,0.0,0.0,0.0,0.0,0.0,0.0,0.0,0.0,0.0,0.0,0.0,0.0,0.0,0.0,0.0,0.0,0.0,0.0,0.0,0.0,0.0,0.0,0.0,0.0,0.0,0.0,0.0,0.0,0.0,0.0,0.0,0.0,0.0,0.0,0.0,0.0,0.0,0.0,0.0,0.0,0.0,0.0,0.0,0.0,0.0,0.0,0.0,0.0,0.0,0.0,0.0,0.0,0.0,0.0,0.0,0.0,0.0,0.0,0.0,0.0,0.0,0.0,0.0,0.0,0.0,0.0,0.0,0.0,0.0,0.0,0.0,0.0,0.0,0.0,0.0,0.0,0.0,0.0,0.0,0.0,0.0,-0.5887,-0.6057,-0.628,-0.6357,-0.6664,-0.6876,-0.7081,-0.7548,-0.7321,-0.6133,0.0,0.0,0.0,0.0,0.0,0.0,0.0,0.0,0.0,0.0,0.0,0.0,0.0,0.0,0.0,0.0,0.0,0.0,0.0,0.0,0.0,0.0,0.0,0.0,0.0,0.0,0.0,0.0,0.0,0.0,0.0,0.0,0.0,0.0,0.0,0.0,0.0,0.0,0.0,0.0,0.0,0.0,0.0,0.0,0.0,0.0,0.0,0.0,0.0,0.0,0.0,0.0,0.0,0.0,0.0,0.0,0.0,0.0,0.0,0.0,0.0,0.0,0.0,0.0,0.0,0.0,0.0,0.0,0.0,0.0,0.0,0.0,0.0,0.0,0.0,0.0,0.0,0.0,0.0,0.0,0.0,0.0,0.0,0.0,0.0,0.0,0.0,0.0,0.0,0.0,0.0,0.0,0.0,0.0,0.0,0.0,0.0,0.0,0.0,0.0,0.0,0.0,-0.647,-0.7017,-0.6991,-0.5829,-0.72,-0.7643,-0.6316,-0.7595,-0.7587,0.0,0.0,0.0,0.0,0.0,0.0,0.0,0.0,0.0,0.0,0.0,0.0,0.0,0.0,0.0,0.0,0.0,0.0,0.0,0.0,0.0,0.0,0.0,0.0,0.0,0.0,0.0,0.0,0.0,0.0,0.0,0.0,0.0,0.0,0.0,0.0,0.0,0.0,0.0,0.0,0.0,0.0,0.0,0.0,0.0,0.0,0.0,0.0,0.0,0.0,0.0,0.0,0.0,0.0,0.0,0.0,0.0,0.0,0.0,0.0,0.0,0.0,0.0,0.0,0.0,0.0,0.0,0.0,0.0,0.0,0.0,0.0,0.0,0.0,0.0,0.0,0.0,0.0,0.0,0.0,0.0,0.0,0.0,0.0,0.0,0.0,0.0,0.0,0.0,0.0,0.0,0.0,0.0,0.0,0.0,0.0,0.0,0.0,0.0,0.0,0.0,0.0,0.0,-0.7109,-0.7485,-0.7752,-0.7617,-0.8095,-0.8276,-0.7886,-0.821,-0.8052,-0.6924,0.0,0.0,0.0,0.0,0.0,0.0,0.0,0.0,0.0,0.0,0.0,0.0,0.0,0.0,0.0,0.0,0.0,0.0,0.0,0.0,0.0,0.0,0.0,0.0,0.0,0.0,0.0,0.0,0.0,0.0,0.0,0.0,0.0,0.0,0.0,0.0,0.0,0.0,0.0,0.0,0.0,0.0,0.0,0.0,0.0,0.0,0.0,0.0,0.0,0.0,0.0,0.0,0.0,0.0,0.0,0.0,0.0,0.0,0.0,0.0,0.0,0.0,0.0,0.0,0.0,0.0,0.0,0.0,0.0,0.0,0.0,0.0,0.0,0.0,0.0,0.0,0.0,0.0,0.0,0.0,0.0,0.0,0.0,0.0,0.0,0.0,0.0,0.0,0.0,0.0,0.0,0.0,0.0,0.0,0.0,0.0,0.0,0.0,0.0,0.0,0.0,0.0,-0.7816,-0.8086,-0.8359,-0.8516,-0.8626,-0.8705,-0.8641,-0.8641,-0.8312,-0.7521,0.0,0.0,0.0,0.0,0.0,0.0,0.0,0.0,0.0,0.0,0.0,0.0,0.0,0.0,0.0,0.0,0.0,0.0,0.0,0.0,0.0,0.0,0.0,0.0,0.0,0.0,0.0,0.0,0.0,0.0,0.0,0.0,0.0,0.0,0.0,0.0,0.0,0.0,0.0,0.0,0.0,0.0,0.0,0.0,0.0,0.0,0.0,0.0,0.0,0.0,0.0,0.0,0.0,0.0,0.0,0.0,0.0,0.0,0.0,0.0,0.0,0.0,0.0,0.0,0.0,0.0,0.0,0.0,0.0,0.0,0.0,0.0,0.0,0.0,0.0,0.0,0.0,0.0,0.0,0.0,0.0,0.0,0.0,0.0,0.0,0.0,0.0,0.0,0.0,0.0,0.0,0.0,0.0,0.0,0.0,0.0,0.0,0.0,0.0,0.0,0.0,0.0,-0.8717,-0.8812,-0.891,-0.8933,-0.9075,-0.9145,-0.9022,-0.8958,-0.8571,-0.7782,0.0,0.0,0.0,0.0,0.0,0.0,0.0,0.0,0.0,0.0,0.0,0.0,0.0,0.0,0.0,0.0,0.0,0.0,0.0,0.0,0.0,0.0,0.0,0.0,0.0,0.0,0.0,0.0,0.0,0.0,0.0,0.0,0.0,0.0,0.0,0.0,0.0,0.0,0.0,0.0,0.0,0.0,0.0,0.0,0.0,0.0,0.0,0.0,0.0,0.0,0.0,0.0,0.0,0.0,0.0,0.0,0.0,0.0,0.0,0.0,-2.4053,-2.482,0.0,0.0,0.0,0.0,0.0,0.0,0.0,0.0,0.0,0.0,0.0,0.0,0.0,0.0,0.0,0.0,0.0,0.0,0.0,0.0,0.0,0.0,0.0,0.0,0.0,0.0,0.0,0.0,0.0,0.0,0.0,0.0,0.0,0.0,0.0,0.0,0.0,0.0,0.0,0.0,-1.0464,-1.0467,-1.0539,-1.0719,-1.0669,-1.0577,-1.0514,-0.9958,-0.9518,-0.9326,-0.8544,0.0,0.0,0.0,0.0,0.0,0.0,0.0,0.0,0.0,0.0,0.0,0.0,0.0,0.0,0.0,0.0,0.0,0.0,0.0,0.0,0.0,0.0,0.0,0.0,0.0,0.0,0.0,0.0,0.0,0.0,0.0,0.0,0.0,0.0,0.0,0.0,0.0,0.0,0.0,0.0,0.0,0.0,0.0,0.0,0.0,0.0,0.0,0.0,0.0,0.0,0.0,0.0,0.0,0.0,0.0,0.0,0.0,0.0,0.0,-2.5587,-2.515,0.0,0.0,0.0,0.0,0.0,0.0,0.0,0.0,0.0,0.0,0.0,0.0,0.0,0.0,0.0,0.0,0.0,0.0,0.0,0.0,0.0,0.0,0.0,0.0,0.0,0.0,0.0,0.0,0.0,0.0,0.0,0.0,0.0,0.0,0.0,0.0,0.0,0.0,0.0,0.0,-1.1267,-1.1207,-1.1211,-1.1377,-1.1329,-1.1205,-1.1142,-1.0773,-1.0332,-0.9894,-0.9372,0.0,0.0,0.0,0.0,0.0,0.0,0.0,0.0,0.0,0.0,0.0,0.0,0.0,0.0,0.0,0.0,0.0,0.0,0.0,0.0,0.0,0.0,0.0,0.0,0.0,0.0,0.0,0.0,0.0,0.0,0.0,0.0,0.0,0.0,0.0,0.0,0.0,0.0,0.0,0.0,0.0,0.0,0.0,0.0,0.0,0.0,0.0,0.0,0.0,0.0,0.0,0.0,0.0,-2.7144,-2.7632,-2.8112,-2.8039,-2.802,-2.7982,-2.7498,-2.5901,-2.3835,-2.526,0.0,0.0,0.0,0.0,0.0,0.0,0.0,0.0,0.0,0.0,0.0,0.0,0.0,0.0,0.0,0.0,0.0,0.0,0.0,0.0,0.0,0.0,-1.7975,-1.7346,-1.7112,-1.6652,-1.5255,0.0,0.0,0.0,0.0,0.0,0.0,0.0,0.0,0.0,0.0,0.0,-1.1826,-1.1826,-1.1826,-1.1826,-1.1826,-1.1826,-1.1703,-1.1516,-1.1142,-1.0458,-1.0332,-0.9958,0.0,0.0,0.0,0.0,0.0,0.0,0.0,0.0,0.0,0.0,0.0,0.0,0.0,0.0,0.0,0.0,0.0,0.0,0.0,0.0,0.0,0.0,0.0,0.0,0.0,0.0,0.0,0.0,0.0,0.0,0.0,0.0,-2.5295,-2.5228,0.0,0.0,0.0,0.0,0.0,0.0,0.0,0.0,0.0,0.0,0.0,0.0,0.0,-2.6783,-2.7292,-2.6726,-2.706,-2.829,-2.7871,-2.7968,-2.8647,-2.881,-2.8068,-2.6593,-2.7265,0.0,-2.6989,-2.6688,0.0,0.0,0.0,0.0,0.0,0.0,0.0,0.0,0.0,0.0,0.0,0.0,0.0,0.0,0.0,0.0,0.0,0.0,0.0,0.0,0.0,0.0,-1.8084,-1.7975,-1.7556,-1.6922,-1.612,-1.5427,-1.468,-1.3692,-1.3996,-1.4179,0.0,0.0,0.0,0.0,0.0,0.0,-1.3139,-1.326,-1.326,-1.326,-1.326,-1.326,-1.3199,-1.2581,-1.2143,-1.202,-1.1703,-1.1142,-1.0148,-1.1101,0.0,0.0,0.0,0.0,0.0,0.0,0.0,0.0,0.0,0.0,0.0,0.0,0.0,0.0,0.0,0.0,0.0,0.0,0.0,0.0,0.0,0.0,0.0,0.0,0.0,0.0,0.0,0.0,0.0,-2.466,-2.4963,-2.473,-2.4713,-2.4699,0.0,0.0,0.0,0.0,0.0,0.0,0.0,0.0,0.0,-2.7218,-2.7924,-2.8108,-2.7683,-2.8135,-2.8228,-2.8037,-2.8507,-2.8899,-2.9154,-2.8949,-2.8668,-2.8356,-2.7678,-2.7652,-2.7927,-2.6734,-2.5702,-2.5038,0.0,0.0,0.0,0.0,-2.4341,-2.4286,-2.4204,-2.415,-2.4041,-2.3771,0.0,0.0,0.0,0.0,0.0,0.0,0.0,-1.8084,-1.8084,-1.8084,-1.8164,-1.8495,-1.8328,-1.7921,-1.7005,-1.6556,-1.5823,-1.3995,-1.3855,-1.3913,-1.3571,-1.3395,0.0,0.0,0.0,-1.3191,-1.345,-1.3511,-1.3511,-1.3511,-1.3511,-1.3511,-1.3511,-1.3199,-1.2826,-1.2451,-1.2266,-1.1764,-1.0899,-1.1399,-1.1344,0.0,0.0,0.0,0.0,0.0,0.0,0.0,0.0,0.0,0.0,0.0,0.0,0.0,0.0,0.0,0.0,0.0,0.0,0.0,0.0,0.0,0.0,0.0,0.0,0.0,0.0,0.0,0.0,-2.4298,-2.4836,-2.4578,-2.4757,-2.4912,0.0,0.0,0.0,0.0,0.0,0.0,-2.8062,-2.837,-2.8411,-2.8153,-2.8883,-2.8852,-2.7925,-2.8809,-2.894,-2.8249,-2.9201,-2.974,-2.9876,-2.94,-2.9422,-2.9829,-2.8452,-2.7958,-2.8101,-2.6816,-2.5761,-2.5007,-2.4771,-2.4789,-2.4936,-2.4633,-2.4509,-2.4523,-2.4721,-2.4708,-2.457,-2.4309,-2.419,-2.4082,-2.3513,0.0,0.0,0.0,0.0,-1.8506,-1.8368,-1.8382,-1.8598,-1.8839,-1.9,-1.8825,-1.7951,-1.7513,-1.6656,-1.4514,-1.3934,-1.3776,-1.3673,-1.3656,0.0,-1.3656,-1.3656,-1.3656,-1.3656,-1.3656,-1.3622,-1.3519,-1.3511,-1.3511,-1.3511,-1.3511,-1.326,-1.2765,-1.2757,-1.2389,-1.164,-1.1888,-1.1826,-1.1329,0.0,0.0,0.0,0.0,0.0,0.0,0.0,0.0,0.0,0.0,0.0,0.0,0.0,0.0,0.0,0.0,0.0,0.0,0.0,0.0,0.0,0.0,0.0,0.0,0.0,0.0,0.0,0.0,0.0,-2.5123,-2.5289,0.0,0.0,0.0,0.0,-2.7143,-2.7283,-2.8144,-3.0171,-2.9159,-2.8755,-2.9268,-2.8721,-2.8292,-2.8203,-2.8268,-2.8843,-2.9987,-3.004,-3.0413,-3.104,-3.0726,-3.029,-2.9701,-2.9368,-2.8599,-2.7564,-2.7536,-2.712,-2.6573,-2.6298,-2.567,-2.4964,-2.4606,-2.4509,-2.4465,-2.4216,-2.4505,-2.4935,-2.461,-2.4502,-2.4259,-2.2963,-2.2214,0.0,0.0,-1.9737,-1.9493,-1.8988,-1.9229,-1.9493,-1.9011,-1.9287,-1.9465,-1.8764,-1.8105,-1.7119,-1.5222,-1.4737,-1.4504,-1.4136,0.0,-1.4067,-1.4067,-1.4067,-1.4067,-1.4067,-1.4067,-1.3922,-1.3545,-1.3511,-1.3511,-1.3511,-1.3511,-1.3511,-1.345,-1.345,-1.313,-1.2443,-1.307,-1.2818,-1.1516,-1.2135,0.0,0.0,0.0,0.0,0.0,0.0,0.0,0.0,0.0,0.0,0.0,0.0,0.0,0.0,0.0,0.0,0.0,0.0,0.0,0.0,0.0,0.0,0.0,0.0,0.0,0.0,0.0,0.0,-2.6522,-2.7394,0.0,-2.8541,-2.8426,-2.8381,-2.8361,-2.8822,-2.9283,-2.9608,-3.0158,-3.0563,-3.0716,-3.1326,-3.1406,-3.0946,-3.1295,-3.1208,-3.0708,-3.0658,-3.0472,-3.0286,-3.0436,-3.0394,-3.0173,-2.9907,-2.9588,-2.9118,-2.8399,-2.732,-2.6096,-2.6007,-2.5593,-2.5048,-2.5253,-2.5143,-2.4879,-2.5368,-2.5547,-2.5507,-2.5013,-2.4673,-2.4259,-2.2964,-2.2397,-2.1901,-2.0605,-1.9989,-1.9654,-1.9459,-1.9551,-1.9723,-1.9838,-2.001,-2.0045,-1.9706,-1.858,-1.7451,-1.6845,-1.5606,-1.463,-1.4264,-1.4156,-1.4093,-1.4093,-1.4316,-1.429,-1.3785,-1.3939,-1.3947,-1.3554,-1.3511,-1.3511,-1.3511,-1.3511,-1.3511,-1.3511,-1.3511,-1.3381,-1.313,-1.3381,-1.326,-1.2818,-1.3009,-1.2818,0.0,0.0,0.0,0.0,0.0,0.0,0.0,0.0,0.0,0.0,0.0,0.0,0.0,0.0,0.0,0.0,0.0,0.0,0.0,0.0,0.0,0.0,0.0,0.0,0.0,-2.5707,-2.7046,-2.7894,-2.8783,-2.949,-2.9964,-2.9837,-2.961,-2.9425,-2.9834,-3.0158,-3.0266,-3.1204,-3.1725,-3.173,-3.2553,-3.2794,-3.2383,-3.2681,-3.2384,-3.1419,-3.1082,-3.062,-3.0203,-3.0292,-3.0368,-3.0419,-3.0358,-3.0246,-3.0072,-2.9287,-2.8072,-2.6648,-2.6255,-2.5876,-2.5563,-2.5746,-2.5589,-2.5336,-2.5826,-2.5868,-2.5616,-2.5024,-2.4694,-2.4266,-2.3015,-2.2526,-2.2194,-2.1023,-2.0435,-2.0148,-1.9975,-2.0067,-2.0228,-2.0377,-2.0538,-2.062,-2.0493,-1.9462,-1.8396,-1.7969,-1.6088,-1.4592,-1.4705,-1.4504,-1.4333,-1.4453,-1.4692,-1.4675,-1.4153,-1.4316,-1.4333,-1.3947,-1.3905,-1.3905,-1.3905,-1.3905,-1.3845,-1.3716,-1.3708,-1.3648,-1.3511,-1.3511,-1.3571,-1.3708,-1.3836,-1.3709,-1.3263,0.0,0.0,0.0,0.0,0.0,0.0,0.0,0.0,0.0,0.0,0.0,0.0,0.0,0.0,0.0,0.0,0.0,0.0,0.0,0.0,0.0,0.0,0.0,-2.6578,-2.6468,-2.7199,-2.9186,-2.9327,-2.9204,-2.9091,-2.9104,-2.9417,-3.0169,-3.0276,-3.0842,-3.2204,-3.2328,-3.2319,-3.2132,-3.2146,-3.2146,-3.2074,-3.2074,-3.2074,-3.2074,-3.1267,-3.0895,-3.082,-3.0355,-3.0228,-3.0444,-3.0609,-3.0449,-3.0163,-3.015,-2.9457,-2.832,-2.717,-2.6713,-2.6608,-2.6073,-2.5863,-2.5772,-2.5501,-2.5395,-2.5276,-2.4678,-2.4465,-2.4221,-2.298,-2.2616,-2.2359,-2.1498,-2.1244,-2.1055,-2.0584,-2.0802,-2.1043,-2.0549,-2.0802,-2.1158,-2.1158,-2.0705,-1.9907,-1.8446,-1.61,-1.4623,-1.5373,-1.5065,-1.4821,-1.5163,-1.5223,0.0,-1.5197,-1.5206,-1.5078,-1.4726,-1.4684,-1.4684,-1.4684,-1.4684,-1.4521,-1.4136,-1.4119,-1.3947,-1.3562,-1.3545,-1.3725,-1.411,-1.4487,-1.4684,-1.4684,0.0,0.0,0.0,0.0,0.0,0.0,0.0,0.0,0.0,0.0,0.0,0.0,0.0,0.0,0.0,0.0,0.0,0.0,0.0,0.0,0.0,-2.658,-2.7029,-2.6734,-2.8566,-2.9944,-2.9959,-3.0713,-3.1184,-3.107,-3.104,-3.0966,-3.0684,-3.165,-3.2236,-3.2173,-3.321,-3.3571,-3.2932,-3.2932,-3.2648,-3.2074,-3.1489,-3.1267,-3.1193,-3.0482,-3.0062,-3.0062,-3.0075,-3.0228,-3.0444,-3.0609,-3.0758,-3.0725,-3.0307,-2.9941,-2.9536,-2.836,-2.7406,-2.6713,-2.6961,-2.6804,-2.6348,-2.5704,-2.5039,-2.4471,-2.4109,-2.3596,-2.3103,-2.2783,-2.2375,-2.2094,-2.224,-2.1732,-2.1215,-2.1445,-2.133,-2.1187,-2.0986,-2.1066,-2.1031,-2.0495,-1.965,-1.8701,-1.8002,-1.6494,-1.5367,-1.5469,-1.5281,-1.5103,-1.5197,-1.5463,-1.5446,-1.4906,-1.5052,-1.5078,-1.4726,-1.4684,-1.4684,-1.4684,-1.4684,-1.4641,-1.453,-1.4521,-1.4478,-1.4367,-1.4358,-1.441,-1.4521,-1.4632,-1.4684,0.0,0.0,0.0,0.0,0.0,0.0,0.0,0.0,0.0,0.0,0.0,0.0,0.0,0.0,0.0,0.0,0.0,0.0,0.0,0.0,0.0,0.0,-2.8274,-2.892,-2.9372,-3.0021,-3.0643,-3.1021,-3.1332,-3.1622,-3.1901,-3.1636,-3.1563,-3.1842,-3.2001,-3.2087,-3.2074,-3.296,-3.3087,-3.2277,-3.2563,-3.2506,-3.2074,-3.1636,-3.1415,-3.1415,-3.0633,-3.0279,-3.0279,-3.0152,-3.0228,-3.0444,-3.0609,-3.0849,-3.096,-3.062,-3.0346,-2.9947,0.0,0.0,0.0,0.0,-2.6768,-2.6593,-2.5594,-2.48,-2.4104,-2.3564,-2.3093,-2.271,-2.255,-2.2433,-2.235,-2.2648,-2.2099,-2.1548,-2.1847,-2.1548,-2.1094,-2.0828,-2.0764,-2.056,-1.977,-1.9154,-1.8451,-1.7707,-1.6952,0.0,-1.5739,-1.5532,-1.5463,-1.5463,-1.5651,-1.5651,-1.5206,-1.5334,-1.5386,-1.5172,-1.5155,-1.5155,-1.5155,-1.5155,0.0,0.0,0.0,-1.4838,-1.4692,-1.4829,0.0,0.0,0.0,-1.5155,-1.5155,-1.5155,0.0,0.0,-1.4231,-1.4138,0.0,0.0,0.0,0.0,0.0,0.0,0.0,0.0,0.0,0.0,0.0,0.0,0.0,0.0,0.0,0.0,-3.0823,-3.1801,-3.2901,-3.103,-3.025,-3.2028,-3.1481,-3.1185,-3.1796,-3.1193,-3.1402,-3.2847,-3.1696,-3.1267,-3.2074,-3.2074,0.0,0.0,0.0,-3.1928,-3.1869,-3.1869,-3.1869,-3.1796,-3.1119,-3.0758,-3.0758,-3.0279,-3.0228,-3.0444,-3.0609,-3.0849,-3.0986,-3.0986,-3.0533,-2.971,-2.8241,-2.764,-2.7386,-2.6325,-2.6183,-2.6357,-2.5296,0.0,0.0,-2.3179,-2.2893,-2.2793,-2.2484,-2.2564,-2.2889,-2.288,-2.2444,-2.2007,-2.2007,-2.1564,-2.0971,-2.0248,-2.0031,-1.977,-1.9044,-1.8911,-1.8566,-1.7472,-1.7276,-1.6941,-1.6,-1.5805,-1.5805,-1.5805,-1.5805,-1.5805,-1.5805,-1.5805,-1.5805,-1.5805,-1.5805,0.0,-1.5805,-1.5805,-1.5651,-1.53,-1.5283,-1.5137,-1.4829,-1.5112,-1.5283,-1.5283,-1.5625,-1.5805,-1.5805,-1.5797,-1.5797,-1.585,-1.5297,-1.5107,0.0,0.0,0.0,0.0,0.0,0.0,0.0,0.0,0.0,0.0,0.0,0.0,0.0,0.0,0.0,-3.1205,-3.186,-3.235,-3.2831,-3.1922,-3.1376,-3.177,-3.1662,-3.1189,-3.0343,-3.0075,-3.0343,-3.1254,-3.1031,-3.1267,-3.2074,-3.2074,-3.1709,-3.0895,-3.1044,-3.0846,-3.0216,-3.0228,-3.0228,-3.0228,-3.0075,0.0,-2.9998,-3.0075,-3.0228,-3.0444,-3.0609,-3.0849,-3.0986,-3.0986,-2.9841,-2.8111,-2.8228,-2.7687,-2.6797,-2.6107,-2.566,-2.5271,-2.4567,-2.3979,-2.3506,-2.3374,-2.3074,-2.2808,-2.3098,-2.2995,0.0,-2.3672,-2.3236,-2.2536,-2.2536,-2.1733,-2.0787,-2.026,-1.9639,-1.9044,-1.8365,-1.8162,-1.7833,-1.6751,-1.6542,-1.6342,-1.5867,-1.5805,-1.5805,-1.5805,-1.5805,-1.5805,-1.5805,-1.5805,-1.5805,-1.5805,-1.5805,-1.5805,-1.5805,-1.5805,-1.5771,-1.5694,-1.5685,-1.5651,-1.5591,-1.5651,-1.5685,-1.5685,-1.5762,-1.5805,-1.5805,-1.5929,-1.607,-1.6061,-1.5913,-1.5913,0.0,0.0,0.0,0.0,0.0,0.0,0.0,0.0,0.0,0.0,0.0,-2.9813,0.0,0.0,-3.2307,-3.2695,-3.2901,-3.3205,-3.37,-3.3018,-3.2307,-3.2189,-3.1319,-3.0766,-3.0766,-3.0163,-3.0292,-3.1415,-3.0771,-3.0696,-3.1489,-3.1145,-3.0784,-3.0343,-3.0343,-3.0203,-2.9792,-2.9792,-2.9792,-2.9792,-2.9792,-2.9792,-2.9792,-3.0075,-3.0292,-3.0444,-3.0685,-3.0911,-3.0986,-3.0672,-2.9467,-2.7915,-2.7943,-2.7072,-2.5791,-2.5241,-2.5003,-2.4939,-2.4385,-2.3837,-2.3432,-2.3421,-2.327,-2.311,-2.3292,-2.327,-2.3167,-2.3672,-2.3087,-2.2227,-2.188,-2.1273,-2.0539,-1.9573,-1.9219,-1.8834,-1.7922,-1.7745,-1.7469,-1.6517,-1.6272,-1.6202,-1.5876,-1.5805,-1.5805,-1.5805,-1.5805,-1.5805,-1.5805,-1.5805,-1.5805,-1.5805,-1.5805,-1.5805,-1.5805,-1.5805,-1.5805,-1.5805,-1.5805,-1.5805,-1.5805,-1.5805,-1.5805,-1.5805,-1.5805,-1.5805,-1.5805,-1.5938,-1.5929,-1.5929,-1.6061,-1.6202,0.0,0.0,0.0,0.0,0.0,0.0,0.0,0.0,-2.8095,-2.9709,-3.0848,-3.1653,-3.1825,-3.2984,-3.3914,-3.3842,-3.3781,-3.3904,-3.4402,-3.3462,-3.2693,-3.252,-3.108,-3.0403,-3.128,-3.0406,-3.0355,-3.1783,-3.057,-3.0139,-3.0895,-3.0203,-2.9792,-2.9792,-2.9792,-2.9792,-2.9792,-2.9792,-2.9792,-2.9792,-2.9792,-2.9792,-2.9869,-3.0228,-3.0444,-3.0444,-3.0823,-3.0986,-3.0986,-3.0279,-2.9263,-2.801,-2.7494,-2.6299,-2.4802,-2.4467,-2.4527,-2.4802,-2.4334,-2.3936,-2.3592,-2.3592,-2.3592,-2.3569,-2.3406,-2.3372,-2.3349,-2.3106,-2.2491,-2.1778,-2.097,-2.0662,-2.0222,-1.8982,-1.8879,-1.8734,-1.7833,-1.755,-1.7251,-1.659,-1.6325,-1.6202,-1.5876,-1.5805,-1.5805,-1.5805,-1.5805,-1.5805,-1.5805,-1.5805,-1.5805,-1.5805,-1.5805,-1.5805,-1.5805,-1.5805,-1.5805,-1.5805,-1.5805,-1.5805,-1.5805,-1.5805,-1.5805,-1.5805,-1.5805,-1.5805,-1.5805,-1.5867,-1.5867,-1.5867,-1.6061,-1.6342,-2.674,-2.6175,-2.65,-2.8575,-2.8049,-2.7687,0.0,0.0,-3.0185,-3.166,-3.2154,-3.2624,-3.3671,-3.3826,-3.3829,-3.4151,-3.397,-3.3636,-3.3556,-3.2453,-3.1712,-3.216,-3.1669,-3.0939,-3.011,-2.9894,-3.0139,-3.097,-3.0279,-3.0139,-3.0895,-3.0203,-2.9792,-2.9792,-2.9792,-2.9792,-2.9792,-2.9792,-2.9792,-2.9792,-2.9792,-2.9869,-3.0075,-3.0292,-3.0533,-3.0698,-3.0911,-3.0986,-3.0986,-3.0279,-2.905,-2.7594,-2.6974,-2.5722,-2.4334,-2.4743,-2.4671,-2.4261,-2.4189,-2.4154,-2.4108,-2.4108,-2.4108,-2.4028,-2.3509,-2.3372,-2.3199,-2.2107,-2.1985,-2.1903,-2.0765,-2.0236,-1.9851,-1.9277,-1.8663,-1.8184,-1.8064,-1.7761,-1.7414,-1.7018,-1.659,-1.6202,-1.5876,-1.5805,-1.5805,-1.5805,-1.5805,-1.5805,-1.5805,-1.5805,-1.5805,-1.5805,-1.5805,-1.5805,-1.5805,-1.5805,-1.5805,-1.5805,-1.5805,-1.5805,-1.5805,-1.5805,-1.5805,-1.5805,-1.5805,-1.5805,-1.5805,-1.6,-1.6061,-1.6061,-1.6403,-1.6403,-2.7003,-2.7193,0.0,0.0,-2.9369,-2.9992,-3.1485,-3.1944,-3.229,-3.2985,-3.3898,-3.4548,-3.4506,-3.4739,-3.4687,0.0,-3.3882,-3.3526,-3.3038,-3.2331,-3.1599,-3.0884,-3.0884,-3.0771,-3.0319,-2.998,-2.9934,-3.0203,-2.9998,-2.9934,-3.0203,-3.0011,-2.9792,-2.9792,-2.9792,-2.9792,-2.9792,-2.9792,-2.9792,-2.9792,-2.9792,-2.9934,-3.0075,-3.0292,-3.0596,-3.0836,-3.052,-3.019,-2.9871,-2.9184,-2.83,-2.7309,-2.6387,-2.5669,-2.5004,-2.4687,-2.4394,-2.42,-2.42,-2.42,-2.42,-2.42,-2.42,-2.4154,-2.3948,-2.3304,-2.2573,-2.2078,-2.1521,-2.0833,-1.9939,-1.9782,-1.9694,-1.9089,-1.8861,-1.8742,-1.8513,-1.8146,-1.7642,-1.7126,-1.6617,-1.6202,-1.5876,-1.5805,-1.5805,-1.5805,-1.5805,-1.5805,-1.5805,-1.5805,-1.5805,-1.5805,-1.5805,-1.5805,-1.5805,-1.5805,-1.5805,-1.5805,-1.5805,-1.5805,-1.5805,-1.5805,-1.5805,-1.5805,-1.5805,-1.5805,-1.5805,-1.5867,-1.5938,-1.5929,-1.6202,-1.6202,-2.7258,0.0,0.0,-2.9723,-3.0742,-3.1861,-3.2975,-3.3765,-3.4388,-3.4529,-3.5311,-3.5745,-3.4893,-3.4846,-3.4553,-3.3693,-3.3489,-3.3219,-3.2409,-3.1946,-3.1273,-2.9955,-2.9867,-2.9993,-3.0131,-2.993,-2.9792,-2.9792,-2.9792,-2.9792,-2.9792,-2.9792,-2.9792,-2.9792,-2.9792,-2.9792,-2.9792,-2.9792,-2.9792,-2.9792,-2.9792,-2.9934,-3.0228,-3.0292,-3.0432,-3.0672,-3.0037,-2.9484,-2.9081,-2.8486,-2.7761,-2.6978,-2.6219,-2.567,-2.5222,-2.4613,-2.4315,-2.42,-2.42,-2.42,-2.42,-2.42,-2.42,-2.4093,-2.38,-2.2978,-2.2071,-2.1498,-2.0721,-1.9915,-1.9213,-1.9381,-1.9545,-1.9025,-1.9091,-1.9219,-1.8935,-1.8476,-1.7888,-1.7304,-1.6697,-1.6202,-1.5876,-1.5805,-1.5805,-1.5805,-1.5805,-1.5805,-1.5805,-1.5805,-1.5805,-1.5805,-1.5805,-1.5805,-1.5805,-1.5805,-1.5805,-1.5805,-1.5805,-1.5805,-1.5805,-1.5805,-1.5805,-1.5805,-1.5805,-1.5797,-1.5867,-1.5867,-1.5867,-1.5938,-1.6132,-1.6272,-2.7626,0.0,-2.8976,-3.1971,-3.2621,-3.3051,-3.547,-3.6171,-3.6442,-3.6387,-3.6022,-3.5546,-3.4896,-3.3727,-3.2671,-3.2217,-3.2598,-3.2574,-3.1581,-3.0984,-3.0444,-2.9867,-2.8837,-2.8398,-2.8925,-2.9478,-2.9792,-2.9792,-2.9792,-2.9792,-2.9792,-2.9792,-2.9792,-2.9792,-2.9792,-2.9792,-2.9792,-2.9792,-2.9792,-2.9792,-2.9792,-3.0011,-3.0368,-3.0114,-3.0037,-3.0037,-2.9394,-2.9081,-2.9081,-2.8486,-2.7561,-2.6593,-2.6479,-2.5543,-2.4292,-2.4728,-2.4602,-2.42,-2.42,-2.42,-2.42,-2.42,-2.42,-2.3952,-2.2639,-2.2248,-2.1779,-1.9823,-1.9561,-1.9647,-1.8917,-1.8981,-1.9283,-1.9283,-1.9292,-1.9292,-1.9283,-1.8678,-1.797,-1.7671,-1.6883,-1.6202,-1.5876,-1.5805,-1.5805,-1.5805,-1.5805,-1.5805,-1.5805,-1.5805,-1.5805,-1.5805,-1.5805,-1.5805,-1.5805,-1.5805,-1.5805,-1.5805,-1.5805,-1.5805,-1.5805,-1.5805,-1.5805,-1.5805,-1.5805,-1.5867,-1.6061,-1.6061,-1.6132,-1.6272,-1.6473,-1.6603,-2.7935,0.0,-3.2117,-3.3718,-3.5134,-3.6632,-3.8144,-3.8445,-3.8017,-3.6907,-3.6323,-3.5503,-3.3764,-3.2818,-3.2186,-3.2187,-3.2277,-3.1975,-3.1175,-3.109,-3.0599,-2.9074,-2.9063,0.0,0.0,-2.8888,-2.9377,-2.9767,-2.9792,-2.9792,-2.9792,-2.9792,-2.9792,-2.9792,-2.9792,-2.9792,-2.9792,-2.9792,-2.9792,-2.9792,-2.9378,-2.9677,-3.0533,-2.9471,-2.9195,-2.9504,-2.879,-2.8282,-2.7957,-2.734,-2.6825,-2.6453,-2.5712,-2.5119,-2.4659,-2.4499,-2.4338,-2.42,-2.42,-2.42,-2.42,-2.42,-2.42,-2.4009,-2.3014,-2.2359,-2.1647,-2.045,-1.9755,-1.9403,-1.9178,-1.9201,-1.9301,-1.9301,-1.9301,-1.9301,-1.9301,-1.8889,-1.8364,-1.7866,-1.7242,-1.6581,-1.6114,-1.5867,-1.5805,-1.5805,-1.5805,-1.5805,-1.5805,-1.5805,-1.5805,-1.5805,-1.5805,-1.5805,-1.5805,-1.5805,-1.5805,-1.5805,-1.5805,-1.5805,-1.5805,-1.5805,-1.5867,-1.6,-1.6,-1.607,-1.6202,-1.6202,-1.6272,-1.6272,-1.6542,-1.6603,-2.9757,-3.2075,-3.4423,-3.5823,-3.7178,-3.8503,-3.948,-3.9158,-3.81,-3.6356,-3.5334,-3.414,-3.2169,-3.12,-3.0868,-3.1356,-3.1504,-3.1383,-3.0854,-3.0971,-3.0497,-2.8845,-2.9074,-2.9051,0.0,0.0,0.0,-2.9741,-2.998,-3.0093,-3.0093,-3.0093,-3.0093,-3.0093,-2.9892,-2.9792,-2.9792,-2.9792,-2.9792,-2.9792,-2.9443,-2.9599,-3.0216,-2.9081,-2.8553,-2.8611,-2.7896,-2.7293,-2.6745,-2.6551,-2.6244,-2.5876,-2.5589,-2.5142,-2.4636,-2.4499,-2.4349,-2.42,-2.42,-2.42,-2.4116,-2.3897,-2.3751,-2.3593,-2.2456,-2.1766,-2.1145,-2.0304,-1.9687,-1.9338,-1.9485,-1.9421,-1.9338,-1.9494,-1.9412,-1.9301,-1.9301,-1.899,-1.8556,-1.8131,-1.762,-1.7133,-1.674,-1.6375,-1.6031,-1.5822,-1.5805,-1.5805,-1.5805,-1.5805,-1.5805,-1.5805,-1.5805,-1.5805,-1.5805,-1.5805,-1.5805,-1.5805,-1.5805,-1.5805,-1.5805,-1.5805,-1.5867,-1.6132,-1.6,-1.6132,-1.6412,-1.6342,-1.6342,-1.6412,-1.6542,-1.6542,-3.2826,-3.4482,-3.5986,-3.8313,-3.867,-3.8655,-3.9438,-3.8379,-3.6701,-3.501,-3.3207,-3.1558,0.0,0.0,-2.8697,-2.9803,-3.0392,-3.0722,-3.0546,-3.05,-3.0236,0.0,0.0,0.0,0.0,0.0,0.0,-2.9829,-3.0331,-3.062,-3.062,-3.062,-3.062,-3.062,-3.008,-2.9792,-2.9792,-2.9792,-2.9792,-2.9792,-2.9934,-2.9754,-2.9419,-2.8949,-2.8174,-2.7359,-2.6767,-2.6163,-2.5716,-2.6221,-2.583,-2.5015,-2.6003,-2.5486,-2.4246,-2.4705,-2.459,-2.4116,-2.4116,-2.4116,-2.4043,-2.3224,-2.3001,-2.2617,-2.1001,-2.0459,-2.0304,-1.9539,-1.9301,-1.9402,-1.9824,-1.9632,-1.9439,-1.9861,-1.9641,-1.9329,-1.9329,-1.9017,-1.8656,-1.8466,-1.8073,-1.7737,-1.7614,-1.7063,-1.6468,-1.5882,-1.5814,-1.5805,-1.5805,-1.5805,-1.5805,-1.5805,-1.5805,-1.5805,-1.5805,-1.5805,-1.5805,-1.5805,-1.5805,-1.5805,-1.5805,-1.5805,-1.5867,-1.6132,-1.5929,-1.607,-1.6603,-1.6412,-1.6403,-1.6603,-1.6603,-1.6473,-3.4197,-3.6338,-3.8187,-3.9269,-3.9214,-3.8946,-3.9074,-3.7167,-3.492,-3.3317,-3.1584,-3.0067,0.0,0.0,0.0,-2.9738,-3.0051,0.0,-3.1146,-3.0984,0.0,-3.0688,0.0,-3.0108,-3.0168,-3.0181,0.0,-3.0947,-3.0758,-3.062,-3.062,-3.062,-3.062,-3.062,-3.008,-2.9792,-2.9792,-2.9792,-2.9869,-3.0011,-2.8949,-2.8846,-2.9549,-2.7891,-2.7011,-2.68,-2.6604,-2.5957,-2.5164,-2.5681,-2.5509,-2.4946,-2.521,-2.4855,-2.4212,-2.4326,-2.3926,-2.3298,-2.3298,-2.3298,-2.3298,-2.3075,-2.2617,-2.1918,-2.0847,-2.0459,-2.0304,-1.9539,-1.9301,-1.9402,-1.9824,-1.9852,-1.987,-2.0273,-2.0063,-1.9769,-1.9769,-1.9448,-1.9063,-1.8683,-1.8082,-1.7521,-1.7362,-1.6824,-1.6392,-1.6216,-1.5968,-1.5805,-1.5805,-1.5805,-1.5805,-1.5805,-1.5805,-1.5805,-1.5805,-1.5805,-1.5805,-1.5805,-1.5805,-1.5805,-1.5805,-1.5805,-1.5867,-1.6132,-1.6061,-1.6132,-1.6412,-1.6342,-1.6342,-1.6412,-1.6412,-1.6342,-3.6374,-3.8004,-3.9423,-4.0027,-3.941,-3.8588,-3.8375,-3.6003,-3.3359,-3.1734,-2.9889,0.0,-2.7822,-2.7252,0.0,0.0,0.0,0.0,-3.085,-3.1104,-3.1216,0.0,-3.1128,0.0,-3.0959,-3.0947,-3.1085,-3.1361,-3.1122,-3.106,-3.1311,-3.1311,-3.121,-3.0959,-3.0432,-3.0043,-2.9792,-2.9792,-2.9702,-2.9431,-2.8712,-2.8462,-2.8609,-2.7592,-2.6921,-2.6558,-2.6251,-2.5807,-2.5268,-2.5337,-2.5187,-2.4912,-2.4912,-2.4391,-2.3666,-2.3666,-2.3139,-2.2456,-2.2456,-2.2231,-2.1918,-2.1918,-2.1614,-2.1078,-2.0226,-2.0001,-1.9844,-1.946,-1.9301,-1.9402,-1.9824,-1.9797,-1.976,-2.0163,-1.9952,-1.965,-1.965,-1.9467,-1.9237,-1.8861,-1.8488,-1.7973,-1.7567,-1.7214,-1.694,-1.6619,-1.6422,-1.6293,-1.6293,-1.6002,-1.5805,-1.5805,-1.5805,-1.5805,-1.5805,-1.5805,-1.5805,-1.5805,-1.5805,-1.5805,-1.5805,-1.5805,-1.5867,-1.6132,-1.6,-1.607,-1.6272,-1.6272,-1.6202,-1.6202,-1.6202,-1.614,-3.8605,-3.9437,-4.0013,-4.0463,-3.9229,-3.7838,-3.7331,-3.4615,-3.1819,-3.0262,0.0,-2.6674,-2.6681,-2.629,-2.6525,-2.8327,0.0,-2.9632,-3.04,-3.1082,-3.1514,-3.1434,-3.1627,-3.1713,-3.1682,-3.1549,-3.1524,-3.1682,-3.1549,-3.1712,-3.219,-3.2215,-3.1926,-3.1298,-3.0846,-3.0265,-2.9636,-2.9714,-2.93,-2.8383,-2.8803,-2.8407,-2.7267,-2.7626,-2.7358,-2.6439,-2.6003,-2.5773,-2.5681,-2.5279,-2.5038,-2.4923,-2.4831,-2.4074,-2.3001,-2.2841,-2.2306,-2.1614,-2.1614,-2.1068,-2.0382,-2.0459,-2.0459,-2.0235,-1.9539,-1.9301,-1.9301,-1.9301,-1.9347,-1.9467,-1.9833,-1.9696,-1.9558,-1.9925,-1.9687,-1.9402,-1.9448,-1.9421,-1.9286,-1.9082,-1.9002,-1.8735,-1.8013,-1.783,-1.7605,-1.7038,-1.6953,-1.6918,-1.6918,-1.6353,-1.5951,-1.5951,-1.5951,-1.5951,-1.5951,-1.5951,-1.5951,-1.5951,-1.5908,-1.5874,-1.5874,-1.5831,-1.5867,-1.607,-1.5867,-1.5938,-1.6202,-1.614,-1.607,-1.607,-1.607,-1.6,-3.9395,-4.0069,-4.0449,-4.0041,-3.858,-3.6872,-3.544,-3.2361,0.0,0.0,-2.6983,-2.5868,-2.6601,-2.6581,-2.7131,-2.8907,0.0,0.0,0.0,0.0,-3.1589,0.0,0.0,-3.2336,-3.2971,-3.2424,0.0,-3.2984,-3.2424,-3.2114,-3.2202,-3.2215,-3.1763,-3.0783,-3.0658,-3.0015,-2.8724,-2.9456,-2.9209,-2.7971,-2.8407,-2.8351,-2.78,-2.7476,-2.7025,-2.6462,-2.637,-2.6094,-2.5739,-2.606,-2.5693,-2.4883,-2.4669,-2.3908,-2.2927,-2.2231,-2.1451,-2.0692,-2.0692,-2.0148,-1.9608,-2.0313,-2.0079,-1.945,-1.9301,-1.9301,-1.9301,-1.9301,-1.9549,-1.9833,-1.9907,-2.0118,-2.0328,-2.0402,-2.0118,-1.9916,-2.0237,-2.0053,-1.9714,-1.9295,-1.9002,-1.8674,-1.8612,-1.8005,-1.7527,-1.7381,-1.7115,-1.6918,-1.6918,-1.6807,-1.6721,-1.6721,-1.6721,-1.6721,-1.6721,-1.6721,-1.6721,-1.6721,-1.6422,-1.6242,-1.6251,-1.5959,-1.5805,-1.5867,-1.5805,-1.5797,-1.5867,-1.5867,-1.5867,-1.5867,-1.5867,-1.5797,-4.0171,-4.0547,-4.0703,-4.0013,-3.8197,-3.6079,-3.4329,0.0,0.0,0.0,-2.6136,-2.5635,-2.6136,0.0,0.0,0.0,0.0,0.0,0.0,0.0,0.0,0.0,0.0,0.0,0.0,-3.3145,-3.3022,-3.3373,-3.2988,-3.2667,-3.2667,-3.2102,-3.1549,-3.1035,-3.0482,-2.9886,-2.9209,-2.9378,-2.8882,-2.7799,-2.8087,-2.7869,-2.7208,-2.7219,-2.7093,-2.6852,-2.6588,-2.6485,-2.6462,-2.5888,-2.5279,-2.4646,-2.4007,-2.2928,-2.1614,-2.1308,-2.0615,-1.9844,-1.9844,-1.9608,-1.9381,-1.9766,-1.9608,-1.9347,-1.9567,-1.9476,-1.9347,-1.9567,-1.9769,-1.9934,-1.9934,-2.0072,-2.0218,-2.0218,-2.0072,-1.998,-2.0173,-2.0063,-1.9788,-1.9488,-1.9066,-1.87,-1.8531,-1.8125,-1.7766,-1.7766,-1.7612,-1.7501,-1.7501,-1.7501,-1.7355,-1.6961,-1.6918,-1.6918,-1.6918,-1.6918,-1.6918,-1.6918,-1.6747,-1.6636,-1.6644,-1.6473,-1.6293,-1.6088,-1.6088,-1.5994,-1.5805,-1.5805,-1.5805,-1.5805,-1.5805,-1.5908,-4.0626,-4.09,-4.0884,-4.0217,-3.809,-3.5702,-3.3903,-3.0765,0.0,0.0,-2.6316,-2.6109,-2.6275,0.0,-2.7495,0.0,-2.8085,0.0,0.0,0.0,0.0,0.0,0.0,0.0,-3.3495,-3.3492,0.0,-3.3305,-3.325,-3.324,-3.3154,-3.2114,-3.1512,-3.148,-3.047,-2.9749,-2.9221,-2.9131,-2.8554,-2.7406,-2.7708,-2.7464,-2.6704,-2.7056,-2.7231,-2.7208,-2.6806,-2.6852,-2.7139,-2.5911,-2.5036,-2.4401,-2.3438,-2.2018,-2.0459,-2.0304,-1.9844,-1.9301,-1.9301,-1.9301,-1.9301,-1.9301,-1.9301,-1.9366,-1.9696,-1.9567,-1.9366,-1.9705,-1.9861,-1.9934,-1.9934,-1.9934,-1.9907,-1.9815,-1.9934,-2.0008,-1.9833,-1.9934,-1.9916,-1.9571,-1.9057,-1.862,-1.8523,-1.8201,-1.804,-1.804,-1.804,-1.804,-1.804,-1.804,-1.7817,-1.7218,-1.7158,-1.7158,-1.7158,-1.7158,-1.7158,-1.7158,-1.7081,-1.7038,-1.7038,-1.6961,-1.6781,-1.6482,-1.6473,-1.6293,-1.5917,-1.5917,-1.5874,-1.5805,-1.5882,-1.6071,-4.0632,-4.1151,-4.1106,-4.0715,-3.8559,-3.6152,-3.4456,0.0,0.0,-2.8927,-2.8346,-2.7968,-2.7878,-2.7959,-2.8053,-2.8271,0.0,-2.8695,0.0,0.0,0.0,0.0,0.0,0.0,-3.2957,-3.3263,-3.3267,-3.2995,-3.3347,-3.3556,-3.3398,-3.2563,-3.1996,-3.1749,-3.0926,-2.9542,-2.7395,-2.8474,-2.8075,-2.6063,-2.7301,-2.7638,-2.7149,-2.7149,-2.7231,-2.7231,-2.7174,-2.7185,-2.7219,-2.7082,-2.5994,-2.4388,-2.3589,-2.2097,-2.0382,-1.9687,-1.9381,-1.9301,-1.9301,-1.9301,-1.9301,-1.9301,-1.9301,-1.9311,-1.9347,-1.9329,-1.9311,-1.9347,-1.9641,-1.9934,-1.9934,-1.9934,-1.9833,-1.9448,-1.9925,-2.0264,-1.9522,-1.9943,-2.0246,-1.9503,-1.9029,-1.87,-1.87,-1.8282,-1.804,-1.804,-1.804,-1.804,-1.804,-1.804,-1.7934,-1.7937,-1.7937,-1.7937,-1.7937,-1.7937,-1.7937,-1.7937,-1.7612,-1.7415,-1.7415,-1.7098,-1.691,-1.6867,-1.6867,-1.6679,-1.6285,-1.6293,-1.6131,-1.5814,-1.6148,-1.631,-4.0035,-4.092,-4.1047,-3.9799,-3.7811,-3.5654,-3.3849,0.0,-2.9058,-2.8559,-2.8194,-2.8028,-2.816,-2.8278,-2.8395,-2.8478,-2.8119,0.0,0.0,0.0,0.0,0.0,0.0,0.0,0.0,0.0,-3.2859,-3.2893,-3.2777,-3.2772,-3.3117,-3.1834,-3.0943,-3.0468,-2.9708,-2.8759,-2.7557,-2.8315,-2.8179,-2.7149,-2.7394,-2.7394,-2.7231,-2.7231,-2.7231,-2.7231,-2.7231,-2.7231,-2.7103,-2.605,-2.484,-2.3621,-2.2196,-2.084,-1.9766,-1.946,-1.9301,-1.9301,-1.9301,-1.9301,-1.9301,-1.9301,-1.9301,-1.9347,-1.9604,-1.9503,-1.9356,-1.9613,-1.9797,-1.9934,-1.9934,-2.0108,-2.0118,-1.9457,-2.0108,-2.0649,-1.9852,-2.0118,-2.0356,-1.9787,-1.9245,-1.8851,-1.87,-1.8442,-1.8201,-1.804,-1.804,-1.804,-1.804,-1.804,-1.804,-1.804,-1.804,-1.804,-1.804,-1.804,-1.804,-1.804,-1.7894,-1.7809,-1.7809,-1.7672,-1.7483,-1.7252,-1.7252,-1.7064,-1.6687,-1.6687,-1.6619,-1.6482,-1.6627,-1.6807,-3.8677,-3.9886,-4.0266,-3.9005,-3.701,-3.5059,0.0,0.0,-2.892,-2.8915,-2.8568,-2.845,-2.8834,-2.8719,-2.8587,-2.861,-2.7973,-2.7786,-2.8499,0.0,0.0,0.0,0.0,-3.1291,0.0,-3.2577,-3.2272,-3.2689,-3.238,-3.2056,-3.1852,-3.0655,-3.0028,-2.9985,-2.8887,-2.8131,-2.7799,-2.8167,-2.803,-2.7464,-2.7313,-2.7231,-2.7231,-2.7231,-2.7231,-2.7231,-2.7231,-2.7056,-2.6637,-2.5278,-2.3972,-2.2727,-2.1332,-2.0184,-1.9301,-1.9301,-1.9301,-1.9301,-1.9301,-1.9301,-1.9301,-1.9301,-1.9301,-1.9356,-1.965,-1.954,-1.9366,-1.9659,-1.9833,-1.9934,-1.9934,-2.0228,-2.0374,-1.9797,-2.031,-2.075,-2.0072,-2.0145,-2.0228,-1.9824,-1.9272,-1.8851,-1.8692,-1.8451,-1.8201,-1.804,-1.804,-1.804,-1.804,-1.804,-1.804,-1.804,-1.804,-1.804,-1.804,-1.804,-1.804,-1.804,-1.804,-1.804,-1.804,-1.804,-1.7912,-1.7646,-1.7638,-1.7449,-1.7081,-1.7081,-1.703,-1.6927,-1.703,-1.7218,-3.6629,-3.7935,-3.8542,-3.8523,-3.6523,-3.4403,0.0,-3.1664,-2.9909,-3.0792,-3.0089,-2.9549,-3.0334,-2.9435,-2.8638,-2.8803,-2.8105,-2.7853,-2.8946,0.0,0.0,0.0,0.0,-3.0299,-3.0685,-3.1203,-3.1742,-3.2294,-3.2367,-3.147,-2.9407,-2.915,-2.9582,-3.0833,-2.8887,-2.7799,-2.7799,-2.7857,-2.7464,-2.6528,-2.6974,-2.7231,-2.7231,-2.7231,-2.7231,-2.7231,-2.7231,-2.6704,-2.5786,-2.5387,-2.3864,-2.1879,-2.1418,-2.0521,-1.9301,-1.9301,-1.9301,-1.9301,-1.9301,-1.9301,-1.9301,-1.9301,-1.9301,-1.9301,-1.9301,-1.9301,-1.9301,-1.9311,-1.9613,-1.9934,-1.9934,-2.0228,-2.0521,-2.0512,-2.0512,-2.042,-2.0017,-1.9934,-1.9815,-1.9393,-1.9002,-1.87,-1.87,-1.829,-1.804,-1.804,-1.804,-1.804,-1.804,-1.804,-1.804,-1.804,-1.804,-1.804,-1.804,-1.804,-1.804,-1.804,-1.804,-1.804,-1.804,-1.804,-1.804,-1.7951,-1.7951,-1.7843,-1.7466,-1.7466,-1.7278,-1.6927,-1.7295,-1.7466,-3.4079,-3.5146,-3.5658,-3.4622,-3.3517,-3.2477,-3.1902,-3.057,-2.9605,-3.0038,-2.954,-2.9373,-3.0347,-2.9291,-2.8726,-2.9968,-2.8496,-2.7588,0.0,0.0,0.0,0.0,0.0,-3.164,0.0,0.0,-3.1747,-3.1952,-3.1617,-3.1061,-3.0214,-2.9205,-2.8277,-2.7615,-2.7487,-2.7092,-2.6539,-2.7464,-2.7557,-2.6974,-2.7138,-2.7231,-2.7219,-2.6864,-2.6898,-2.7103,-2.5902,-2.5378,-2.5202,-2.3335,-2.2141,-2.1428,-2.0362,-1.965,-1.9301,-1.9301,-1.9301,-1.9301,-1.9301,-1.9301,-1.9301,-1.9301,-1.9301,-1.9301,-1.9301,-1.9301,-1.9301,-1.9301,-1.9393,-1.9567,-1.9861,-2.0228,-2.0521,-2.0521,-2.0723,-2.0741,-2.0072,-1.9934,-1.9724,-1.9234,-1.9002,-1.8851,-1.8523,-1.8362,-1.8193,-1.804,-1.804,-1.804,-1.804,-1.804,-1.804,-1.804,-1.804,-1.804,-1.804,-1.804,-1.804,-1.804,-1.804,-1.804,-1.804,-1.804,-1.804,-1.804,-1.804,-1.798,-1.786,-1.786,-1.78,-1.7689,-1.78,-1.7723,0.0,-3.2817,-3.3234,-3.2213,-3.1622,0.0,0.0,-2.9687,-2.9189,-2.9848,-2.9286,-2.899,-3.0028,-2.9145,-2.8666,-3.0029,-2.8685,-2.782,0.0,0.0,0.0,0.0,0.0,0.0,0.0,-3.1313,-3.137,-3.111,-3.0996,-3.0356,-2.9093,-2.871,-2.7799,-2.6102,-2.661,-2.6869,-2.6644,-2.7313,-2.7476,-2.7231,-2.7231,-2.7231,-2.7208,-2.6703,-2.6634,-2.6806,-2.5238,-2.4483,0.0,-2.2181,-2.1102,-2.0661,-1.9696,-1.9301,-1.9301,-1.9301,-1.9301,-1.9301,-1.9301,-1.9301,-1.9301,-1.9301,-1.9301,-1.9301,-1.9301,-1.9301,-1.9301,-1.9301,-1.9421,-1.9632,-2.0044,-2.0438,-2.0741,-2.0741,-2.0934,-2.0897,-2.0099,-1.9934,-1.9724,-1.9234,-1.9002,-1.8772,-1.8523,-1.8362,-1.8193,-1.804,-1.804,-1.804,-1.804,-1.804,-1.804,-1.804,-1.804,-1.804,-1.804,-1.804,-1.804,-1.804,-1.804,-1.804,-1.804,-1.804,-1.804,-1.804,-1.804,-1.804,-1.804,-1.804,-1.804,-1.804,-1.804,-1.7912,0.0,-3.0851,0.0,0.0,0.0,0.0,0.0,-2.8987,0.0,-3.0027,-2.9109,-2.8492,-2.9644,-2.8958,-2.8559,-2.9391,-2.8754,0.0,0.0,0.0,0.0,0.0,-2.9849,0.0,-3.0882,-3.096,-3.0739,-3.0152,-3.0431,-2.9574,-2.6846,-2.8063,-2.7914,-2.6063,-2.6373,-2.6951,-2.78,-2.7394,-2.7231,-2.7231,-2.7231,-2.7208,-2.7162,-2.6645,-2.6416,-2.6381,-2.4925,-2.3838,-2.2948,-2.17,-2.0661,-1.9842,-1.9457,-1.9301,-1.9301,-1.9301,-1.9301,-1.9301,-1.9301,-1.9301,-1.9301,-1.9301,-1.9301,-1.9301,-1.9301,-1.9301,-1.9301,-1.9301,-1.9604,-2.0017,-2.042,-2.0814,-2.1117,-2.1145,-2.1108,-2.0869,-2.0127,-1.9925,-1.9769,-1.9375,-1.9002,-1.87,-1.8692,-1.8282,-1.804,-1.804,-1.804,-1.804,-1.804,-1.804,-1.804,-1.804,-1.804,-1.804,-1.804,-1.804,-1.804,-1.804,-1.804,-1.804,-1.804,-1.804,-1.804,-1.804,-1.804,-1.804,-1.804,-1.804,-1.804,-1.804,-1.804,-1.804,-2.9624,0.0,-2.8576,-2.8525,-2.845,-2.841,0.0,0.0,-2.8488,0.0,0.0,0.0,-3.0029,-2.9506,-2.9474,-3.1246,-3.009,-2.9199,0.0,0.0,0.0,-2.9862,-3.0438,-3.066,-3.0359,-3.0725,-3.0963,-3.079,-3.0838,-3.0203,-2.8597,-2.8846,-2.8383,-2.6974,-2.6974,-2.6962,-2.6869,-2.7056,-2.7231,-2.7231,-2.7231,-2.7024,-2.6634,-2.6117,-2.5888,-2.5764,-2.3448,-2.2516,-2.2494,-2.0543,-1.9678,-1.9439,-1.9338,-1.9301,-1.9301,-1.9301,-1.9301,-1.9301,-1.9301,-1.9301,-1.9301,-1.9301,-1.9301,-1.9301,-1.9301,-1.9301,-1.9301,-1.9301,-1.9604,-2.0017,-2.042,-2.0814,-2.119,-2.1511,-2.1117,-2.0604,-2.042,-1.9888,-1.9341,-1.9091,-1.9002,-1.8843,-1.8523,-1.8362,-1.8282,-1.8031,-1.804,-1.804,-1.804,-1.804,-1.804,-1.804,-1.804,-1.804,-1.804,-1.804,-1.804,-1.804,-1.804,-1.804,-1.804,-1.804,-1.804,-1.804,-1.804,-1.804,-1.804,-1.804,-1.804,-1.804,-1.804,-1.804,-2.9556,-2.895,-2.8369,-2.8255,-2.8334,-2.8317,-2.8008,0.0,0.0,0.0,0.0,0.0,0.0,0.0,0.0,0.0,-3.0075,0.0,0.0,0.0,0.0,-3.0032,-3.0411,-3.0581,-3.0529,-3.0566,-3.0508,-3.0508,-3.0266,-2.9716,-2.87,-2.8712,-2.8247,-2.7231,-2.7231,-2.7056,-2.6798,-2.7056,-2.7116,-2.6887,-2.6887,-2.6611,-2.6106,-2.5589,-2.5348,-2.5226,-2.2831,-2.1901,-2.2041,-2.0087,-1.9301,-1.9301,-1.9301,-1.9301,-1.9301,-1.9301,-1.9301,-1.9301,-1.9301,-1.9301,-1.9301,-1.9301,-1.9301,-1.9301,-1.9301,-1.9301,-1.9301,-1.9301,-1.9604,-1.998,-2.0191,-2.0539,-2.0851,-2.0897,-2.0704,-2.042,-2.0044,-1.9769,-1.9451,-1.9188,-1.9073,-1.8922,-1.8603,-1.8442,-1.8282,-1.804,-1.804,-1.804,-1.804,-1.804,-1.804,-1.804,-1.804,-1.804,-1.804,-1.804,-1.804,-1.804,-1.804,-1.804,-1.804,-1.804,-1.804,-1.804,-1.804,-1.804,-1.804,-1.804,-1.804,-1.804,-1.804,-1.804,-2.9946,-2.9729,-2.9464,-2.9166,-2.9138,-2.9061,0.0,0.0,0.0,0.0,0.0,0.0,0.0,0.0,0.0,0.0,0.0,0.0,0.0,0.0,-2.9026,-3.0019,-3.0215,-3.0424,-3.0817,-3.0304,-3.0037,-3.0114,-2.9397,-2.8736,-2.8207,-2.8056,-2.7658,-2.7105,-2.7036,-2.7036,-2.7116,-2.7116,-2.6852,-2.6347,-2.6347,-2.6083,-2.5578,-2.5119,-2.4791,-2.4476,-2.2616,-2.168,-2.1451,-1.9913,-1.9301,-1.9301,-1.9301,-1.9301,-1.9301,-1.9301,-1.9301,-1.9301,-1.9301,-1.9301,-1.9301,-1.9301,-1.9301,-1.9301,-1.9301,-1.9301,-1.9301,-1.9301,-1.9604,-1.9934,-1.9934,-2.0228,-2.0429,-2.0099,-2.0228,-2.0237,-1.9549,-1.9622,-1.9732,-1.9366,-1.9152,-1.9002,-1.8772,-1.8531,-1.8362,-1.804,-1.804,-1.804,-1.804,-1.804,-1.804,-1.804,-1.804,-1.804,-1.804,-1.804,-1.804,-1.804,-1.804,-1.804,-1.804,-1.804,-1.804,-1.804,-1.804,-1.804,-1.804,-1.804,-1.804,-1.804,-1.804,-1.804,-3.1044,-3.1027,-3.0788,-2.9995,-2.9734,-2.9626,-2.9293,0.0,0.0,0.0,0.0,0.0,0.0,0.0,0.0,0.0,0.0,-3.0541,0.0,0.0,-2.9928,-3.0111,0.0,-3.0699,-3.0307,-3.0074,-3.0279,-3.0823,-2.9353,-2.8405,-2.8252,-2.7356,-2.6806,-2.6645,-2.6175,-2.6152,-2.6577,-2.6588,-2.6324,-2.583,-2.583,-2.5543,-2.5038,-2.4946,-2.431,-2.3249,-2.2252,-2.1385,-2.0615,-1.9687,-1.9301,-1.9301,-1.9301,-1.9301,-1.9301,-1.9301,-1.9301,-1.9301,-1.9301,-1.9301,-1.9301,-1.9301,-1.9301,-1.9301,-1.9301,-1.9301,-1.9301,-1.9301,-1.9604,-1.9934,-1.9934,-2.0228,-2.0503,-2.0438,-2.0218,-1.9989,-1.9861,-1.9604,-1.9375,-1.9311,-1.9301,-1.9152,-1.8772,-1.87,-1.8531,-1.804,-1.804,-1.804,-1.804,-1.804,-1.804,-1.804,-1.804,-1.804,-1.804,-1.804,-1.804,-1.804,-1.804,-1.804,-1.804,-1.804,-1.804,-1.804,-1.804,-1.804,-1.804,-1.804,-1.804,-1.804,-1.804,-1.804,-3.1579,-3.1389,-3.1185,-3.1041,-3.0754,-3.0337,-2.9893,0.0,0.0,0.0,0.0,0.0,0.0,0.0,0.0,0.0,0.0,-3.0335,-3.0134,-2.9868,-2.9784,-3.0098,-3.0359,-3.0542,-3.0594,-2.9681,-2.9505,-3.0442,-2.8235,-2.7172,-2.784,-2.6716,-2.6105,-2.6048,-2.583,-2.5681,-2.5635,-2.5635,-2.5509,-2.5279,-2.5279,-2.5015,-2.4522,-2.4522,-2.4175,-2.3593,-2.2371,-2.1603,-2.1078,-1.9844,-1.9301,-1.9301,-1.9301,-1.9301,-1.9301,-1.9301,-1.9301,-1.9301,-1.9301,-1.9301,-1.9301,-1.9301,-1.9301,-1.9301,-1.9301,-1.9301,-1.9301,-1.9301,-1.9439,-1.9595,-1.9595,-1.9723,-1.9861,-1.9861,-1.9723,-1.9595,-1.9595,-1.9439,-1.9301,-1.9301,-1.9301,-1.9152,-1.8772,-1.87,-1.8531,-1.804,-1.804,-1.804,-1.804,-1.804,-1.804,-1.804,-1.804,-1.804,-1.804,-1.804,-1.804,-1.804,-1.804,-1.804,-1.804,-1.804,-1.804,-1.804,-1.804,-1.804,-1.804,-1.804,-1.804,-1.804,-1.804,-1.804,-3.1948,-3.1617,-3.1336,-3.1672,0.0,-3.1135,-3.0734,0.0,0.0,0.0,0.0,0.0,0.0,0.0,0.0,-3.0021,-3.0201,-3.0211,-2.9918,-2.9633,-2.964,-3.0085,-3.0019,-3.0111,-3.0542,-2.9188,-2.8699,-2.9624,-2.7245,-2.6118,-2.7066,-2.6012,-2.5406,-2.552,-2.5417,-2.521,-2.4912,-2.4797,-2.4751,-2.4751,-2.4751,-2.4556,-2.42,-2.42,-2.397,-2.3582,-2.2371,-2.1603,-2.1145,-1.9835,-1.9301,-1.9301,-1.9301,-1.9301,-1.9301,-1.9301,-1.9301,-1.9301,-1.9301,-1.9301,-1.9301,-1.9301,-1.9301,-1.9301,-1.9301,-1.9301,-1.9301,-1.9301,-1.9301,-1.9301,-1.9301,-1.9301,-1.9301,-1.9301,-1.9301,-1.9301,-1.9301,-1.9301,-1.9301,-1.9301,-1.9301,-1.9152,-1.8851,-1.87,-1.8531,-1.8121,-1.804,-1.804,-1.804,-1.804,-1.804,-1.804,-1.804,-1.804,-1.804,-1.804,-1.804,-1.804,-1.804,-1.804,-1.804,-1.804,-1.804,-1.804,-1.804,-1.804,-1.804,-1.804,-1.804,-1.804,-1.804,-1.804,-3.2231,-3.202,-3.1671,-3.1402,-3.1682,0.0,-3.2128,-3.2574,0.0,-3.1614,0.0,0.0,0.0,-3.0787,-3.1128,-3.1945,-3.1434,-3.1062,-3.1422,-3.0619,-3.0098,-3.0124,-2.9666,-2.9353,-2.9392,-2.8767,-2.8366,-2.8511,-2.6834,-2.5884,-2.6031,-2.4912,-2.451,-2.4958,-2.4545,-2.4499,-2.4912,-2.4464,-2.4246,-2.4246,-2.4246,-2.4235,-2.42,-2.42,-2.3361,-2.1993,-2.1842,-2.0914,-1.946,-1.9381,-1.9301,-1.9301,-1.9301,-1.9301,-1.9301,-1.9301,-1.9301,-1.9301,-1.9301,-1.9301,-1.9301,-1.9301,-1.9301,-1.9301,-1.9301,-1.9301,-1.9301,-1.9301,-1.9301,-1.9301,-1.9301,-1.9301,-1.9301,-1.9301,-1.9301,-1.9301,-1.9301,-1.9301,-1.9301,-1.9301,-1.9301,-1.9231,-1.9002,-1.8851,-1.862,-1.8442,-1.8201,-1.804,-1.804,-1.804,-1.804,-1.804,-1.804,-1.804,-1.804,-1.804,-1.804,-1.804,-1.804,-1.804,-1.804,-1.804,-1.804,-1.804,-1.804,-1.804,-1.804,-1.804,-1.804,-1.804,-1.804,-1.804,-3.2369,-3.1913,-3.1627,-3.1913,0.0,0.0,0.0,-3.2997,-3.3599,-3.2586,-3.2641,0.0,0.0,0.0,-3.0707,-3.1182,-3.055,-3.0133,-3.0428,-2.9934,-2.9601,-2.9601,-2.9405,-2.9119,-2.8749,-2.8214,-2.7713,-2.7341,-2.6045,-2.5313,-2.5313,-2.4644,-2.4281,-2.4464,-2.4292,-2.4281,-2.4464,-2.4292,-2.42,-2.42,-2.42,-2.42,-2.4189,-2.3677,-2.3139,-2.2456,-2.1461,-2.0615,-2.0001,-1.9539,-1.9301,-1.9301,-1.9301,-1.9301,-1.9301,-1.9301,-1.9301,-1.9301,-1.9301,-1.9301,-1.9301,-1.9301,-1.9301,-1.9301,-1.9301,-1.9301,-1.9301,-1.9301,-1.9301,-1.9301,-1.9301,-1.9301,-1.9301,-1.9301,-1.9301,-1.9301,-1.9301,-1.9301,-1.9301,-1.9301,-1.9301,-1.9231,-1.8851,-1.878,-1.8612,-1.8201,-1.804,-1.804,-1.804,-1.804,-1.804,-1.804,-1.804,-1.804,-1.804,-1.804,-1.804,-1.804,-1.804,-1.804,-1.804,-1.804,-1.804,-1.804,-1.804,-1.804,-1.804,-1.804,-1.804,-1.804,-1.804,-1.804,-3.2335,-3.1841,-3.1658,0.0,0.0,0.0,-3.2501,-3.3372,-3.4133,-3.3486,-3.3356,0.0,-3.1883,0.0,0.0,0.0,-2.9955,-2.9511,-2.9787,-2.9385,-2.9,-2.9,-2.8843,-2.8503,-2.7926,-2.7513,-2.6992,-2.6188,-2.5421,-2.4945,-2.4743,-2.4406,-2.42,-2.42,-2.42,-2.42,-2.42,-2.42,-2.42,-2.42,-2.42,-2.4043,-2.3824,-2.3519,-2.2916,-2.2155,-2.1308,-2.0615,-2.0079,-1.9539,-1.9301,-1.9301,-1.9301,-1.9301,-1.9301,-1.9301,-1.9301,-1.9301,-1.9301,-1.9301,-1.9301,-1.9301,-1.9301,-1.9301,-1.9301,-1.9301,-1.9301,-1.9301,-1.9301,-1.9301,-1.9301,-1.9301,-1.9301,-1.9301,-1.9301,-1.9301,-1.9301,-1.9301,-1.9301,-1.9301,-1.9301,-1.9222,-1.8922,-1.8772,-1.862,-1.8282,-1.8121,-1.804,-1.804,-1.804,-1.804,-1.804,-1.804,-1.804,-1.804,-1.804,-1.804,-1.804,-1.804,-1.804,-1.804,-1.804,-1.804,-1.804,-1.804,-1.804,-1.804,-1.804,-1.804,-1.804,-1.804,-1.804,-3.2109,-3.1856,0.0,0.0,0.0,0.0,-3.3156,-3.3762,-3.4414,-3.4324,-3.3808,-3.3012,-3.1917,-3.1321,0.0,-3.0742,-2.9941,-2.9497,-2.9747,-2.9003,-2.8373,-2.8373,-2.7863,-2.7268,-2.6714,-2.6714,-2.622,-2.5075,-2.5004,-2.4731,-2.4261,-2.42,-2.42,-2.42,-2.42,-2.42,-2.42,-2.42,-2.42,-2.42,-2.42,-2.3751,-2.3075,-2.3824,-2.282,-2.0537,-2.1375,-2.0837,-1.9301,-1.9301,-1.9301,-1.9301,-1.9301,-1.9301,-1.9301,-1.9301,-1.9301,-1.9301,-1.9301,-1.9301,-1.9301,-1.9301,-1.9301,-1.9301,-1.9301,-1.9301,-1.9301,-1.9301,-1.9301,-1.9301,-1.9301,-1.9301,-1.9301,-1.9301,-1.9301,-1.9301,-1.9301,-1.9301,-1.9301,-1.9301,-1.9301,-1.9301,-1.9301,-1.9002,-1.87,-1.87,-1.8282,-1.804,-1.804,-1.804,-1.804,-1.804,-1.804,-1.804,-1.804,-1.804,-1.804,-1.804,-1.804,-1.804,-1.804,-1.804,-1.804,-1.804,-1.804,-1.804,-1.804,-1.804,-1.804,-1.804,-1.804,-1.804,-3.2403,0.0,0.0,0.0,0.0,0.0,0.0,-3.4036,0.0,0.0,-3.2967,-3.208,-3.1769,-3.1029,-3.043,-3.0111,-2.9398,-2.8768,-2.8625,-2.8091,-2.7785,-2.7785,-2.7628,-2.7121,-2.622,-2.6508,-2.6082,-2.4539,-2.4814,-2.4731,-2.4261,-2.42,-2.42,-2.42,-2.42,-2.42,-2.42,-2.42,-2.42,-2.42,-2.42,-2.4043,-2.3824,-2.2905,-2.2134,-2.1375,-2.0459,-1.9766,-1.9301,-1.9301,-1.9301,-1.9301,-1.9301,-1.9301,-1.9301,-1.9301,-1.9301,-1.9301,-1.9301,-1.9301,-1.9301,-1.9301,-1.9301,-1.9301,-1.9301,-1.9301,-1.9301,-1.9301,-1.9301,-1.9301,-1.9301,-1.9301,-1.9301,-1.9301,-1.9301,-1.9301,-1.9301,-1.9301,-1.9301,-1.9301,-1.9301,-1.9222,-1.9073,-1.8843,-1.862,-1.8523,-1.8201,-1.804,-1.804,-1.804,-1.804,-1.804,-1.804,-1.804,-1.804,-1.804,-1.804,-1.804,-1.804,-1.804,-1.804,-1.804,-1.804,-1.804,-1.804,-1.804,-1.804,-1.804,-1.804,-1.804,-1.804,-1.804,-3.2092,0.0,0.0,0.0,0.0,0.0,0.0,0.0,0.0,0.0,-3.2598,-3.1968,-3.1482,-3.0792,-3.0068,-2.9449,-2.8894,-2.8457,-2.7934,-2.7669,-2.7523,-2.7523,-2.7323,-2.6837,-2.6,-2.6,-2.5523,-2.4261,-2.4467,-2.4539,-2.4189,-2.42,-2.42,-2.42,-2.42,-2.42,-2.42,-2.42,-2.42,-2.42,-2.42,-2.42,-2.4127,-2.283,-2.1918,-2.1221,-1.9844,-1.9301,-1.9301,-1.9301,-1.9301,-1.9301,-1.9301,-1.9301,-1.9301,-1.9301,-1.9301,-1.9301,-1.9301,-1.9301,-1.9301,-1.9301,-1.9301,-1.9301,-1.9301,-1.9301,-1.9301,-1.9301,-1.9301,-1.9301,-1.9301,-1.9301,-1.9301,-1.9301,-1.9301,-1.9301,-1.9301,-1.9301,-1.9301,-1.9301,-1.9301,-1.9222,-1.9152,-1.8851,-1.8692,-1.8523,-1.8201,-1.804,-1.804,-1.804,-1.804,-1.804,-1.804,-1.804,-1.804,-1.804,-1.804,-1.804,-1.804,-1.804,-1.804,-1.804,-1.804,-1.804,-1.804,-1.804,-1.804,-1.804,-1.804,-1.804,-1.804,-1.804,-3.1439,0.0,0.0,0.0,0.0,0.0,0.0,0.0,-3.3543,-3.2576,0.0,-3.2227,-3.1132,-3.0553,-2.9884,-2.878,-2.8587,-2.8327,-2.759,-2.7523,-2.7523,-2.7523,-2.7053,-2.6508,-2.5931,-2.5358,-2.4802,-2.4261,-2.42,-2.42,-2.42,-2.42,-2.42,-2.42,-2.42,-2.42,-2.42,-2.42,-2.42,-2.42,-2.42,-2.42,-2.42,-2.3298,-2.2004,-2.0391,-1.9608,-1.9301,-1.9301,-1.9301,-1.9301,-1.9301,-1.9301,-1.9301,-1.9301,-1.9301,-1.9301,-1.9301,-1.9301,-1.9301,-1.9301,-1.9301,-1.9301,-1.9301,-1.9301,-1.9301,-1.9301,-1.9301,-1.9301,-1.9301,-1.9301,-1.9301,-1.9301,-1.9301,-1.9301,-1.9301,-1.9301,-1.9301,-1.9301,-1.9301,-1.9301,-1.9301,-1.9301,-1.9002,-1.87,-1.8612,-1.8282,-1.804,-1.804,-1.8066,-1.8083,-1.8083,-1.8126,-1.8143,-1.8143,-1.8143,-1.8143,-1.8143,-1.8143,-1.8126,-1.8091,-1.8057,-1.804,-1.804,-1.804,-1.804,-1.804,-1.804,-1.804,-1.804,-1.804,-1.804,0.0,-3.2293,0.0,0.0,0.0,0.0,0.0,-3.326,-3.2983,-3.2547,-3.1898,-3.1176,-3.0582,-3.0083,-2.9477,-2.8716,-2.8587,-2.8327,-2.759,-2.7523,-2.7523,-2.7523,-2.7053,-2.6508,-2.5931,-2.5358,-2.4802,-2.4261,-2.42,-2.42,-2.42,-2.42,-2.42,-2.42,-2.42,-2.42,-2.42,-2.42,-2.42,-2.42,-2.42,-2.42,-2.4116,-2.2681,-2.1145,-1.9539,-1.9381,-1.9301,-1.9301,-1.9301,-1.9301,-1.9301,-1.9301,-1.9301,-1.9301,-1.9301,-1.9301,-1.9301,-1.9301,-1.9301,-1.9301,-1.9301,-1.9301,-1.9301,-1.9301,-1.9301,-1.9301,-1.9301,-1.9301,-1.9301,-1.9301,-1.9301,-1.9301,-1.9301,-1.9301,-1.9301,-1.9301,-1.9301,-1.9301,-1.9301,-1.9301,-1.9301,-1.9301,-1.9002,-1.8531,-1.8201,-1.804,-1.804,-1.804,-1.8288,-1.8468,-1.8468,-1.8742,-1.893,-1.893,-1.893,-1.893,-1.893,-1.893,-1.8793,-1.8477,-1.8194,-1.804,-1.804,-1.804,-1.804,-1.804,-1.804,-1.804,-1.804,-1.804,-1.804,0.0,0.0,0.0,0.0,0.0,0.0,0.0,-3.3203,-3.2866,-3.1962,-3.1334,-3.0851,-3.0372,-2.9898,-2.9352,-2.8716,-2.8587,-2.8327,-2.759,-2.7523,-2.7523,-2.7523,-2.6769,-2.622,-2.5931,-2.5087,-2.4467,-2.4189,-2.42,-2.42,-2.42,-2.42,-2.42,-2.42,-2.42,-2.42,-2.42,-2.42,-2.42,-2.42,-2.42,-2.3813,-2.3054,-2.222,-2.0914,-1.9301,-1.9301,-1.9301,-1.9301,-1.9301,-1.9301,-1.9301,-1.9301,-1.9301,-1.9301,-1.9301,-1.9301,-1.9301,-1.9301,-1.9301,-1.9301,-1.9301,-1.9301,-1.9301,-1.9301,-1.9301,-1.9301,-1.9301,-1.9301,-1.9301,-1.9301,-1.9301,-1.9301,-1.9301,-1.9301,-1.9301,-1.9301,-1.9301,-1.9301,-1.9301,-1.9301,-1.9301,-1.9143,-1.8843,-1.8451,-1.804,-1.8186,-1.8237,-1.7976,-1.8519,-1.8725,-1.8357,-1.8665,-1.8819,-1.8648,-1.8793,-1.8896,-1.8896,-1.9067,-1.9085,-1.8879,-1.8502,-1.822,-1.7959,-1.804,-1.804,-1.804,-1.804,-1.804,-1.804,-1.804,-1.804,0.0,0.0,0.0,0.0,0.0,0.0,0.0,-3.3309,-3.285,-3.1306,-3.1029,-3.0851,-3.0251,-2.9837,-2.9289,-2.8716,-2.8522,-2.8262,-2.759,-2.7523,-2.7523,-2.7523,-2.6552,-2.5931,-2.5931,-2.4886,-2.42,-2.42,-2.42,-2.42,-2.42,-2.42,-2.42,-2.42,-2.42,-2.42,-2.42,-2.42,-2.42,-2.42,-2.42,-2.3361,-2.1832,-2.1832,-2.0914,-1.9301,-1.9301,-1.9301,-1.9301,-1.9301,-1.9301,-1.9301,-1.9301,-1.9301,-1.9301,-1.9301,-1.9301,-1.9301,-1.9301,-1.9301,-1.9301,-1.9301,-1.9301,-1.9301,-1.9301,-1.9301,-1.9301,-1.9301,-1.9301,-1.9301,-1.9301,-1.9301,-1.9301,-1.9301,-1.9301,-1.9301,-1.9301,-1.9301,-1.9301,-1.9301,-1.9301,-1.9152,-1.9002,-1.8683,-1.8299,-1.8117,-1.8391,-1.8502,-1.8263,-1.8785,-1.893,-1.8297,-1.8562,-1.8665,-1.8357,-1.8665,-1.8879,-1.8879,-1.9187,-1.9341,-1.9273,-1.8896,-1.8511,-1.8134,-1.8066,-1.804,-1.804,-1.804,-1.804,-1.804,-1.804,-1.804,0.0,0.0,0.0,0.0,0.0,0.0,0.0,0.0,-3.285,0.0,-3.1029,-3.0732,-2.9837,-2.9415,-2.9035,-2.8651,-2.8341,-2.8013,-2.7536,-2.7523,-2.7523,-2.7523,-2.6552,-2.5931,-2.5931,-2.4886,-2.42,-2.42,-2.42,-2.42,-2.42,-2.42,-2.42,-2.42,-2.42,-2.42,-2.42,-2.42,-2.42,-2.42,-2.42,-2.3361,-2.1832,-2.1832,-2.0914,-1.9301,-1.9301,-1.9301,-1.9301,-1.9301,-1.9301,-1.9301,-1.9301,-1.9301,-1.9301,-1.9301,-1.9301,-1.9301,-1.9301,-1.9301,-1.9301,-1.9301,-1.9301,-1.9301,-1.9301,-1.9301,-1.9301,-1.9301,-1.9301,-1.9301,-1.9301,-1.9301,-1.9301,-1.9301,-1.9301,-1.9301,-1.9301,-1.9301,-1.9301,-1.9301,-1.9152,-1.9002,-1.8772,-1.8523,-1.8467,-1.8551,-1.8554,-1.8691,-1.8982,-1.911,-1.9136,-1.9033,-1.9358,-1.9573,-1.9521,-1.9855,-2.0061,-2.0061,-2.0112,-2.0001,-1.9684,-1.9299,-1.8913,-1.8519,-1.8203,-1.804,-1.804,-1.804,-1.804,-1.804,-1.804,-1.804,0.0,0.0,0.0,0.0,0.0,0.0,0.0,0.0,-3.2703,-3.1321,-3.1029,-3.0732,-2.9789,-2.9477,-2.9226,-2.8716,-2.8471,-2.8197,-2.7603,-2.7523,-2.7523,-2.7523,-2.6552,-2.5931,-2.5931,-2.4886,-2.42,-2.42,-2.42,-2.42,-2.42,-2.42,-2.42,-2.42,-2.42,-2.42,-2.42,-2.42,-2.42,-2.4189,-2.374,-2.2916,-2.1756,-2.1298,-2.0459,-1.9301,-1.9301,-1.9301,-1.9301,-1.9301,-1.9301,-1.9301,-1.9301,-1.9301,-1.9301,-1.9301,-1.9301,-1.9301,-1.9301,-1.9301,-1.9301,-1.9301,-1.9301,-1.9301,-1.9301,-1.9301,-1.9301,-1.9301,-1.9301,-1.9301,-1.9301,-1.9301,-1.9301,-1.9301,-1.9301,-1.9301,-1.9301,-1.9301,-1.9301,-1.9301,-1.9152,-1.8922,-1.87,-1.8707,-1.8655,-1.8645,-1.8956,-1.9222,-1.9179,-1.9538,-1.9641,-1.9213,-1.9513,-1.9658,-1.9444,-1.9769,-1.9984,-1.9984,-1.9984,-1.9915,-1.9752,-1.9162,-1.8759,-1.8588,-1.8228,-1.804,-1.804,-1.804,-1.804,-1.804,-1.804,-1.804,0.0,0.0,0.0,0.0,0.0,0.0,0.0,0.0,-3.2276,0.0,-3.0852,-3.0732,-2.9789,-2.954,-2.9289,-2.8716,-2.8522,-2.8262,-2.759,-2.7523,-2.7523,-2.7523,-2.6552,-2.5931,-2.5931,-2.4886,-2.42,-2.42,-2.42,-2.42,-2.42,-2.4074,-2.4062,-2.4189,-2.4074,-2.4062,-2.42,-2.42,-2.4127,-2.3897,-2.3298,-2.2456,-2.1461,-2.0769,-2.0079,-1.9301,-1.9301,-1.9301,-1.9301,-1.9301,-1.9301,-1.9301,-1.9301,-1.9301,-1.9301,-1.9301,-1.9301,-1.9301,-1.9301,-1.9301,-1.9301,-1.9301,-1.9301,-1.9301,-1.9301,-1.9301,-1.9301,-1.9301,-1.9301,-1.9301,-1.9301,-1.9301,-1.9301,-1.9301,-1.9301,-1.9301,-1.9301,-1.9301,-1.9301,-1.9301,-1.9073,-1.8851,-1.87,-1.8766,-1.8797,-1.8725,-1.9307,-1.9675,-1.9487,-1.9864,-1.9941,-1.9384,-1.9573,-1.9632,-1.9341,-1.9667,-1.9881,-1.9881,-1.9881,-1.9847,-1.9655,-1.9093,-1.8691,-1.8588,-1.8228,-1.804,-1.804,-1.804,-1.804,-1.804,-1.804,-1.804,0.0,0.0,0.0,0.0,0.0,0.0,0.0,0.0,-3.1482,-3.027,-3.0543,-3.0732,-2.9789,-2.9352,-2.9035,-2.8651,-2.8341,-2.8013,-2.7536,-2.7523,-2.7523,-2.7523,-2.6552,-2.5931,-2.5931,-2.4886,-2.42,-2.42,-2.42,-2.42,-2.42,-2.3741,-2.3695,-2.4177,-2.3729,-2.3718,-2.4189,-2.42,-2.3824,-2.3075,-2.3001,-2.2155,-2.0537,-2.0537,-2.0079,-1.9301,-1.9301,-1.9301,-1.9301,-1.9301,-1.9301,-1.9301,-1.9301,-1.9301,-1.9301,-1.9301,-1.9301,-1.9301,-1.9301,-1.9301,-1.9301,-1.9301,-1.9301,-1.9301,-1.9301,-1.9301,-1.9301,-1.9301,-1.9301,-1.9301,-1.9301,-1.9301,-1.9301,-1.9301,-1.9301,-1.9301,-1.9301,-1.9301,-1.9301,-1.9301,-1.9002,-1.87,-1.87,-1.8676,-1.8708,-1.9085,-1.9487,-1.9864,-2.0198,-1.9966,-1.9761,-1.9718,-1.9735,-1.9735,-1.9718,-2.0052,-2.0266,-2.0266,-2.0266,-2.0103,-1.9761,-1.9358,-1.8965,-1.8588,-1.8228,-1.804,-1.804,-1.804,-1.804,-1.804,-1.804,-1.804,0.0,0.0,0.0,0.0,0.0,0.0,-3.072,-3.1181,-3.1275,-3.0226,-3.0514,-3.0732,-2.9789,-2.9477,-2.9226,-2.8716,-2.8536,-2.8197,-2.759,-2.7523,-2.7523,-2.7523,-2.6552,-2.5931,-2.5931,-2.4886,-2.42,-2.42,-2.42,-2.42,-2.42,-2.3718,-2.3452,-2.3707,-2.3475,-2.3684,-2.4189,-2.3677,-2.3298,-2.3001,-2.1918,-2.1078,-2.0459,-2.0001,-1.9529,-1.9301,-1.9301,-1.9301,-1.9301,-1.9301,-1.9301,-1.9301,-1.9301,-1.9301,-1.9301,-1.9301,-1.9301,-1.9301,-1.9301,-1.9301,-1.9301,-1.9301,-1.9301,-1.9301,-1.9301,-1.9301,-1.9301,-1.9301,-1.9301,-1.9301,-1.9301,-1.9301,-1.9301,-1.9301,-1.9301,-1.9301,-1.9301,-1.9301,-1.9301,-1.9301,-1.9073,-1.8851,-1.87,-1.8968,-1.9169,-1.9239,-1.9701,-2.0146,-2.0275,-2.0172,-2.0095,-2.0095,-2.0095,-2.0095,-2.0095,-2.0215,-2.0292,-2.0292,-2.0069,-1.9881,-1.9752,-1.9136,-1.8725,-1.8588,-1.8228,-1.804,-1.804,-1.804,-1.804,-1.804,-1.804,-1.804,-3.186,0.0,0.0,0.0,0.0,-3.0156,-3.0231,0.0,-3.0698,-2.9841,-3.019,-3.047,-2.9747,-2.9434,-2.9115,-2.8688,-2.8587,-2.826,-2.7328,-2.7103,-2.6893,-2.6712,-2.5727,-2.5103,-2.5103,-2.4225,-2.3695,-2.3695,-2.3695,-2.3764,-2.3936,-2.3465,-2.319,-2.319,-2.3351,-2.345,-2.3553,-2.3209,-2.2692,-2.2155,-2.1001,-2.0382,-2.0079,-1.9529,-1.9301,-1.9301,-1.9301,-1.9301,-1.9301,-1.9301,-1.9301,-1.9301,-1.9301,-1.9301,-1.9301,-1.9301,-1.9301,-1.9301,-1.9301,-1.9301,-1.9301,-1.9301,-1.9301,-1.9301,-1.9301,-1.9301,-1.9301,-1.9301,-1.9301,-1.9301,-1.9301,-1.9301,-1.9301,-1.9301,-1.9301,-1.9301,-1.9301,-1.9301,-1.9301,-1.9301,-1.9073,-1.8851,-1.8692,-1.8976,-1.9186,-1.9239,-1.971,-2.0155,-2.0275,-2.0292,-2.0292,-2.0292,-2.0292,-2.0292,-2.0292,-2.0292,-2.0292,-2.0292,-2.0061,-1.9872,-1.9752,-1.9127,-1.8725,-1.8588,-1.8228,-1.804,-1.804,-1.804,-1.804,-1.804,-1.804,-1.804,0.0,0.0,0.0,0.0,0.0,0.0,-2.9717,0.0,-2.9853,-2.9139,-2.9528,-2.9886,-2.9619,-2.9069,-2.8675,-2.8566,-2.8532,-2.8136,-2.6855,-2.6232,-2.5688,-2.5179,-2.4173,-2.3513,-2.3501,-2.3001,-2.2685,-2.2685,-2.2685,-2.2891,-2.3326,-2.2937,-2.2662,-2.2685,-2.3155,-2.2984,-2.2248,-2.2676,-2.2155,-2.0459,-2.0459,-2.0079,-1.9301,-1.9301,-1.9301,-1.9301,-1.9301,-1.9301,-1.9301,-1.9301,-1.9301,-1.9301,-1.9301,-1.9301,-1.9301,-1.9301,-1.9301,-1.9301,-1.9301,-1.9301,-1.9301,-1.9301,-1.9301,-1.9301,-1.9301,-1.9301,-1.9301,-1.9301,-1.9301,-1.9301,-1.9301,-1.9301,-1.9301,-1.9301,-1.9301,-1.9301,-1.9301,-1.9301,-1.9301,-1.9301,-1.9002,-1.87,-1.87,-1.8676,-1.8716,-1.9102,-1.9495,-1.9872,-2.0232,-2.0283,-2.0292,-2.0292,-2.0292,-2.0292,-2.0292,-2.0292,-2.0292,-2.0292,-2.0292,-2.0129,-1.9769,-1.9393,-1.9007,-1.8614,-1.8237,-1.8049,-1.804,-1.804,-1.804,-1.804,-1.804,-1.804,-3.2109,0.0,0.0,0.0,0.0,0.0,-2.9962,0.0,-2.9692,-2.8944,-2.907,-2.9198,-2.8813,-2.8363,-2.7893,-2.738,-2.7284,-2.7031,-2.6136,-2.5602,-2.5409,-2.5586,-2.4369,-2.3634,-2.3952,-2.3191,-2.2685,-2.2685,-2.2685,-2.2742,-2.288,-2.2409,-2.2306,-2.2662,-2.2823,-2.2693,-2.2237,-2.2137,-2.1614,-2.0459,-1.9923,-1.9529,-1.9301,-1.9301,-1.9301,-1.9301,-1.9301,-1.9301,-1.9301,-1.9301,-1.9301,-1.9301,-1.9301,-1.9301,-1.9301,-1.9301,-1.9301,-1.9301,-1.9301,-1.9301,-1.9301,-1.9301,-1.9301,-1.9301,-1.9301,-1.9301,-1.9301,-1.9301,-1.9301,-1.9301,-1.9301,-1.9301,-1.9301,-1.9301,-1.9301,-1.9301,-1.9301,-1.9152,-1.9073,-1.9073,-1.8763,-1.8442,-1.8442,-1.8594,-1.8622,-1.8733,-1.9316,-1.9778,-1.9881,-2.0129,-2.0292,-2.0292,-2.0292,-2.0292,-2.0292,-2.0292,-2.0292,-2.0292,-2.0292,-2.0249,-2.0146,-1.9787,-1.9401,-1.9016,-1.8631,-1.8305,-1.804,-1.804,-1.804,-1.804,-1.804,-1.804,0.0,0.0,0.0,0.0,0.0,0.0,-3.0175,-2.9923,-2.9611,-2.8849,-2.8808,-2.8828,-2.8439,-2.7883,-2.7225,-2.6521,-2.6067,-2.5761,-2.5481,-2.4885,-2.4545,-2.4764,-2.3448,-2.2728,-2.322,-2.2545,-2.2042,-2.2042,-2.2042,-2.2145,-2.2352,-2.2088,-2.2065,-2.2352,-2.2363,-2.2036,-2.1349,-2.1471,-2.0964,-2.0001,-1.9529,-1.9301,-1.9301,-1.9301,-1.9301,-1.9301,-1.9301,-1.9301,-1.9301,-1.9301,-1.9301,-1.9301,-1.9301,-1.9301,-1.9301,-1.9301,-1.9301,-1.9301,-1.9301,-1.9301,-1.9301,-1.9301,-1.9301,-1.9301,-1.9301,-1.9301,-1.9301,-1.9301,-1.9301,-1.9301,-1.9301,-1.9301,-1.9301,-1.9301,-1.9301,-1.9301,-1.9222,-1.9002,-1.8931,-1.9002,-1.8683,-1.8442,-1.8442,-1.8374,-1.8468,-1.8785,-1.9076,-1.9376,-1.9701,-1.9932,-2.0061,-2.0061,-2.0198,-2.0292,-2.0292,-2.0292,-2.0292,-2.0292,-2.0292,-2.0292,-2.0292,-1.9787,-1.9478,-1.941,-1.8716,-1.8254,-1.804,-1.804,-1.804,-1.804,-1.804,-1.804,0.0,0.0,0.0,-3.18,-3.1651,0.0,-3.0302,-2.9935,-2.9569,-2.8819,-2.8613,-2.8532,-2.8347,-2.7567,-2.6722,-2.601,-2.5145,-2.4651,-2.4852,-2.4113,-2.3505,-2.3454,-2.2161,-2.1463,-2.1939,-2.1463,-2.1158,-2.1158,-2.1158,-2.1388,-2.1893,-2.187,-2.1804,-2.1784,-2.1918,-2.1452,-2.0216,-2.0824,-2.0536,-1.945,-1.9301,-1.9301,-1.9301,-1.9301,-1.9301,-1.9301,-1.9301,-1.9329,-1.9366,-1.9366,-1.9347,-1.9301,-1.9301,-1.9301,-1.9301,-1.9301,-1.9301,-1.9301,-1.9301,-1.9301,-1.9301,-1.9301,-1.9301,-1.9301,-1.9301,-1.9301,-1.9301,-1.9301,-1.9301,-1.9301,-1.9301,-1.9301,-1.9301,-1.9301,-1.9301,-1.9222,-1.9073,-1.8851,-1.8692,-1.8922,-1.8603,-1.8362,-1.8362,-1.8146,-1.8314,-1.8956,-1.8819,-1.8888,-1.953,-1.965,-1.9692,-1.9735,-2.0035,-2.0249,-2.0292,-2.0292,-2.0292,-2.0292,-2.0292,-2.0292,-2.0292,-1.965,-1.9418,-1.9675,-1.8596,-1.804,-1.804,-1.804,-1.804,-1.804,-1.8074,-1.8074,-3.2887,-3.2248,-3.18,-3.18,-3.1559,0.0,-3.0302,-2.9876,-2.9409,-2.8647,-2.8187,-2.7966,-2.7934,-2.7208,-2.6469,-2.6143,-2.5397,-2.4761,-2.4315,-2.3795,-2.3577,-2.3891,-2.2689,-2.1939,-2.2421,-2.1376,-2.07,-2.07,-2.07,-2.1054,-2.1838,-2.1537,-2.1232,-2.1074,-2.2037,-2.1854,-2.0379,-2.1207,-2.1141,-2.0226,-1.9608,-1.9301,-1.9301,-1.9301,-1.9301,-1.9301,-1.9301,-1.9494,-1.9806,-1.9806,-1.9604,-1.9301,-1.9301,-1.9301,-1.9301,-1.9301,-1.9301,-1.9301,-1.9301,-1.9301,-1.9301,-1.9301,-1.9301,-1.9301,-1.9301,-1.9301,-1.9301,-1.9301,-1.9301,-1.9301,-1.9301,-1.9301,-1.9301,-1.9301,-1.9152,-1.9082,-1.9002,-1.8683,-1.8442,-1.8523,-1.8282,-1.8121,-1.8121,-1.828,-1.8434,-1.828,-1.8716,-1.8999,-1.8836,-1.9085,-1.9401,-1.971,-1.9804,-1.9966,-2.0266,-2.0292,-2.0292,-2.0292,-2.0292,-2.0292,-2.0292,-2.0146,-1.9821,-1.9299,-1.8468,-1.804,-1.804,-1.804,-1.804,-1.804,-1.834,-1.8323,-3.3703,-3.2938,-3.2352,-3.2352,-3.1909,0.0,0.0,-2.9919,-2.9496,-2.8573,-2.825,-2.8054,-2.784,-2.7137,-2.6481,-2.6176,-2.5356,-2.465,-2.4319,-2.3806,-2.3463,-2.37,-2.2628,-2.2002,-2.2237,-2.1451,-2.0903,-2.0903,-2.07,-2.0876,-2.1537,-2.1307,-2.1054,-2.0795,-2.1396,-2.1188,-2.0139,-2.0591,-2.0476,-1.9923,-1.946,-1.9301,-1.9301,-1.9301,-1.9301,-1.9311,-1.9522,-1.9732,-1.9943,-2.0145,-2.0099,-1.9907,-1.9907,-1.9907,-1.9879,-1.9687,-1.9613,-1.9586,-1.9375,-1.9301,-1.9301,-1.9301,-1.9301,-1.9301,-1.9301,-1.9301,-1.9301,-1.9301,-1.9301,-1.9301,-1.9301,-1.9301,-1.9301,-1.9143,-1.9073,-1.8922,-1.8763,-1.8523,-1.8362,-1.8201,-1.8112,-1.81,-1.828,-1.8314,-1.8382,-1.8579,-1.8605,-1.8674,-1.8853,-1.8879,-1.9102,-1.9684,-1.9573,-1.9684,-2.024,-2.0121,-2.0095,-2.0283,-2.0292,-2.0292,-2.0292,-1.9932,-1.9384,-1.8622,-1.8417,-1.822,-1.804,-1.804,-1.804,-1.7959,-1.8228,-1.8314,-3.4519,-3.3611,-3.2904,-3.2904,-3.2221,-3.1278,0.0,0.0,0.0,-2.8621,-2.8411,-2.8299,-2.8005,-2.7291,-2.6649,-2.6165,-2.5273,-2.454,-2.4433,-2.3891,-2.3522,-2.3522,-2.2763,-2.2125,-2.2063,-2.1463,-2.1031,-2.0955,-2.0764,-2.0775,-2.1094,-2.1158,-2.0978,-2.0504,-2.0758,-2.0516,-1.9808,-1.9895,-1.9813,-1.9539,-1.9381,-1.9301,-1.9301,-1.9301,-1.9347,-1.9439,-1.9696,-1.9897,-2.0072,-2.0383,-2.0567,-2.0622,-2.0549,-2.0521,-2.0466,-2.0072,-1.9934,-1.987,-1.9448,-1.9301,-1.9301,-1.9301,-1.9301,-1.9301,-1.9301,-1.9301,-1.9301,-1.9301,-1.9301,-1.9301,-1.9301,-1.9301,-1.9222,-1.9082,-1.9002,-1.8843,-1.8523,-1.8362,-1.8282,-1.804,-1.804,-1.8134,-1.8434,-1.8288,-1.8348,-1.8965,-1.8537,-1.8365,-1.8982,-1.8785,-1.8853,-1.9555,-1.9358,-1.9453,-2.0129,-1.9847,-1.9761,-2.0061,-2.0078,-2.0078,-2.0078,-1.9418,-1.8768,-1.816,-1.8365,-1.8331,-1.804,-1.8108,-1.8108,-1.804,-1.8108,-1.8305,-3.5283,-3.4007,-3.2904,-3.2904,-3.2128,-3.1123,-3.0302,0.0,-2.9422,-2.8573,0.0,-2.8411,-2.8348,0.0,0.0,-2.6256,-2.55,-2.4759,-2.4231,-2.4059,-2.3995,-2.3995,-2.3569,-2.3065,-2.2543,-2.1376,-2.0571,-2.0237,-2.0431,-2.0635,-2.0646,-2.1031,-2.0783,-1.9765,-2.0818,-2.0923,-1.9863,-2.0264,-2.0411,-2.0382,-1.9608,-1.9301,-1.9301,-1.9301,-1.9503,-1.9842,-1.9512,-1.9778,-2.0457,-2.0503,-2.0723,-2.1007,-2.0659,-2.0521,-2.0466,-2.0072,-1.9934,-1.987,-1.9448,-1.9301,-1.9301,-1.9301,-1.9301,-1.9301,-1.9301,-1.9301,-1.9301,-1.9301,-1.9301,-1.9301,-1.9301,-1.9301,-1.9222,-1.9082,-1.8851,-1.8692,-1.8442,-1.8193,-1.804,-1.804,-1.804,-1.7968,-1.8091,-1.834,-1.8554,-1.8639,-1.8579,-1.8554,-1.8639,-1.8614,-1.8751,-1.9196,-1.9196,-1.9341,-1.9769,-1.9453,-1.9256,-1.9299,-1.9299,-1.9299,-1.9299,-1.8888,-1.8614,-1.8528,-1.8245,-1.8074,-1.804,-1.8365,-1.8357,-1.8049,-1.8374,-1.8545,-3.6064,-3.5226,-3.4405,-3.3775,-3.2917,-3.1893,-3.041,-2.9832,-2.9377,-2.8573,0.0,0.0,0.0,0.0,0.0,0.0,-2.5926,-2.5106,-2.4679,-2.4446,-2.4073,-2.3352,-2.3053,-2.2616,-2.1889,-2.1071,-2.0506,-2.0366,-2.0366,-2.0366,-2.0571,-2.1045,-2.0874,-2.0009,-2.077,-2.0653,-1.9571,-1.975,-1.9766,-1.9766,-1.946,-1.9301,-1.9301,-1.9301,-1.9393,-1.9567,-1.9641,-1.9989,-2.0539,-2.0769,-2.1108,-2.1456,-2.1291,-2.1227,-2.1172,-2.0759,-2.0466,-2.0218,-1.9806,-1.9503,-1.9301,-1.9301,-1.9301,-1.9301,-1.9301,-1.9301,-1.9301,-1.9301,-1.9301,-1.9301,-1.9301,-1.9222,-1.9073,-1.8843,-1.8692,-1.8442,-1.8201,-1.8121,-1.804,-1.804,-1.804,-1.804,-1.804,-1.8168,-1.8417,-1.8862,-1.8545,-1.8425,-1.887,-1.8545,-1.8502,-1.911,-1.8776,-1.8759,-1.9358,-1.9059,-1.893,-1.9162,-1.917,-1.9076,-1.8845,-1.8674,-1.8485,-1.8271,-1.8331,-1.8357,-1.8357,-1.8742,-1.8845,-1.8699,-1.8853,-1.905,-3.6678,-3.6138,-3.5524,-3.4367,-3.3477,-3.2385,-3.0684,-2.9962,-2.9406,-2.8732,-2.8477,0.0,0.0,0.0,-2.7063,-2.6886,0.0,-2.5259,-2.4613,-2.4359,-2.3935,-2.2967,-2.2604,-2.2175,-2.1651,-2.0957,-2.0553,-2.0624,-2.0245,-2.0222,-2.0571,-2.1106,-2.1035,-2.0216,-2.0689,-2.0476,-1.9292,-1.9301,-1.9301,-1.9301,-1.9301,-1.9301,-1.9301,-1.9301,-1.9421,-1.9641,-1.9842,-2.0218,-2.0704,-2.0989,-2.1282,-2.1575,-2.1695,-2.1741,-2.1686,-2.1264,-2.0924,-2.0613,-2.0108,-1.965,-1.9301,-1.9301,-1.9301,-1.9301,-1.9301,-1.9301,-1.9301,-1.9301,-1.9301,-1.9301,-1.9301,-1.9152,-1.8922,-1.878,-1.8531,-1.8362,-1.804,-1.804,-1.804,-1.804,-1.804,-1.804,-1.804,-1.804,-1.8263,-1.8913,-1.8459,-1.8271,-1.893,-1.8528,-1.84,-1.8956,-1.8519,-1.8408,-1.8965,-1.8656,-1.8562,-1.8845,-1.8862,-1.8733,-1.8451,-1.8434,-1.8314,-1.804,-1.84,-1.8588,-1.8588,-1.9085,-1.9333,-1.9324,-1.9222,-1.9376,-3.7094,-3.6355,-3.5524,-3.4367,-3.3259,-3.2139,-3.1106,-3.0201,-2.954,-2.9225,-2.8779,-2.8411,-2.8411,-2.771,-2.6916,-2.6347,-2.582,0.0,0.0,-2.35,-2.3642,-2.3386,-2.2519,-2.2063,-2.2531,-2.1242,-2.0444,-2.0602,-2.0187,-2.012,-2.0549,-2.1106,-2.1035,-2.0216,-2.0689,-2.0476,-1.9292,-1.9301,-1.9301,-1.9301,-1.9301,-1.9301,-1.9301,-1.9301,-1.9732,-2.0457,-2.009,-2.0365,-2.1089,-2.1099,-2.1117,-2.1172,-2.1575,-2.1741,-2.1686,-2.1264,-2.1099,-2.0979,-2.02,-1.965,-1.9301,-1.9301,-1.9301,-1.9301,-1.9301,-1.9301,-1.9301,-1.9301,-1.9301,-1.9301,-1.9301,-1.9152,-1.8922,-1.878,-1.8531,-1.8362,-1.804,-1.804,-1.804,-1.804,-1.804,-1.804,-1.804,-1.804,-1.8168,-1.8545,-1.828,-1.8177,-1.8554,-1.8588,-1.8579,-1.8605,-1.8579,-1.8579,-1.8605,-1.8263,-1.7976,-1.8074,-1.8074,-1.8066,-1.8057,-1.8057,-1.8049,-1.804,-1.84,-1.8588,-1.8588,-1.935,-1.9727,-1.9718,-1.9341,-1.9376,-3.7055,-3.6667,-3.6125,-3.5111,-3.4502,-3.3774,-3.2063,-3.1011,-3.0132,-2.9366,-2.8779,-2.8411,-2.8411,-2.771,-2.7049,-2.6828,-2.6222,-2.5549,0.0,-2.4166,-2.3677,-2.3437,-2.2201,-2.1415,-2.1596,-2.0567,-2.0015,-2.0109,-1.9809,-1.9742,-2.0204,-2.0787,-2.0576,-1.9535,-2.0472,-2.0337,-1.8907,-1.9173,-1.9301,-1.9301,-1.9301,-1.9301,-1.9301,-1.9301,-1.9448,-1.9714,-1.987,-2.0228,-2.0741,-2.0998,-2.1273,-2.1539,-2.1676,-2.1741,-2.1722,-2.1575,-2.1346,-2.0998,-2.02,-1.9833,-1.9668,-1.9393,-1.9301,-1.9301,-1.9301,-1.9301,-1.9301,-1.9301,-1.9222,-1.9073,-1.9073,-1.8834,-1.8603,-1.8523,-1.8282,-1.8112,-1.804,-1.804,-1.804,-1.804,-1.804,-1.804,-1.804,-1.804,-1.816,-1.8528,-1.8271,-1.8168,-1.8545,-1.8374,-1.822,-1.822,-1.822,-1.822,-1.822,-1.8108,-1.804,-1.804,-1.804,-1.804,-1.804,-1.804,-1.8151,-1.84,-1.8776,-1.9102,-1.935,-1.9855,-2.0103,-2.0103,-1.9975,-1.9984,-3.7055,-3.6843,-3.6509,-3.5393,-3.5087,-3.4685,-3.3104,-3.1788,-3.0803,-3.0259,-2.9294,-2.8525,-2.8621,-2.7959,-2.7342,-2.7342,-2.6669,-2.5863,0.0,-2.4273,-2.3586,-2.3145,-2.1919,-2.1176,-2.1366,-2.0367,-1.9904,-2.0296,-1.9872,-1.9805,-2.0279,-2.051,-2.0371,-1.9756,-2.0327,-2.0187,-1.9371,-1.933,-1.9301,-1.9301,-1.9457,-1.9448,-1.9301,-1.9457,-1.9522,-1.954,-1.9815,-2.0154,-2.0539,-2.0796,-2.1145,-2.1511,-2.1511,-2.1603,-2.1741,-2.1741,-2.1475,-2.1034,-2.0521,-2.0255,-2.0072,-1.9659,-1.9522,-1.9494,-1.9347,-1.9301,-1.9301,-1.9301,-1.9152,-1.9002,-1.9002,-1.8683,-1.8442,-1.8442,-1.8201,-1.804,-1.804,-1.804,-1.804,-1.804,-1.804,-1.804,-1.804,-1.804,-1.8117,-1.8357,-1.8186,-1.8126,-1.8357,-1.8186,-1.804,-1.804,-1.804,-1.804,-1.804,-1.804,-1.804,-1.804,-1.804,-1.81,-1.8228,-1.8228,-1.8408,-1.8785,-1.9179,-1.9495,-1.9744,-2.0112,-2.0292,-2.0292,-1.992,-1.9729]}]]